Date StartTime U_cm/s V_cm/s W_cm/s Ustd_cm/s Vstd_cm/s Wstd_cm/s Uvar_(cm/s)^2 Vvar_(cm/s)^2 Wvar_(cm/s)^2 KE_(m/s)^2 TurbulentKE_(m/s)^2 HorizWindSpeed_cm/s FrictionSpeec_cm/s DragCoef SpeedOfSound_m/s SonicTemperature_C Pressure_mb 
08/28/2014  00:00:00     -105.179      -36.720       -4.992       25.253       18.825       13.666      637.706      354.368      186.755        0.681        0.059      111.405       10.052        0.008      345.435       22.962      865.414
08/28/2014  00:01:00     -134.693        1.208      -13.850       30.205       38.354       15.714      912.335     1471.021      246.922        1.048        0.132      134.699       17.283        0.016      345.287       22.709      865.442
08/28/2014  00:02:00     -111.651      -22.313       -8.121       26.282       21.131       17.501      690.736      446.509      306.269        0.724        0.072      113.858       17.425        0.023      345.342       22.803      865.452
08/28/2014  00:03:00     -105.518       30.753      -10.119       43.264       22.766       14.554     1871.752      518.291      211.809        0.739        0.130      109.908       16.536        0.023      345.160       22.490      865.459
08/28/2014  00:04:00      -80.448       21.811       -3.707       30.780       29.425       15.573      947.390      865.825      242.529        0.451        0.103       83.352       13.032        0.024      345.322       22.768      865.458
08/28/2014  00:05:00     -117.311       36.961      -20.628       25.745       20.058       16.120      662.816      402.341      259.847        0.844        0.066      122.996        8.010        0.004      345.385       22.876      865.470
08/28/2014  00:06:00      -61.755       22.287      -18.402       25.281       18.780       10.996      639.117      352.705      120.922        0.288        0.056       65.653        6.889        0.011      345.271       22.681      865.477
08/28/2014  00:07:00     -103.898        7.146      -14.757       29.457       21.069       12.195      867.716      443.908      148.707        0.626        0.073      104.144       10.345        0.010      345.294       22.722      865.479
08/28/2014  00:08:00      -97.131      -25.922       -2.308       30.499       22.414       17.399      930.171      502.370      302.736        0.592        0.087      100.531       12.335        0.015      345.168       22.505      865.482
08/28/2014  00:09:00      -77.488      -17.257       -9.447       38.646       17.302       12.308     1493.536      299.359      151.486        0.417        0.097       79.387       10.682        0.018      345.188       22.539      865.473
08/28/2014  00:10:00      -80.951      -21.768       -5.283       12.894       14.887       10.551      166.264      221.626      111.329        0.378        0.025       83.827        6.513        0.006      345.206       22.571      865.473
08/28/2014  00:11:00      -46.751      -24.293        0.749       19.912       18.558        7.008      396.480      344.395       49.112        0.178        0.039       52.686        3.986        0.006      345.329       22.781      865.469
08/28/2014  00:12:00      -55.271      -30.957       10.638       44.493       19.042       15.151     1979.593      362.586      229.560        0.335        0.129       63.350       21.765        0.118      345.174       22.517      865.480
08/28/2014  00:13:00       -2.568      -34.915       15.702       29.270       20.973       15.397      856.730      439.848      237.066        0.150        0.077       35.009       14.408        0.169      345.200       22.561      865.474
08/28/2014  00:14:00      -58.660      -50.829        0.706       34.092       25.483       19.592     1162.251      649.399      383.861        0.411        0.110       77.618       21.118        0.074      345.267       22.676      865.466
08/28/2014  00:15:00      -86.030      -60.442        1.845       22.862       26.164       18.665      522.677      684.539      348.364        0.631        0.078      105.140       16.528        0.025      345.328       22.779      865.470
08/28/2014  00:16:00      -75.567      -58.896        1.816       37.573       27.256       17.230     1411.722      742.876      296.888        0.582        0.123       95.808       18.322        0.037      345.316       22.757      865.473
08/28/2014  00:17:00      -69.875      -47.379        7.264       48.885       32.715       21.155     2389.756     1070.257      447.522        0.554        0.195       84.424       24.183        0.082      345.338       22.798      865.471
08/28/2014  00:18:00     -121.882      -71.458       -2.333       44.005       35.370       22.546     1936.464     1251.004      508.342        1.183        0.185      141.285       25.219        0.032      345.429       22.952      865.487
08/28/2014  00:19:00     -127.049       -7.768       -8.920       42.054       38.850       24.911     1768.518     1509.360      620.537        1.009        0.195      127.286       23.734        0.035      345.086       22.364      865.498
08/28/2014  00:20:00     -150.419      -21.491       -8.705       39.523       27.799       19.169     1562.102      772.789      367.467        1.293        0.135      151.946       20.324        0.018      344.954       22.139      865.498
08/28/2014  00:21:00     -122.759      -26.305        3.339       41.091       28.336       19.836     1688.436      802.917      393.477        0.933        0.144      125.546       21.173        0.028      344.992       22.207      865.495
08/28/2014  00:22:00     -115.590      -40.399       -7.610       28.609       24.697       16.532      818.494      609.961      273.307        0.838        0.085      122.446       14.844        0.015      345.027       22.264      865.506
08/28/2014  00:23:00     -104.836       -9.940       -2.442       31.212       26.469       19.636      974.201      700.614      385.579        0.658        0.103      105.306       18.821        0.032      344.952       22.137      865.502
08/28/2014  00:24:00      -88.471      -15.403        1.332       44.193       22.285       17.070     1953.017      496.637      291.398        0.540        0.137       89.801       21.984        0.060      345.014       22.242      865.500
08/28/2014  00:25:00      -68.972      -21.982        2.239       31.161       20.908       15.092      970.990      437.162      227.761        0.344        0.082       72.390       15.260        0.044      344.946       22.125      865.510
08/28/2014  00:26:00      -70.310      -23.662       -1.248       27.489       22.205       20.035      755.645      493.084      401.409        0.358        0.083       74.185       19.078        0.066      344.905       22.057      865.516
08/28/2014  00:27:00      -88.352      -28.110      -12.337       29.598       23.915       12.853      876.055      571.946      165.198        0.518        0.081       92.716        9.189        0.010      344.986       22.193      865.521
08/28/2014  00:28:00      -60.116      -14.596       -2.009       27.730       22.465       11.027      768.958      504.668      121.599        0.261        0.070       61.862       10.953        0.031      344.970       22.168      865.522
08/28/2014  00:29:00      -75.205       20.292       -3.038       32.610       18.401       15.474     1063.406      338.605      239.439        0.386        0.082       77.895       12.241        0.025      344.735       21.766      865.521
08/28/2014  00:30:00      -94.702       13.942       -6.172       43.008       32.232       13.465     1849.690     1038.897      181.300        0.613        0.153       95.723       10.836        0.013      344.745       21.782      865.512
08/28/2014  00:31:00      -38.826       -0.785        3.885       28.929       17.597       16.518      836.891      309.671      272.842        0.147        0.071       38.834       11.778        0.092      344.643       21.606      865.513
08/28/2014  00:32:00      -67.381      -12.463       -2.478       22.312       25.481       12.758      497.819      649.294      162.772        0.301        0.065       68.524       11.452        0.028      344.678       21.666      865.515
08/28/2014  00:33:00      -46.760      -23.913        2.261       44.064       28.368       16.605     1941.667      804.736      275.717        0.289        0.151       52.519       19.746        0.141      344.575       21.491      865.505
08/28/2014  00:34:00      -82.175      -29.204        3.099       32.774       25.456       19.173     1074.160      648.003      367.600        0.485        0.104       87.210       18.405        0.045      344.583       21.505      865.496
08/28/2014  00:35:00      -56.426      -27.611        9.836       35.598       27.022       17.901     1267.183      730.202      320.438        0.318        0.116       62.819       15.514        0.061      344.679       21.670      865.499
08/28/2014  00:36:00      -40.664      -34.429        7.935       37.460       30.991       20.241     1403.284      960.415      409.690        0.284        0.139       53.282       20.338        0.146      344.757       21.802      865.489
08/28/2014  00:37:00     -106.741      -55.075        0.428       29.313       23.183       14.978      859.254      537.451      224.336        0.802        0.081      120.112       11.936        0.010      344.850       21.963      865.477
08/28/2014  00:38:00     -116.686      -33.023        2.956       38.366       26.386       19.434     1471.967      696.217      377.670        0.863        0.127      121.269       17.965        0.022      344.921       22.084      865.474
08/28/2014  00:39:00     -100.680      -56.960        1.573       49.797       26.330       19.278     2479.781      693.291      371.625        0.846        0.177      115.675       18.218        0.025      345.004       22.225      865.477
08/28/2014  00:40:00      -94.369      -61.320        2.700       51.777       47.328       25.688     2680.895     2239.911      659.888        0.913        0.279      112.542       26.266        0.054      345.293       22.719      865.473
08/28/2014  00:41:00      -66.738      -35.697       11.900       51.685       22.771       21.256     2671.307      518.508      451.805        0.476        0.182       75.685       25.967        0.118      345.081       22.358      865.479
08/28/2014  00:42:00      -52.385      -26.238        6.952       28.339       20.616       16.991      803.076      425.004      288.692        0.250        0.076       58.588        6.386        0.012      344.956       22.143      865.494
08/28/2014  00:43:00      -31.607      -44.167        2.262       29.925       19.302       15.341      895.531      372.571      235.355        0.223        0.075       54.311       14.708        0.073      345.116       22.417      865.500
08/28/2014  00:44:00      -33.813      -36.947       -1.537       21.854       29.463        9.877      477.613      868.048       97.563        0.198        0.072       50.084        8.957        0.032      345.234       22.618      865.491
08/28/2014  00:45:00        4.495      -53.700        5.111       39.748       36.435       20.416     1579.877     1327.502      416.799        0.313        0.166       53.888       16.672        0.096      345.099       22.386      865.497
08/28/2014  00:46:00        1.073      -41.267       12.631       22.067       23.125       15.099      486.937      534.745      227.990        0.156        0.062       41.281        8.297        0.040      344.974       22.174      865.516
08/28/2014  00:47:00      -21.883        1.791       -0.552       15.438       13.432        6.895      238.326      180.426       47.542        0.047        0.023       21.956        6.158        0.079      344.893       22.035      865.525
08/28/2014  00:48:00      -73.316       24.205       -8.178       41.844       24.528       17.999     1750.955      601.643      323.977        0.435        0.134       77.208       17.213        0.050      344.983       22.189      865.525
08/28/2014  00:49:00      -59.375       32.316       -0.533       23.946       31.177       16.023      573.411      971.995      256.725        0.319        0.090       67.600       12.669        0.035      344.909       22.063      865.524
08/28/2014  00:50:00      -58.412       22.816        0.523       25.663       22.319       17.046      658.581      498.151      290.581        0.269        0.072       62.710       13.799        0.048      344.765       21.816      865.543
08/28/2014  00:51:00      -78.949        6.248        0.528       26.723       36.835       14.260      714.112     1356.800      203.357        0.427        0.114       79.196       10.334        0.017      344.777       21.837      865.539
08/28/2014  00:52:00      -87.528      -21.111       -4.450       28.266       27.826       13.806      798.976      774.298      190.593        0.494        0.088       90.038       14.812        0.027      344.593       21.523      865.534
08/28/2014  00:53:00      -79.625      -30.086       -6.969       30.384       25.683       17.282      923.159      659.636      298.684        0.459        0.094       85.119       12.704        0.022      344.550       21.448      865.543
08/28/2014  00:54:00      -63.614      -33.705        2.903       51.217       28.770       21.042     2623.202      827.705      442.759        0.454        0.195       71.991       15.067        0.044      344.461       21.296      865.546
08/28/2014  00:55:00      -74.142      -38.019        4.903       38.917       26.746       25.362     1514.538      715.365      643.217        0.492        0.144       83.322       24.703        0.088      344.549       21.446      865.536
08/28/2014  00:56:00      -71.566      -84.160       -3.209       38.534       29.728       26.001     1484.860      883.737      676.071        0.763        0.152      110.474       26.663        0.058      344.732       21.760      865.537
08/28/2014  00:57:00      -67.723      -46.183       -6.592       29.686       29.388       18.455      881.266      863.678      340.570        0.442        0.104       81.971       16.928        0.043      344.761       21.808      865.543
08/28/2014  00:58:00      -70.824      -26.102        2.230       39.657       28.976       17.904     1572.670      839.588      320.546        0.422        0.137       75.480       21.585        0.082      344.726       21.749      865.539
08/28/2014  00:59:00      -98.858      -50.294       -9.472       22.569       26.789       15.561      509.349      717.673      242.158        0.693        0.073      110.916       11.979        0.012      344.762       21.811      865.538
08/28/2014  01:00:00      -98.865      -14.382       -9.425       18.659       18.354       11.869      348.153      336.856      140.875        0.545        0.041       99.906        7.849        0.006      344.711       21.723      865.552
08/28/2014  01:01:00      -75.269      -10.724       -3.499       31.434       18.779       19.679      988.081      352.664      387.277        0.376        0.086       76.029       20.482        0.073      344.594       21.523      865.578
08/28/2014  01:02:00      -78.685       -9.324       -1.475       32.576       29.414       21.046     1061.218      865.194      442.942        0.432        0.118       79.236       17.120        0.047      344.568       21.478      865.583
08/28/2014  01:03:00      -59.113      -20.833       -2.405       30.463       32.407       16.334      928.024     1050.243      266.807        0.309        0.112       62.677       10.935        0.030      344.438       21.259      865.586
08/28/2014  01:04:00      -82.167      -17.866        1.180       28.756       27.196       16.085      826.880      739.623      258.725        0.445        0.091       84.086       14.625        0.030      344.431       21.246      865.599
08/28/2014  01:05:00      -53.642       -9.871        3.042       29.183       24.692       14.668      851.619      609.673      215.156        0.233        0.084       54.543       15.318        0.079      344.385       21.167      865.606
08/28/2014  01:06:00      -70.849      -11.157       -0.326       23.819       19.612       14.968      567.324      384.617      224.053        0.316        0.059       71.722       11.400        0.025      344.478       21.325      865.609
08/28/2014  01:07:00      -65.763      -26.675       -3.955       28.030       20.943       16.236      785.709      438.627      263.623        0.327        0.074       70.967       15.566        0.048      344.457       21.290      865.615
08/28/2014  01:08:00      -79.001       22.612       -2.492       53.982       26.152       17.101     2914.084      683.909      292.448        0.532        0.195       82.173       18.253        0.049      344.350       21.107      865.617
08/28/2014  01:09:00     -105.483       27.136      -10.556       27.871       15.771       13.455      776.780      248.725      181.041        0.659        0.060      108.917       10.521        0.009      344.403       21.197      865.624
08/28/2014  01:10:00      -68.119       18.881       -5.827       24.602       29.574       13.980      605.273      874.609      195.431        0.335        0.084       70.687       11.249        0.025      344.301       21.023      865.624
08/28/2014  01:11:00      -44.125      -13.481       -0.657       23.110       17.316       13.022      534.087      299.835      169.578        0.157        0.050       46.139       11.199        0.059      344.244       20.926      865.628
08/28/2014  01:12:00      -62.216        3.628       -2.112       24.868       18.219       13.616      618.418      331.927      185.391        0.251        0.057       62.321       12.616        0.041      344.233       20.906      865.647
08/28/2014  01:13:00      -74.335        5.677       -7.793       24.305       21.483       11.564      590.729      461.531      133.724        0.340        0.059       74.551        8.166        0.012      344.293       21.010      865.648
08/28/2014  01:14:00      -56.372      -28.639       -1.050       26.015       30.850       15.893      676.799      951.749      252.578        0.294        0.094       63.229       15.769        0.062      344.232       20.905      865.665
08/28/2014  01:15:00      -75.620      -20.259       -2.891       30.235       23.383       13.652      914.177      546.781      186.364        0.389        0.082       78.286       12.049        0.024      344.226       20.894      865.678
08/28/2014  01:16:00      -83.902      -35.196        2.388       21.876       23.867       16.266      478.552      569.635      264.580        0.480        0.066       90.986       13.459        0.022      344.238       20.914      865.682
08/28/2014  01:17:00      -72.051      -23.564       -0.091       25.904       25.664       18.757      671.032      658.633      351.808        0.371        0.084       75.807       17.148        0.051      344.204       20.857      865.677
08/28/2014  01:18:00      -81.429      -32.876        3.667       32.537       30.433       19.321     1058.642      926.196      373.287        0.504        0.118       87.815       17.611        0.040      344.257       20.948      865.674
08/28/2014  01:19:00      -95.995      -46.223        4.528       44.397       25.264       19.564     1971.110      638.246      382.758        0.718        0.150      106.544       15.664        0.022      344.278       20.983      865.682
08/28/2014  01:20:00     -103.198      -59.647        4.447       38.263       32.886       24.320     1464.060     1081.500      591.471        0.868        0.157      119.195       23.718        0.040      344.375       21.149      865.673
08/28/2014  01:21:00     -101.516     -102.977        6.492       75.949       63.400       33.405     5768.252     4019.523     1115.883        1.593        0.545      144.601       35.892        0.062      344.531       21.414      865.656
08/28/2014  01:22:00     -105.199      -98.483        3.390       67.098       53.909       32.462     4502.199     2906.202     1053.800        1.462        0.423      144.103       32.832        0.052      344.542       21.434      865.662
08/28/2014  01:23:00      -91.471      -52.470       11.141       48.759       36.395       25.808     2377.489     1324.591      666.076        0.781        0.218      105.452       16.830        0.025      344.458       21.291      865.663
08/28/2014  01:24:00     -117.051      -79.150       -3.496       30.651       31.684       16.219      939.508     1003.872      263.051        1.109        0.110      141.300       14.596        0.011      344.523       21.403      865.662
08/28/2014  01:25:00     -124.535      -39.958        0.691       39.054       27.612       17.361     1525.209      762.440      301.415        0.985        0.129      130.789       17.626        0.018      344.469       21.310      865.667
08/28/2014  01:26:00      -78.369      -12.261        1.331       44.223       38.669       25.177     1955.672     1495.257      633.898        0.519        0.204       79.323       24.571        0.096      344.289       21.003      865.679
08/28/2014  01:27:00     -155.850       32.309       -6.514       49.479       39.652       22.619     2448.203     1572.299      511.635        1.495        0.227      159.164       12.381        0.006      343.894       20.326      865.683
08/28/2014  01:28:00     -109.769      -22.571       -4.168       29.874       42.776       26.685      892.433     1829.765      712.095        0.800        0.172      112.066       19.126        0.029      343.899       20.335      865.682
08/28/2014  01:29:00     -123.205      -23.083      -11.046       39.759       30.299       24.054     1580.806      918.030      578.604        0.946        0.154      125.348       23.483        0.035      343.898       20.334      865.690
08/28/2014  01:30:00      -81.760      -38.336       -8.458       35.272       28.566       15.969     1244.092      816.018      255.020        0.527        0.116       90.301       10.991        0.015      343.801       20.167      865.674
08/28/2014  01:31:00     -100.729      -27.213       -4.691       26.677       38.953       18.781      711.653     1517.298      352.715        0.674        0.129      104.340       16.283        0.024      343.701       19.998      865.668
08/28/2014  01:32:00     -134.779        0.354       -6.041       42.997       38.872       19.819     1848.714     1511.023      392.808        1.098        0.188      134.779       16.995        0.016      343.774       20.123      865.663
08/28/2014  01:33:00      -92.211      -19.550       -5.869       46.832       36.930       19.898     2193.232     1363.817      395.935        0.644        0.198       94.261       22.701        0.058      343.644       19.901      865.653
08/28/2014  01:34:00      -66.755        9.597        1.488       38.864       31.504       20.560     1510.385      992.497      422.706        0.374        0.146       67.441       16.321        0.059      343.644       19.901      865.636
08/28/2014  01:35:00     -127.397        6.270       -8.786       30.161       33.535       16.944      909.711     1124.580      287.090        0.933        0.116      127.551       14.047        0.012      343.801       20.169      865.641
08/28/2014  01:36:00     -127.152      -52.310       -2.278       29.623       39.166       19.533      877.503     1533.937      381.530        1.085        0.140      137.492       17.184        0.016      343.736       20.059      865.640
08/28/2014  01:37:00      -93.880      -23.429       -8.996       20.875       16.198       14.976      435.775      262.382      224.290        0.518        0.046       96.760       12.360        0.016      343.556       19.750      865.635
08/28/2014  01:38:00      -93.319       -3.075       -5.721       22.995       18.513       13.449      528.787      342.717      180.878        0.490        0.053       93.370        7.610        0.007      343.598       19.823      865.640
08/28/2014  01:39:00      -72.797      -18.214        0.851       25.442       20.606       13.599      647.313      424.614      184.931        0.344        0.063       75.041       15.061        0.040      343.571       19.777      865.648
08/28/2014  01:40:00      -13.915      -39.022        2.805       22.556       12.407        9.978      508.774      153.923       99.564        0.124        0.038       41.429        7.656        0.034      343.813       20.189      865.642
08/28/2014  01:41:00       -4.802      -38.190        5.494       12.197       16.373       10.365      148.758      268.059      107.440        0.102        0.026       38.491        6.736        0.031      344.048       20.590      865.638
08/28/2014  01:42:00      -73.859        8.656        0.729       19.282       10.830        9.074      371.798      117.297       82.342        0.305        0.029       74.364        6.775        0.008      343.803       20.171      865.657
08/28/2014  01:43:00      -31.811      -32.655       -3.943       24.537       19.071        8.824      602.087      363.721       77.871        0.157        0.052       45.588        7.958        0.030      343.806       20.177      865.650
08/28/2014  01:44:00      -44.652      -50.979       -1.151       13.860       11.687        9.600      192.111      136.576       92.164        0.251        0.021       67.770        6.363        0.009      344.120       20.713      865.634
08/28/2014  01:45:00      -51.859      -29.479       -2.497       12.737       12.564        7.938      162.234      157.848       63.011        0.197        0.019       59.653        5.538        0.009      344.060       20.612      865.636
08/28/2014  01:46:00      -46.130      -26.017       -0.749       24.235       13.208       15.246      587.319      174.442      232.442        0.190        0.050       52.961       15.075        0.081      344.077       20.640      865.632
08/28/2014  01:47:00      -29.421      -47.162       -9.005       21.274       22.028       14.132      452.586      485.219      199.702        0.215        0.057       55.587       11.256        0.041      344.314       21.044      865.624
08/28/2014  01:48:00      -49.454      -15.022       -3.949       25.321       15.786       14.930      641.131      249.189      222.895        0.190        0.056       51.685       12.409        0.058      344.086       20.656      865.623
08/28/2014  01:49:00      -73.847      -34.198        4.565       27.116       24.620       17.370      735.294      606.123      301.733        0.414        0.082       81.381       13.547        0.028      344.005       20.516      865.619
08/28/2014  01:50:00     -104.706     -115.793       -3.719       45.972       35.426       26.100     2113.469     1255.022      681.225        1.422        0.202      156.113       24.945        0.026      344.412       21.213      865.606
08/28/2014  01:51:00     -102.686     -115.038       -7.731       30.188       42.879       25.110      911.337     1838.644      630.520        1.361        0.169      154.202       24.435        0.025      344.419       21.225      865.603
08/28/2014  01:52:00      -98.613      -82.295       -0.666       51.206       42.689       28.987     2622.094     1822.344      840.250        1.089        0.264      128.441       28.059        0.048      344.411       21.211      865.600
08/28/2014  01:53:00      -89.286      -83.345       -1.135       37.426       48.426       19.410     1400.709     2345.120      376.762        0.952        0.206      122.141       14.169        0.013      344.423       21.231      865.592
08/28/2014  01:54:00      -56.562      -53.144        8.656       37.601       33.996       19.989     1413.819     1155.758      399.579        0.453        0.148       77.612       16.844        0.047      344.282       20.991      865.588
08/28/2014  01:55:00     -109.124     -110.278       -1.396       49.525       47.557       23.574     2452.689     2261.687      555.747        1.467        0.264      155.143       18.667        0.014      344.379       21.156      865.593
08/28/2014  01:56:00      -61.840      -60.222        1.004       35.512       31.715       20.013     1261.136     1005.836      400.530        0.506        0.133       86.318       16.308        0.036      344.411       21.212      865.578
08/28/2014  01:57:00      -71.854      -80.907        0.176       43.958       38.811       22.020     1932.296     1506.295      484.895        0.782        0.196      108.208       23.094        0.046      344.350       21.107      865.566
08/28/2014  01:58:00      -86.194     -147.171        6.610       56.418       54.402       34.025     3183.000     2959.591     1157.727        1.821        0.365      170.555       33.245        0.038      344.393       21.179      865.574
08/28/2014  01:59:00      -87.492     -159.544       -3.560       50.463       69.854       29.296     2546.543     4879.588      858.254        2.070        0.414      181.959       23.569        0.017      344.401       21.191      865.573
08/28/2014  02:00:00      -76.487     -157.270       -7.275       53.548       48.965       25.405     2867.408     2397.578      645.394        1.827        0.296      174.883       19.627        0.013      344.419       21.223      865.574
08/28/2014  02:01:00     -106.769      -55.504      -14.014       47.895       52.929       20.904     2293.914     2801.443      436.970        1.010        0.277      120.334       21.216        0.031      344.309       21.034      865.574
08/28/2014  02:02:00      -71.420       -5.035       -3.255       50.663       42.624       30.623     2566.767     1816.841      937.755        0.523        0.266       71.597       33.745        0.222      344.122       20.715      865.604
08/28/2014  02:03:00      -92.481       13.817       -6.833       45.570       27.150       18.431     2076.593      737.140      339.702        0.597        0.158       93.507       17.734        0.036      343.801       20.167      865.606
08/28/2014  02:04:00      -47.167        2.168        3.904       36.677       22.343       14.653     1345.225      499.205      214.701        0.215        0.103       47.217       12.795        0.073      343.876       20.297      865.591
08/28/2014  02:05:00      -65.573        0.562       -7.088       33.977       31.437       18.504     1154.453      988.269      342.410        0.342        0.124       65.576       11.262        0.029      343.820       20.201      865.603
08/28/2014  02:06:00     -108.063       13.298       -4.270       40.346       21.665       19.203     1627.762      469.383      368.770        0.717        0.123      108.878       16.834        0.024      343.693       19.983      865.618
08/28/2014  02:07:00      -85.933       25.779       -3.438       33.393       49.839       27.279     1115.122     2483.950      744.141        0.620        0.217       89.716       18.577        0.043      343.804       20.173      865.612
08/28/2014  02:08:00      -78.094      -41.532       -3.558       34.695       28.494       17.091     1203.720      811.935      292.103        0.507        0.115       88.451       17.398        0.039      343.883       20.308      865.604
08/28/2014  02:09:00      -90.912      -20.477       -0.700       41.905       25.003       16.772     1756.047      625.143      281.286        0.567        0.133       93.189       18.875        0.041      343.839       20.233      865.608
08/28/2014  02:10:00      -85.646       -5.518       -2.143       39.971       32.362       23.500     1597.647     1047.295      552.266        0.528        0.160       85.823       24.235        0.080      343.711       20.015      865.619
08/28/2014  02:11:00      -94.127        2.163      -13.896       41.505       35.843       22.357     1722.689     1284.718      499.835        0.628        0.175       94.152       18.793        0.040      343.606       19.835      865.602
08/28/2014  02:12:00      -91.921      -25.443       -2.339       23.605       23.107       17.100      557.211      533.942      292.419        0.524        0.069       95.377       15.209        0.025      343.744       20.071      865.584
08/28/2014  02:13:00      -83.486       -8.599       -5.954       39.401       25.922       15.767     1552.460      671.939      248.592        0.478        0.124       83.927       11.059        0.017      343.659       19.928      865.598
08/28/2014  02:14:00      -76.476      -10.280       -9.497       33.590       22.780       15.746     1128.288      518.929      247.930        0.397        0.095       77.164        6.425        0.007      343.553       19.746      865.580
08/28/2014  02:15:00      -93.691      -13.626      -10.679       25.133       22.282       13.763      631.677      496.503      189.424        0.520        0.066       94.677       12.464        0.017      343.602       19.829      865.574
08/28/2014  02:16:00      -47.273      -29.851        7.865       37.946       27.304       20.582     1439.937      745.483      423.621        0.290        0.130       55.909       19.262        0.119      343.559       19.756      865.560
08/28/2014  02:17:00      -53.731      -17.772        0.860       32.481       25.566       17.255     1055.012      653.616      297.740        0.260        0.100       56.594       12.699        0.050      343.625       19.868      865.554
08/28/2014  02:18:00     -111.829      -37.159       -6.494       47.760       33.919       18.736     2281.015     1150.467      351.022        0.885        0.189      117.841       22.654        0.037      343.450       19.569      865.572
08/28/2014  02:19:00      -88.539      -10.817        2.634       49.088       40.905       27.163     2409.644     1673.211      737.804        0.639        0.241       89.197       27.104        0.092      343.346       19.393      865.571
08/28/2014  02:20:00      -75.514      -35.579        0.647       42.158       25.512       20.918     1777.285      650.854      437.578        0.492        0.143       83.476       19.132        0.053      343.530       19.708      865.562
08/28/2014  02:21:00      -75.411      -43.860        1.273       32.999       43.215       19.950     1088.966     1867.568      398.006        0.548        0.168       87.238       17.143        0.039      343.773       20.122      865.554
08/28/2014  02:22:00      -73.413      -45.344        4.924       23.947       37.729       15.772      573.437     1423.442      248.744        0.486        0.112       86.288       10.489        0.015      343.764       20.105      865.570
08/28/2014  02:23:00      -61.234      -13.531        0.320       30.514       35.183       13.116      931.078     1237.876      172.017        0.314        0.117       62.711       13.225        0.044      343.727       20.043      865.579
08/28/2014  02:24:00     -103.051       26.442       -5.062       28.145       26.874       16.603      792.157      722.221      275.658        0.657        0.090      106.389       12.333        0.013      343.528       19.703      865.590
08/28/2014  02:25:00      -62.168       -6.254       -4.382       40.486       22.127       15.542     1639.116      489.608      241.553        0.315        0.119       62.482       20.486        0.108      343.598       19.820      865.603
08/28/2014  02:26:00      -48.346      -47.988        5.087       28.059       28.864       17.697      787.311      833.141      313.190        0.330        0.097       68.119       19.159        0.079      343.728       20.046      865.615
08/28/2014  02:27:00      -65.462      -21.778       -2.456       25.601       22.074       16.350      655.393      487.268      267.329        0.309        0.070       68.990       15.099        0.048      343.885       20.313      865.607
08/28/2014  02:28:00      -64.819        3.597       -6.722       11.195       13.316        8.740      125.322      177.311       76.390        0.232        0.019       64.918        4.244        0.004      343.689       19.978      865.599
08/28/2014  02:29:00      -45.400       -4.502       -6.108       14.606        8.283        6.515      213.340       68.615       42.442        0.122        0.016       45.623        4.500        0.010      343.670       19.943      865.605
08/28/2014  02:30:00      -61.846       -8.604       -8.790       15.671       11.304        7.553      245.585      127.780       57.048        0.220        0.022       62.442        2.856        0.002      343.721       20.033      865.617
08/28/2014  02:31:00      -54.447       -8.243       -3.728       16.201       17.482        7.920      262.460      305.614       62.724        0.184        0.032       55.067        7.044        0.016      343.708       20.007      865.604
08/28/2014  02:32:00      -68.201      -23.261       -2.352       13.673       13.830       12.467      186.959      191.282      155.437        0.287        0.027       72.059        9.246        0.016      343.674       19.951      865.602
08/28/2014  02:33:00      -73.424      -28.723       -4.600       21.123       14.645       10.259      446.174      214.467      105.244        0.350        0.038       78.842        8.118        0.011      343.713       20.018      865.596
08/28/2014  02:34:00      -38.340      -24.964        6.356       32.819       15.714       13.640     1077.119      246.926      186.059        0.182        0.076       45.751       16.089        0.124      343.527       19.700      865.608
08/28/2014  02:35:00      -51.583      -31.619       -3.210       23.079       19.393       12.139      532.631      376.071      147.361        0.236        0.053       60.502       11.061        0.033      343.614       19.849      865.617
08/28/2014  02:36:00      -35.535      -28.310        6.160       33.557       19.785       16.462     1126.059      391.443      270.984        0.194        0.089       45.433       18.033        0.158      343.648       19.907      865.628
08/28/2014  02:37:00      -39.677      -25.223        1.115       30.918       19.705       14.203      955.897      388.297      201.726        0.188        0.077       47.015        8.867        0.036      343.596       19.819      865.632
08/28/2014  02:38:00      -43.549      -51.407        4.427       32.738       27.487       15.992     1071.770      755.549      255.744        0.332        0.104       67.373        8.053        0.014      343.851       20.254      865.634
08/28/2014  02:39:00      -69.085      -37.993       -4.103       27.062       33.066       16.711      732.367     1093.392      279.265        0.417        0.105       78.843       11.824        0.022      343.796       20.160      865.647
08/28/2014  02:40:00      -86.992      -24.633        1.980       30.746       17.675       15.561      945.315      312.393      242.153        0.484        0.075       90.412       13.938        0.024      343.671       19.947      865.652
08/28/2014  02:41:00      -64.672      -30.516       -0.074       12.119       23.116        8.922      146.860      534.346       79.596        0.294        0.038       71.510        5.312        0.006      343.660       19.928      865.657
08/28/2014  02:42:00      -62.228      -17.593       -9.504        9.717       18.420       10.867       94.417      339.306      118.087        0.241        0.028       64.667        6.867        0.011      343.697       19.991      865.673
08/28/2014  02:43:00      -52.242      -14.204       -6.250       15.176       12.074        8.753      230.315      145.770       76.612        0.171        0.023       54.139        4.996        0.009      343.634       19.883      865.694
08/28/2014  02:44:00      -25.440      -22.162       -3.784       15.950       30.728       12.075      254.389      944.180      145.809        0.125        0.067       33.739        8.993        0.071      343.763       20.104      865.685
08/28/2014  02:45:00      -36.471      -41.413       -9.390       14.087       26.617       11.737      198.435      708.478      137.756        0.209        0.052       55.183        3.611        0.004      343.866       20.282      865.685
08/28/2014  02:46:00      -66.776       19.877       -9.707        8.701       16.407        8.142       75.714      269.181       66.294        0.268        0.021       69.672        6.810        0.010      343.801       20.170      865.689
08/28/2014  02:47:00      -68.140       22.597       -3.960       14.709       11.589       12.564      216.345      134.304      157.857        0.284        0.025       71.789        9.453        0.017      343.673       19.951      865.707
08/28/2014  02:48:00      -48.308       -4.227        2.713       21.264       16.647        8.393      452.141      277.120       70.447        0.158        0.040       48.492        9.166        0.036      343.525       19.697      865.714
08/28/2014  02:49:00      -44.743      -13.717        1.637       22.692       14.223       11.666      514.932      202.280      136.104        0.152        0.043       46.798       14.023        0.090      343.368       19.432      865.705
08/28/2014  02:50:00      -48.935      -28.168       -1.928       18.946       11.798        9.418      358.949      139.191       88.701        0.189        0.029       56.462        4.901        0.008      343.282       19.282      865.698
08/28/2014  02:51:00      -77.147      -34.378       -7.765       13.544       10.998        9.087      183.450      120.964       82.574        0.379        0.019       84.460        5.433        0.004      343.390       19.467      865.695
08/28/2014  02:52:00      -84.541      -14.387       -4.228       20.394       17.628       12.988      415.913      310.755      168.676        0.413        0.045       85.757        8.594        0.010      343.306       19.324      865.696
08/28/2014  02:53:00      -62.003      -13.720        2.211       34.085       24.296       15.592     1161.815      590.296      243.111        0.302        0.100       63.503       15.415        0.059      343.202       19.147      865.695
08/28/2014  02:54:00      -77.719      -20.596       -1.227       32.618       28.851       16.348     1063.938      832.408      267.273        0.431        0.108       80.402       13.614        0.029      343.181       19.113      865.689
08/28/2014  02:55:00      -59.013      -36.276        0.188       31.723       30.031       18.841     1006.347      901.891      354.979        0.353        0.113       69.272       20.359        0.086      343.097       18.968      865.682
08/28/2014  02:56:00      -74.176      -30.274       -3.190       31.676       23.953       16.051     1003.378      573.744      257.633        0.413        0.092       80.116       13.396        0.028      343.297       19.309      865.678
08/28/2014  02:57:00      -82.560      -45.481        1.472       39.651       24.861       18.799     1572.196      618.084      353.385        0.571        0.127       94.259       19.729        0.044      343.385       19.460      865.677
08/28/2014  02:58:00      -65.466      -31.545        3.683       48.510       26.942       17.439     2353.228      725.880      304.128        0.434        0.169       72.669       20.168        0.077      343.393       19.473      865.677
08/28/2014  02:59:00      -83.696       -3.699        0.988       42.654       30.107       18.820     1819.367      906.425      354.193        0.505        0.154       83.778       15.227        0.033      343.165       19.083      865.688
08/28/2014  03:00:00      -57.408      -19.430       -2.527       21.873       21.742       12.499      478.431      472.725      156.234        0.239        0.055       60.607        5.250        0.008      343.032       18.859      865.690
08/28/2014  03:01:00      -80.746        6.698       -5.099       29.194       27.025       18.576      852.297      730.342      345.081        0.426        0.096       81.024       10.813        0.018      343.054       18.896      865.695
08/28/2014  03:02:00     -114.813       15.854       -6.307       54.863       34.843       24.573     3009.920     1214.031      603.831        0.915        0.241      115.903       25.191        0.047      342.972       18.755      865.706
08/28/2014  03:03:00      -82.779       -1.244       -1.358       45.432       40.480       23.626     2064.053     1638.647      558.203        0.556        0.213       82.789       20.911        0.064      342.891       18.619      865.721
08/28/2014  03:04:00      -68.173      -25.153       -1.901       24.794       24.859       16.665      614.746      617.946      277.738        0.340        0.076       72.665       12.423        0.029      342.928       18.681      865.734
08/28/2014  03:05:00      -43.987      -60.735       -0.371       40.836       17.779       22.164     1667.539      316.084      491.231        0.405        0.124       74.991       17.988        0.058      342.936       18.694      865.744
08/28/2014  03:06:00      -87.958      -39.620       -9.985       43.049       20.920       11.401     1853.255      437.633      129.991        0.591        0.121       96.469       14.101        0.021      342.919       18.667      865.752
08/28/2014  03:07:00      -24.081      -31.304      -10.502       13.098       11.676        9.198      171.547      136.339       84.609        0.103        0.020       39.495        6.607        0.028      342.907       18.646      865.753
08/28/2014  03:08:00       -5.598      -33.065        5.386       12.568       21.921       12.069      157.949      480.518      145.652        0.097        0.039       33.535       12.687        0.143      342.995       18.794      865.756
08/28/2014  03:09:00      -19.955      -23.329       -1.326       25.592       14.901       12.028      654.939      222.041      144.669        0.098        0.051       30.699       13.304        0.188      343.096       18.965      865.744
08/28/2014  03:10:00      -54.078       -0.466       -5.093       12.147        7.841        7.652      147.543       61.483       58.552        0.161        0.013       54.080        4.985        0.008      343.067       18.916      865.740
08/28/2014  03:11:00      -89.794        3.623       -7.876       30.990       12.292       10.621      960.363      151.087      112.796        0.468        0.061       89.867       13.097        0.021      342.915       18.659      865.746
08/28/2014  03:12:00      -43.080      -39.550       -1.485       40.578       23.487       11.073     1646.552      551.648      122.607        0.287        0.116       58.481       13.292        0.052      342.893       18.620      865.751
08/28/2014  03:13:00      -15.200      -91.145       -9.918       16.142       13.297       10.899      260.574      176.806      118.791        0.460        0.028       92.404        7.407        0.006      343.265       19.254      865.745
08/28/2014  03:14:00      -71.757      -44.194       -4.922       24.656       37.723       16.890      607.927     1423.027      285.257        0.472        0.116       84.275       13.622        0.026      343.178       19.107      865.742
08/28/2014  03:15:00     -107.256      -18.581      -12.209       19.226       20.990       14.197      369.655      440.593      201.556        0.650        0.051      108.853        8.393        0.006      343.038       18.867      865.724
08/28/2014  03:16:00     -118.535      -44.916      -12.745       31.167       20.343       17.154      971.401      413.831      294.252        0.895        0.084      126.760       16.965        0.018      343.075       18.931      865.727
08/28/2014  03:17:00      -79.977      -47.005        0.259       41.861       28.427       20.309     1752.328      808.107      412.448        0.579        0.149       92.767       20.560        0.049      342.997       18.799      865.713
08/28/2014  03:18:00     -151.886      -61.625       -8.010       24.230       20.913       17.081      587.101      437.345      291.777        1.412        0.066      163.911       13.905        0.007      343.067       18.919      865.706
08/28/2014  03:19:00      -74.078      -47.852        4.000       48.464       26.892       19.102     2348.742      723.160      364.900        0.561        0.172       88.189       22.414        0.065      342.950       18.719      865.694
08/28/2014  03:20:00      -65.073      -39.558       -3.022       27.348       16.287       10.165      747.927      265.256      103.319        0.346        0.056       76.153        4.686        0.004      343.011       18.821      865.683
08/28/2014  03:21:00      -84.118        2.029      -10.204       34.892       18.998       13.031     1217.422      360.938      169.816        0.447        0.087       84.142       12.975        0.024      342.913       18.656      865.688
08/28/2014  03:22:00     -103.634        7.449       -5.277       24.647       21.629       16.074      607.458      467.814      258.361        0.608        0.067      103.902       10.764        0.011      342.944       18.708      865.681
08/28/2014  03:23:00      -90.677        0.368        3.648       39.643       30.136       18.813     1571.594      908.170      353.924        0.553        0.142       90.678       18.548        0.042      343.057       18.900      865.657
08/28/2014  03:24:00      -37.690       -1.185        1.160       29.675       19.928       11.340      880.598      397.137      128.587        0.141        0.070       37.709       12.794        0.115      343.043       18.878      865.649
08/28/2014  03:25:00      -72.156      -42.254       -2.397       22.135       14.164       14.369      489.977      200.618      206.461        0.395        0.045       83.617       11.604        0.019      343.110       18.990      865.666
08/28/2014  03:26:00      -99.231      -64.684       -5.761       28.263       19.861       12.606      798.808      394.462      158.907        0.771        0.068      118.451        9.323        0.006      342.990       18.787      865.669
08/28/2014  03:27:00      -15.825      -17.564       12.529       33.648       28.436       16.229     1132.173      808.611      263.371        0.146        0.110       23.641       14.559        0.379      342.874       18.588      865.674
08/28/2014  03:28:00      -94.351      -40.585       -4.236       25.482       19.600       13.998      649.317      384.149      195.946        0.590        0.061      102.709       14.391        0.020      342.941       18.703      865.678
08/28/2014  03:29:00     -101.911      -31.859       -4.718       18.134       18.725       10.723      328.856      350.628      114.990        0.611        0.040      106.775        7.383        0.005      343.010       18.820      865.687
08/28/2014  03:30:00      -54.137      -22.253        2.923       31.881       20.285       16.452     1016.390      411.466      270.656        0.257        0.085       58.533       16.549        0.080      343.037       18.866      865.681
08/28/2014  03:31:00      -49.717      -33.703        2.727       37.124       23.445       17.586     1378.204      549.658      309.280        0.293        0.112       60.064       16.081        0.072      343.085       18.948      865.673
08/28/2014  03:32:00     -112.947      -46.513       -3.652       18.272       20.281       13.035      333.850      411.318      169.908        0.792        0.046      122.149       10.733        0.008      343.193       19.131      865.677
08/28/2014  03:33:00     -117.144      -21.628       -7.265       24.239       18.009       17.941      587.544      324.321      321.895        0.774        0.062      119.124       12.961        0.012      343.042       18.874      865.674
08/28/2014  03:34:00      -94.899      -18.704       -8.891       21.853       18.355       13.883      477.568      336.898      192.727        0.522        0.050       96.725        4.888        0.003      343.161       19.078      865.663
08/28/2014  03:35:00      -64.505      -24.609       -9.803       28.292       24.722       14.023      800.442      611.171      196.646        0.324        0.080       69.040        8.638        0.016      343.228       19.191      865.653
08/28/2014  03:36:00      -42.838      -30.127        5.384       33.580       19.590       20.669     1127.644      383.753      427.192        0.235        0.097       52.372       17.071        0.106      342.975       18.760      865.653
08/28/2014  03:37:00      -75.916      -59.040        2.672       51.810       41.582       30.611     2684.239     1729.031      937.009        0.730        0.268       96.172       32.576        0.115      342.875       18.591      865.663
08/28/2014  03:38:00      -81.763      -52.401       12.088       53.678       30.543       23.899     2881.356      932.879      571.184        0.698        0.219       97.114       23.026        0.056      342.898       18.630      865.665
08/28/2014  03:39:00      -76.861      -61.776        2.840       38.266       33.101       18.484     1464.262     1095.698      341.645        0.632        0.145       98.609       14.336        0.021      343.068       18.919      865.656
08/28/2014  03:40:00      -83.563      -50.490        4.654       53.084       32.294       20.632     2817.936     1042.875      425.684        0.692        0.214       97.632       22.945        0.055      343.141       19.044      865.653
08/28/2014  03:41:00     -146.112      -55.868       -1.320       21.668       29.757       15.083      469.522      885.459      227.502        1.303        0.079      156.429       12.998        0.007      343.232       19.199      865.659
08/28/2014  03:42:00     -123.955      -14.393      -12.734       31.802       27.022       19.290     1011.355      730.170      372.109        0.892        0.106      124.788       17.433        0.020      343.136       19.036      865.661
08/28/2014  03:43:00     -145.532      -14.403      -13.090       23.423       18.366       15.943      548.649      337.324      254.180        1.135        0.057      146.243       10.916        0.006      343.020       18.838      865.660
08/28/2014  03:44:00     -132.764      -17.723      -10.395       33.364       25.060       21.645     1113.152      627.990      468.494        1.013        0.110      133.942       17.816        0.018      342.978       18.766      865.666
08/28/2014  03:45:00     -154.514        5.525      -15.625       31.453       27.863       20.528      989.292      776.368      421.404        1.317        0.109      154.613       16.500        0.011      342.983       18.775      865.667
08/28/2014  03:46:00     -125.413       37.619       -6.201       48.414       34.160       25.081     2343.933     1166.879      629.079        1.066        0.207      130.934       12.736        0.009      342.998       18.799      865.667
08/28/2014  03:47:00      -40.707        9.116       -0.940       44.325       25.453       24.913     1964.748      647.860      620.637        0.249        0.162       41.715       19.417        0.217      343.064       18.912      865.658
08/28/2014  03:48:00      -40.262       -1.144       -1.623       37.538       20.359       20.378     1409.121      414.469      415.269        0.193        0.112       40.279       20.489        0.259      343.000       18.804      865.668
08/28/2014  03:49:00      -56.447       -7.012       -4.583       38.510       22.569       13.560     1482.991      509.365      183.879        0.272        0.109       56.880       13.393        0.055      342.963       18.739      865.676
08/28/2014  03:50:00      -67.091       -7.622      -10.762       28.967       15.434       11.301      839.085      238.194      127.718        0.294        0.060       67.523        9.796        0.021      342.803       18.468      865.676
08/28/2014  03:51:00      -40.161       -6.753       -9.278       28.860       17.553       11.898      832.873      308.105      141.563        0.151        0.064       40.725        9.868        0.059      342.908       18.647      865.674
08/28/2014  03:52:00      -44.733      -31.533      -10.368       19.396       20.342       11.626      376.201      413.777      135.172        0.201        0.046       54.730        4.418        0.007      342.987       18.780      865.684
08/28/2014  03:53:00      -55.647       -9.685      -11.471       31.167       14.520       14.368      971.356      210.840      206.449        0.236        0.069       56.483       15.055        0.071      343.003       18.809      865.698
08/28/2014  03:54:00      -39.403      -18.730       -7.733       42.275       26.317       15.373     1787.174      692.564      236.342        0.234        0.136       43.629       10.968        0.063      342.934       18.693      865.696
08/28/2014  03:55:00      -26.628       -7.391       -7.898       17.933       16.034        9.946      321.587      257.081       98.932        0.075        0.034       27.635        9.210        0.111      343.007       18.815      865.690
08/28/2014  03:56:00       -1.306        4.872       -8.367        9.892        9.110        7.058       97.853       82.990       49.820        0.016        0.012        5.044        5.153        1.043      343.040       18.872      865.679
08/28/2014  03:57:00      -29.347        5.584       -9.462       21.625       10.331       12.591      467.652      106.731      158.524        0.086        0.037       29.874       12.559        0.177      343.041       18.873      865.673
08/28/2014  03:58:00      -17.671      -19.433        0.102       25.338       17.896       19.016      641.993      320.271      361.611        0.101        0.066       26.266       17.473        0.443      342.974       18.759      865.679
08/28/2014  03:59:00      -18.209       -5.762       -1.047       28.641       10.562       11.411      820.289      111.547      130.219        0.071        0.053       19.099        7.740        0.164      342.891       18.618      865.691
08/28/2014  04:00:00      -12.810      -11.548        4.173       17.100       18.175       14.348      292.396      330.339      205.877        0.057        0.041       17.247        5.017        0.085      342.865       18.574      865.705
08/28/2014  04:01:00      -80.184      -35.499      -10.179       35.895       12.518       17.742     1288.458      156.701      314.794        0.478        0.088       87.691       21.933        0.063      342.817       18.493      865.709
08/28/2014  04:02:00     -116.445      -54.406      -16.985       13.500       17.024       11.415      182.262      289.818      130.311        0.871        0.030      128.528        8.717        0.005      342.780       18.427      865.708
08/28/2014  04:03:00      -82.299      -38.354       -6.919       23.217       22.775       13.831      539.011      518.708      191.296        0.477        0.062       90.797       11.106        0.015      342.695       18.284      865.710
08/28/2014  04:04:00      -85.074      -35.222      -16.455       21.195       18.394       15.582      449.231      338.331      242.811        0.489        0.052       92.077       11.937        0.017      342.690       18.275      865.716
08/28/2014  04:05:00      -41.627      -28.685       -4.736       25.084       24.061       15.586      629.225      578.944      242.927        0.201        0.073       50.553       13.122        0.067      342.661       18.225      865.710
08/28/2014  04:06:00      -92.057       -8.529      -10.701       29.784       16.853       12.797      887.079      284.025      163.755        0.500        0.067       92.451        9.508        0.011      342.748       18.375      865.704
08/28/2014  04:07:00      -77.225      -37.795       -9.910       28.176       17.205       12.768      793.881      296.015      163.021        0.437        0.063       85.977       12.739        0.022      342.739       18.359      865.710
08/28/2014  04:08:00      -66.109      -38.861      -13.084       33.083       23.323       15.960     1094.505      543.948      254.735        0.397        0.095       76.685       12.638        0.027      342.649       18.207      865.725
08/28/2014  04:09:00      -95.815      -47.294       -8.449       27.302       15.805       14.007      745.405      249.792      196.205        0.634        0.060      106.852       11.967        0.013      342.676       18.251      865.738
08/28/2014  04:10:00      -98.379      -47.337       -6.905       22.338       16.185       11.713      498.982      261.950      137.183        0.643        0.045      109.175        8.908        0.007      342.788       18.441      865.735
08/28/2014  04:11:00      -92.157      -26.778       -8.665       19.924       16.600       11.279      396.947      275.562      127.211        0.504        0.040       95.969        7.239        0.006      342.821       18.499      865.728
08/28/2014  04:12:00      -67.350      -36.142       -7.783       12.287       15.679        9.340      150.976      245.835       87.243        0.319        0.024       76.435        6.038        0.006      342.797       18.457      865.729
08/28/2014  04:13:00      -94.650      -60.055      -10.576       25.274        9.372       10.910      638.775       87.841      119.020        0.676        0.042      112.095        7.062        0.004      342.711       18.311      865.734
08/28/2014  04:14:00      -92.815      -68.246       -8.416       22.154       16.932       14.460      490.802      286.690      209.089        0.716        0.049      115.205       11.035        0.009      342.713       18.315      865.743
08/28/2014  04:15:00      -75.549      -46.279       -7.788       13.697       11.125       11.317      187.600      123.762      128.064        0.417        0.022       88.597        6.086        0.005      342.732       18.344      865.755
08/28/2014  04:16:00      -61.662       -8.533      -14.729       16.320       22.142        9.383      266.349      490.260       88.033        0.247        0.042       62.250        6.004        0.009      342.725       18.335      865.756
08/28/2014  04:17:00      -55.635       -9.615       -7.911       11.653       19.433       12.221      135.788      377.634      149.352        0.196        0.033       56.460        7.692        0.019      342.745       18.369      865.758
08/28/2014  04:18:00      -54.247      -24.800      -13.715       14.180       17.417       13.017      201.072      303.356      169.453        0.221        0.034       59.647        5.060        0.007      342.801       18.465      865.763
08/28/2014  04:19:00      -53.184      -18.263      -15.835       14.745       14.198       11.443      217.418      201.579      130.937        0.198        0.027       56.232        8.468        0.023      342.835       18.523      865.779
08/28/2014  04:20:00      -41.587      -19.154       -9.206       14.136        9.049        6.020      199.823       81.889       36.241        0.125        0.016       45.786        4.603        0.010      342.848       18.545      865.794
08/28/2014  04:21:00      -13.542      -17.902       -3.351       10.926        6.996        5.455      119.367       48.948       29.754        0.036        0.010       22.447        3.986        0.032      343.075       18.931      865.793
08/28/2014  04:22:00       -0.675      -20.977        5.608        6.936        6.381       10.019       48.108       40.714      100.376        0.033        0.009       20.987        5.019        0.057      343.260       19.246      865.782
08/28/2014  04:23:00      -37.579      -26.336       -5.030       32.795       16.946       10.665     1075.514      287.162      113.738        0.180        0.074       45.888       15.470        0.114      342.789       18.443      865.780
08/28/2014  04:24:00      -78.250      -34.023      -12.530        8.850        9.703        8.286       78.331       94.156       68.650        0.384        0.012       85.327        4.018        0.002      342.676       18.251      865.791
08/28/2014  04:25:00      -65.296      -38.143       -8.693       14.356        8.782        9.535      206.105       77.121       90.915        0.308        0.019       75.621        7.409        0.010      342.698       18.289      865.796
08/28/2014  04:26:00      -38.131      -33.751       -3.518       17.186       12.197        9.366      295.364      148.765       87.719        0.157        0.027       50.923        5.288        0.011      342.771       18.416      865.797
08/28/2014  04:27:00      -82.475      -48.138       -6.522       34.622       16.352       14.609     1198.658      267.403      213.417        0.542        0.084       95.496        6.654        0.005      342.752       18.382      865.803
08/28/2014  04:28:00     -100.768      -41.340       -9.070       17.034       23.751       10.521      290.162      564.115      110.692        0.646        0.048      108.918        6.061        0.003      342.616       18.149      865.805
08/28/2014  04:29:00      -92.460      -31.965       -7.696       15.110       15.187       10.195      228.318      230.642      103.938        0.510        0.028       97.829        5.491        0.003      342.639       18.189      865.809
08/28/2014  04:30:00      -70.896      -26.988       -2.640        8.084       14.372        6.947       65.356      206.557       48.261        0.304        0.016       75.859        5.886        0.006      342.704       18.299      865.807
08/28/2014  04:31:00      -61.796       -2.575       -9.200        7.899        7.445        7.072       62.388       55.433       50.013        0.204        0.008       61.850        4.304        0.005      342.665       18.234      865.801
08/28/2014  04:32:00      -80.563      -10.484       -8.394       11.269       11.536        7.199      126.981      133.073       51.830        0.349        0.016       81.242        3.874        0.002      342.692       18.281      865.798
08/28/2014  04:33:00      -93.431      -28.793       -7.184       29.560       29.487       18.923      873.787      869.472      358.091        0.586        0.105       97.767       17.336        0.031      342.523       17.991      865.812
08/28/2014  04:34:00     -106.567      -55.252      -11.613       25.122       32.205       16.569      631.131     1037.140      274.524        0.824        0.097      120.038        6.428        0.003      342.305       17.621      865.838
08/28/2014  04:35:00      -84.670      -36.361       -6.865       15.392       16.790       11.099      236.901      281.892      123.196        0.459        0.032       92.148        4.437        0.002      342.306       17.622      865.861
08/28/2014  04:36:00      -76.961      -15.772       -1.455       22.170       17.814       10.993      491.508      317.337      120.841        0.355        0.046       78.561        8.560        0.012      342.431       17.837      865.867
08/28/2014  04:37:00     -109.185      -34.014       -3.340       23.445       22.702       12.963      549.686      515.402      168.041        0.716        0.062      114.361       11.846        0.011      342.514       17.977      865.875
08/28/2014  04:38:00      -89.921      -45.195       -1.362       36.674       23.484       16.386     1344.963      551.484      268.492        0.615        0.108      100.640       16.834        0.028      342.515       17.978      865.885
08/28/2014  04:39:00      -55.147      -58.168        5.847       43.602       31.998       20.571     1901.120     1023.843      423.183        0.490        0.167       80.154       21.222        0.070      342.622       18.161      865.894
08/28/2014  04:40:00      -65.463      -61.810        4.728       36.634       33.742       21.792     1342.041     1138.533      474.890        0.554        0.148       90.032       20.524        0.052      342.666       18.236      865.900
08/28/2014  04:41:00      -82.615      -62.841        4.393       33.088       29.444       20.860     1094.821      866.965      435.126        0.659        0.120      103.799       17.493        0.028      342.748       18.374      865.899
08/28/2014  04:42:00      -92.448      -72.307        2.129       37.770       26.288       19.257     1426.535      691.069      370.815        0.813        0.124      117.367        9.838        0.007      342.709       18.308      865.897
08/28/2014  04:43:00      -64.571      -34.961        2.081       44.376       25.728       18.123     1969.211      661.917      328.449        0.418        0.148       73.428       19.675        0.072      342.621       18.158      865.902
08/28/2014  04:44:00      -74.515      -31.841        3.130       26.545       21.975       14.757      704.644      482.882      217.760        0.399        0.070       81.033       12.166        0.023      342.502       17.957      865.896
08/28/2014  04:45:00      -68.072      -14.283      -11.586       26.018       16.742       11.055      676.953      280.304      122.223        0.303        0.054       69.554       10.799        0.024      342.453       17.871      865.902
08/28/2014  04:46:00      -70.825      -16.845       -0.468       16.228       14.675       12.098      263.335      215.342      146.371        0.296        0.031       72.801        8.951        0.015      342.428       17.830      865.905
08/28/2014  04:47:00      -73.096      -16.246       -4.784       15.545       14.025       10.863      241.661      196.687      118.000        0.309        0.028       74.880        5.081        0.005      342.479       17.918      865.905
08/28/2014  04:48:00      -26.884      -26.498        9.129       31.696       21.963       20.432     1004.637      482.389      417.479        0.171        0.095       37.748       20.492        0.295      342.380       17.748      865.905
08/28/2014  04:49:00      -40.500      -62.754       -0.228       17.590       22.905       12.021      309.409      524.647      144.500        0.328        0.049       74.688       11.012        0.022      342.525       17.995      865.899
08/28/2014  04:50:00      -54.899     -110.222       -6.243       23.182       29.733       16.536      537.410      884.058      273.451        0.845        0.085      123.137       13.400        0.012      342.850       18.550      865.885
08/28/2014  04:51:00      -30.794      -42.484        4.460       26.426       34.298       24.146      698.355     1176.380      583.021        0.261        0.123       52.471       23.241        0.196      342.777       18.425      865.875
08/28/2014  04:52:00       11.537      -15.387        3.166       55.139       23.281       19.892     3040.277      542.002      395.711        0.218        0.199       19.232        9.113        0.225      342.743       18.367      865.866
08/28/2014  04:53:00      -14.790        3.312        2.495       39.449       17.542       16.417     1556.198      307.724      269.530        0.118        0.107       15.156       12.760        0.709      342.736       18.353      865.867
08/28/2014  04:54:00      -76.486       20.299       -8.699       38.066       28.068       24.381     1449.042      787.800      594.441        0.458        0.142       79.134       15.850        0.040      342.787       18.442      865.888
08/28/2014  04:55:00     -117.275       36.933       -3.576       32.242       20.287       18.791     1039.566      411.549      353.096        0.847        0.090      122.953       11.449        0.009      342.645       18.198      865.918
08/28/2014  04:56:00      -96.463       34.144      -11.660       33.016       22.787       17.415     1090.036      519.269      303.281        0.626        0.096      102.327       16.703        0.027      342.429       17.832      865.926
08/28/2014  04:57:00      -72.293      -38.239       -7.341       16.816       28.836       12.793      282.779      831.491      163.660        0.401        0.064       81.783        8.070        0.010      342.315       17.639      865.903
08/28/2014  04:58:00      -15.569      -26.399       12.955       41.886       21.170       18.559     1754.440      448.150      344.444        0.183        0.127       30.648       20.327        0.440      342.280       17.579      865.875
08/28/2014  04:59:00      -86.036      -41.182        0.401       41.373       26.304       20.519     1711.724      691.881      421.033        0.596        0.141       95.384       15.891        0.028      342.370       17.732      865.869
08/28/2014  05:00:00      -89.163        9.250       -0.202       29.300       32.979       19.418      858.507     1087.600      377.057        0.518        0.116       89.641       15.432        0.030      342.162       17.378      865.892
08/28/2014  05:01:00     -110.461        9.847       -7.286       32.984       27.446       22.731     1087.928      753.282      516.715        0.735        0.118      110.899       17.021        0.024      342.116       17.301      865.913
08/28/2014  05:02:00     -112.086        7.632      -10.211       43.167       30.905       19.516     1863.400      955.103      380.888        0.796        0.160      112.346       13.648        0.015      342.190       17.425      865.929
08/28/2014  05:03:00     -104.242      -23.537        4.256       45.557       38.258       22.345     2075.417     1463.646      499.314        0.774        0.202      106.866       22.949        0.046      342.149       17.356      865.941
08/28/2014  05:04:00     -105.545      -44.209       -1.139       29.100       29.180       19.609      846.810      851.454      384.531        0.759        0.104      114.430       15.056        0.017      342.197       17.438      865.961
08/28/2014  05:05:00     -100.193      -37.447       -1.374       34.778       30.915       15.033     1209.484      955.712      225.983        0.692        0.120      106.962       15.154        0.020      342.275       17.570      865.958
08/28/2014  05:06:00      -36.830      -27.568        5.674       42.775       24.357       17.970     1829.681      593.241      322.915        0.245        0.137       46.005       22.327        0.236      342.254       17.536      865.956
08/28/2014  05:07:00     -100.139      -34.891        2.094       31.090       21.456       16.315      966.607      460.377      266.183        0.647        0.085      106.043       15.986        0.023      342.216       17.470      865.968
08/28/2014  05:08:00      -67.061      -29.623        6.560       38.531       26.935       16.820     1484.627      725.485      282.913        0.395        0.125       73.313       16.247        0.049      342.245       17.520      865.973
08/28/2014  05:09:00      -46.450      -12.808       -0.651       29.647       20.456       14.156      878.956      418.459      200.402        0.191        0.075       48.184        5.840        0.015      342.467       17.896      865.974
08/28/2014  05:10:00      -17.272       13.369        4.006       20.301       26.761       16.058      412.140      716.172      257.854        0.094        0.069       21.842       11.838        0.294      342.439       17.848      865.977
08/28/2014  05:11:00      -13.802       -6.157        1.966       28.768       24.713       14.595      827.601      610.733      213.020        0.094        0.083       15.113       14.091        0.869      342.350       17.699      865.990
08/28/2014  05:12:00      -61.299      -30.291       -8.662       26.294       23.085       15.389      691.361      532.934      236.827        0.311        0.073       68.375       15.755        0.053      342.197       17.437      865.997
08/28/2014  05:13:00      -90.277      -16.639       -9.190       35.662       20.854       15.785     1271.762      434.873      249.155        0.523        0.098       91.797       20.426        0.050      342.113       17.295      866.002
08/28/2014  05:14:00      -72.477      -21.994      -11.064       26.770       25.501       17.436      716.609      650.310      304.027        0.376        0.084       75.740       16.994        0.050      342.051       17.191      865.992
08/28/2014  05:15:00      -89.962        3.608       -8.723       17.368       21.633       12.221      301.635      468.004      149.355        0.455        0.046       90.034        8.497        0.009      342.031       17.156      865.986
08/28/2014  05:16:00      -92.042      -27.066      -15.223       20.039       14.590       10.814      401.551      212.876      116.950        0.508        0.037       95.939        7.427        0.006      341.939       17.001      865.987
08/28/2014  05:17:00      -36.360      -21.646      -12.911       14.245       12.951       12.606      202.906      167.724      158.906        0.124        0.026       42.315       11.060        0.068      342.063       17.210      865.985
08/28/2014  05:18:00      -13.621      -10.088        3.676        7.531        9.075        5.400       56.711       82.351       29.160        0.023        0.008       16.950        2.789        0.027      342.396       17.774      865.979
08/28/2014  05:19:00      -57.283      -27.606       -3.978       38.866       17.481       14.176     1510.551      305.585      200.972        0.304        0.101       63.588       19.383        0.093      342.052       17.192      865.980
08/28/2014  05:20:00      -99.928      -37.521       -7.105       17.871       16.601       13.719      319.360      275.581      188.220        0.611        0.039      106.740        8.187        0.006      341.977       17.064      865.985
08/28/2014  05:21:00     -116.261      -36.948       -9.910       18.809       15.460       10.694      353.782      239.024      114.356        0.784        0.035      121.991        7.321        0.004      341.953       17.025      865.989
08/28/2014  05:22:00      -96.980      -42.443       -3.458       25.565       24.760       17.358      653.551      613.037      301.286        0.639        0.078      105.861       12.612        0.014      342.003       17.108      865.990
08/28/2014  05:23:00     -104.118      -14.291       -9.214       24.918       19.031       13.833      620.929      362.195      191.363        0.615        0.059      105.094        9.315        0.008      342.052       17.193      865.999
08/28/2014  05:24:00      -92.559      -11.563       -1.979       35.320       21.751       19.476     1247.475      473.101      379.312        0.540        0.105       93.278       20.949        0.050      341.930       16.983      865.992
08/28/2014  05:25:00      -54.180      -50.458        1.281       33.072       16.991       14.899     1093.724      288.694      221.979        0.354        0.080       74.038       16.750        0.051      342.128       17.321      865.983
08/28/2014  05:26:00      -99.864      -35.783      -11.074       17.269       12.014       10.216      298.207      144.336      104.377        0.596        0.027      106.081       10.797        0.010      342.153       17.363      865.979
08/28/2014  05:27:00     -113.968      -42.586      -15.480       18.214       15.782       16.494      331.755      249.083      272.052        0.795        0.043      121.664        8.883        0.005      342.169       17.389      865.978
08/28/2014  05:28:00     -117.909      -38.231      -17.268       28.744       12.763       11.342      826.192      162.901      128.641        0.839        0.056      123.952       12.656        0.010      342.073       17.227      865.998
08/28/2014  05:29:00      -64.418      -44.629       -4.949       17.581       11.011        9.146      309.087      121.238       83.648        0.334        0.026       78.367        6.272        0.006      342.095       17.265      866.005
08/28/2014  05:30:00      -89.133      -51.825        2.406       41.448       15.581       14.551     1717.931      242.777      211.744        0.640        0.109      103.105       17.024        0.027      342.116       17.301      866.005
08/28/2014  05:31:00      -96.001      -53.905        6.116       49.777       33.859       23.647     2477.798     1146.465      559.188        0.817        0.209      110.100       25.464        0.053      342.030       17.154      866.014
08/28/2014  05:32:00      -31.012      -58.944        2.347       22.560       20.160       13.682      508.972      406.444      187.200        0.277        0.055       66.605       12.563        0.036      342.041       17.173      866.007
08/28/2014  05:33:00      -88.489      -64.156       -8.302       22.149       22.197       19.902      490.575      492.695      396.097        0.670        0.069      109.299       15.684        0.021      342.118       17.305      866.005
08/28/2014  05:34:00      -81.683      -65.095        0.724       31.471       23.285       22.151      990.401      542.175      490.672        0.647        0.101      104.448       13.030        0.016      342.042       17.174      866.008
08/28/2014  05:35:00      -66.711      -60.670       -1.180       37.762       26.141       21.727     1426.000      683.338      472.083        0.536        0.129       90.173       20.257        0.050      342.143       17.346      866.010
08/28/2014  05:36:00     -139.859      -37.034      -11.571       32.438       20.491       14.283     1052.213      419.888      203.993        1.137        0.084      144.679        9.288        0.004      342.024       17.144      866.015
08/28/2014  05:37:00      -59.001      -52.109        4.607       52.630       38.936       25.453     2769.955     1516.030      647.874        0.557        0.247       78.717       27.001        0.118      342.028       17.151      866.016
08/28/2014  05:38:00      -55.192      -37.825        4.182       49.184       25.984       16.914     2419.071      675.191      286.079        0.394        0.169       66.910       17.060        0.065      342.158       17.372      865.998
08/28/2014  05:39:00      -52.121      -43.643        3.841       37.631       29.957       18.464     1416.070      897.398      340.936        0.364        0.133       67.980       14.527        0.046      342.066       17.215      866.001
08/28/2014  05:40:00      -61.401      -55.559       -1.106       34.307       25.274       15.107     1176.944      638.780      228.234        0.445        0.102       82.806       14.817        0.032      342.176       17.402      866.015
08/28/2014  05:41:00       -7.282      -47.193       10.890       27.965       31.289       20.194      782.014      978.992      407.804        0.228        0.108       47.752       12.789        0.072      342.169       17.392      866.021
08/28/2014  05:42:00      -41.365      -62.968        6.523       39.086       50.491       23.452     1527.688     2549.309      550.000        0.517        0.231       75.340       26.032        0.119      342.128       17.320      866.019
08/28/2014  05:43:00      -65.776      -31.061        5.573       37.831       22.512       20.216     1431.217      506.775      408.669        0.383        0.117       72.741       16.091        0.049      342.083       17.245      866.024
08/28/2014  05:44:00      -70.432      -26.596       -8.682       25.036       18.089       12.535      626.778      327.225      157.135        0.343        0.056       75.286        8.190        0.012      342.053       17.192      866.018
08/28/2014  05:45:00      -62.435      -21.080       -7.245       25.633       19.891       12.301      657.041      395.664      151.323        0.280        0.060       65.898        5.773        0.008      342.012       17.124      866.034
08/28/2014  05:46:00      -44.541      -31.646       -0.752       18.112       10.927       13.256      328.052      119.410      175.723        0.180        0.031       54.638       11.359        0.043      342.017       17.132      866.038
08/28/2014  05:47:00      -34.795      -12.718       -5.053        9.118       10.409        5.756       83.146      108.347       33.128        0.081        0.011       37.047        4.132        0.012      341.966       17.046      866.036
08/28/2014  05:48:00      -78.872      -36.365       -9.272       14.815        9.094        6.335      219.498       82.702       40.132        0.399        0.017       86.851        4.083        0.002      341.999       17.103      866.044
08/28/2014  05:49:00      -56.746      -35.444       -3.683       25.007       13.550        9.109      625.329      183.611       82.978        0.269        0.045       66.906        6.722        0.010      342.003       17.107      866.055
08/28/2014  05:50:00      -40.402      -29.920       -4.847       15.058       11.341        9.367      226.742      128.625       87.735        0.150        0.022       50.274        5.848        0.014      342.079       17.238      866.061
08/28/2014  05:51:00      -12.841      -35.004       -7.004        9.281       12.287        8.843       86.145      150.970       78.196        0.088        0.016       37.285        5.338        0.021      342.138       17.337      866.062
08/28/2014  05:52:00      -39.752      -29.064       -1.510       25.315       15.194       15.342      640.830      230.861      235.374        0.177        0.055       49.244        9.005        0.033      342.103       17.279      866.057
08/28/2014  05:53:00      -55.082      -30.378       -6.206       12.827       10.333        8.418      164.524      106.761       70.866        0.217        0.017       62.904        5.776        0.008      342.060       17.206      866.064
08/28/2014  05:54:00      -44.592      -23.668        1.407       23.690       12.947       14.216      561.236      167.633      202.096        0.174        0.047       50.484       12.823        0.065      342.029       17.155      866.076
08/28/2014  05:55:00      -32.542      -31.173       -1.925       35.281       15.039        8.377     1244.759      226.176       70.173        0.179        0.077       45.064        9.108        0.041      341.998       17.101      866.080
08/28/2014  05:56:00      -11.416      -38.891       -5.539       11.696       13.703        8.335      136.794      187.769       69.471        0.103        0.020       40.532        6.409        0.025      342.078       17.235      866.076
08/28/2014  05:57:00       -8.249      -17.410        0.610       11.306       19.353       12.797      127.825      374.536      163.755        0.052        0.033       19.266        8.529        0.196      342.023       17.142      866.083
08/28/2014  05:58:00      -56.399      -26.261       -2.543       11.079       14.544        9.223      122.743      211.520       85.058        0.215        0.021       62.213        7.801        0.016      341.976       17.064      866.088
08/28/2014  05:59:00      -39.489      -24.614        2.205       20.358        7.323        8.062      414.464       53.623       64.991        0.135        0.027       46.532       11.082        0.057      341.918       16.963      866.097
08/28/2014  06:00:00      -46.144      -66.731        0.788       31.553       23.949       13.193      995.598      573.541      174.062        0.416        0.087       81.131       13.158        0.026      342.100       17.274      866.104
08/28/2014  06:01:00      -74.552      -28.499       -2.811        9.107       17.310       11.343       82.935      299.624      128.653        0.344        0.026       79.813       10.352        0.017      342.064       17.212      866.114
08/28/2014  06:02:00      -35.800      -17.483        0.728       23.644       10.203        8.409      559.042      104.093       70.715        0.116        0.037       39.841       10.147        0.065      342.011       17.123      866.115
08/28/2014  06:03:00        4.005      -33.375        0.081       11.554       15.409       10.693      133.486      237.443      114.346        0.081        0.024       33.614        7.886        0.055      342.077       17.235      866.111
08/28/2014  06:04:00      -54.308      -10.691       -2.835       22.228       12.481        8.208      494.070      155.772       67.369        0.189        0.036       55.350        8.810        0.025      342.011       17.121      866.107
08/28/2014  06:05:00      -67.078      -17.597       -3.843       11.028       11.348        8.650      121.619      128.787       74.821        0.257        0.016       69.347        4.765        0.005      341.935       16.993      866.111
08/28/2014  06:06:00      -58.995      -24.071      -12.429       11.758       11.108        6.895      138.257      123.380       47.537        0.226        0.015       63.717        5.286        0.007      341.972       17.055      866.110
08/28/2014  06:07:00      -62.025      -24.430       -9.376       13.731       18.008       12.436      188.550      324.270      154.647        0.260        0.033       66.663        7.799        0.014      342.045       17.180      866.102
08/28/2014  06:08:00      -61.993      -41.491      -12.689       16.036       11.223        9.930      257.148      125.967       98.596        0.310        0.024       74.596        6.554        0.008      342.060       17.206      866.102
08/28/2014  06:09:00      -87.781      -35.311      -14.934       22.361       17.502       11.009      500.030      306.334      121.192        0.505        0.046       94.617        6.550        0.005      342.149       17.356      866.094
08/28/2014  06:10:00      -83.753      -42.611       -7.960       15.109       11.986       11.122      228.273      143.670      123.709        0.469        0.025       93.970        3.729        0.002      341.982       17.071      866.088
08/28/2014  06:11:00      -66.622      -40.462       -5.906       19.955       13.812       16.091      398.220      190.759      258.924        0.348        0.042       77.946        6.515        0.007      341.896       16.927      866.088
08/28/2014  06:12:00      -85.872      -25.714       -4.346       31.168       27.648       16.066      971.465      764.416      258.120        0.502        0.100       89.639       10.146        0.013      342.026       17.147      866.085
08/28/2014  06:13:00     -104.335      -23.591       -6.197       34.295       24.086       19.869     1176.138      580.113      394.788        0.682        0.108      106.969       17.719        0.027      341.991       17.088      866.081
08/28/2014  06:14:00      -98.547      -51.752       -8.801       25.981       16.614        9.405      675.036      276.032       88.458        0.675        0.052      111.310       11.105        0.010      341.856       16.859      866.081
08/28/2014  06:15:00      -99.638      -43.237      -11.223       22.193       16.179       14.918      492.546      261.775      222.550        0.645        0.049      108.615       14.002        0.017      341.876       16.891      866.068
08/28/2014  06:16:00      -81.088      -33.523       -5.672       20.589       14.882       11.639      423.913      221.485      135.459        0.426        0.039       87.744        7.778        0.008      341.852       16.852      866.064
08/28/2014  06:17:00      -55.513      -26.338       -4.798       13.747       10.807        8.483      188.987      116.800       71.961        0.209        0.019       61.444        6.868        0.012      341.848       16.846      866.060
08/28/2014  06:18:00      -78.135      -39.564      -12.519       14.002       12.416        9.591      196.049      154.146       91.987        0.413        0.022       87.581        7.743        0.008      341.948       17.015      866.066
08/28/2014  06:19:00      -92.236      -14.399       -9.369       34.054       30.373       14.708     1159.648      922.528      216.311        0.555        0.115       93.353       14.063        0.023      341.978       17.066      866.076
08/28/2014  06:20:00      -84.692       -1.047       -9.266       34.714       33.269       22.039     1205.033     1106.844      485.716        0.503        0.140       84.698       10.188        0.014      342.043       17.176      866.101
08/28/2014  06:21:00      -52.849        7.046       -1.148       48.694       34.287       23.110     2371.105     1175.609      534.062        0.346        0.204       53.316       24.143        0.205      342.119       17.305      866.125
08/28/2014  06:22:00     -120.664       -2.272      -15.579       35.038       33.836       23.071     1227.696     1144.841      532.249        0.886        0.145      120.686       17.399        0.021      342.130       17.323      866.138
08/28/2014  06:23:00      -75.247      -11.394       -4.080       42.585       36.603       25.398     1813.495     1339.804      645.058        0.480        0.190       76.105       26.498        0.121      341.895       16.926      866.143
08/28/2014  06:24:00     -104.972      -31.450       -4.809       58.804       30.510       21.879     3457.967      930.872      478.712        0.845        0.243      109.582       22.810        0.043      341.765       16.706      866.150
08/28/2014  06:25:00      -53.522      -16.252        5.527       30.782       28.204       22.774      947.558      795.450      518.672        0.271        0.113       55.935       19.727        0.124      341.737       16.658      866.147
08/28/2014  06:26:00        9.509      -39.501       -6.384       24.980       31.745       20.894      624.009     1007.760      436.576        0.188        0.103       40.629       14.516        0.128      341.703       16.600      866.157
08/28/2014  06:27:00      -35.736      -44.530       -5.054       39.686       18.399       17.804     1574.953      338.506      316.976        0.276        0.112       57.096       18.073        0.100      341.643       16.499      866.185
08/28/2014  06:28:00      -80.690      -54.381        1.553       37.380       19.906       25.141     1397.269      396.264      632.080        0.595        0.121       97.304       16.416        0.028      341.472       16.207      866.204
08/28/2014  06:29:00     -112.424      -34.275      -11.417       35.714       29.923       19.881     1275.512      895.384      395.257        0.825        0.128      117.532       18.226        0.024      341.547       16.335      866.216
08/28/2014  06:30:00     -101.830      -14.840      -14.940       31.992       19.406       15.337     1023.513      376.585      235.228        0.622        0.082      102.906       13.260        0.017      341.767       16.708      866.217
08/28/2014  06:31:00      -50.669      -22.596       -2.049       34.845       27.916       19.856     1214.187      779.315      394.280        0.273        0.119       55.479       17.270        0.097      341.722       16.632      866.212
08/28/2014  06:32:00     -117.791      -44.278      -11.857       46.634       44.487       21.840     2174.761     1979.116      476.990        1.030        0.232      125.839       23.268        0.034      341.769       16.711      866.217
08/28/2014  06:33:00     -128.788      -52.926       -9.101       48.306       43.298       23.548     2333.442     1874.745      554.497        1.212        0.238      139.239       23.854        0.029      341.499       16.253      866.249
08/28/2014  06:34:00      -43.327      -20.640        9.735       55.110       32.096       29.331     3037.112     1030.180      860.336        0.366        0.246       47.992       32.503        0.459      341.655       16.518      866.259
08/28/2014  06:35:00      -91.618      -53.308        1.239       46.888       26.609       20.135     2198.499      708.061      405.398        0.727        0.166      105.998       22.670        0.046      341.621       16.461      866.260
08/28/2014  06:36:00     -132.066      -56.200       -7.722       31.546       35.754       17.759      995.133     1278.333      315.393        1.162        0.129      143.527       16.577        0.013      341.585       16.401      866.286
08/28/2014  06:37:00      -83.169      -45.437       -0.451       24.026       21.697       15.045      577.237      470.778      226.362        0.513        0.064       94.772       11.717        0.015      341.631       16.478      866.299
08/28/2014  06:38:00      -58.165      -50.062       -2.045       27.945       19.572       13.599      780.927      383.049      184.923        0.362        0.067       76.743       11.273        0.022      341.761       16.697      866.299
08/28/2014  06:39:00     -118.706      -41.447      -19.977       19.753       22.781       14.450      390.168      518.956      208.796        0.866        0.056      125.733       11.675        0.009      341.893       16.924      866.312
08/28/2014  06:40:00      -63.475      -35.687       -5.373       33.460       20.289       16.403     1119.546      411.653      269.071        0.357        0.090       72.820       18.129        0.062      341.951       17.021      866.318
08/28/2014  06:41:00        5.593      -11.124       -2.290       13.209       20.931       15.187      174.481      438.087      230.652        0.050        0.042       12.451       11.297        0.823      342.048       17.185      866.313
08/28/2014  06:42:00       -3.542      -72.479       -6.992       28.469       26.367       20.751      810.504      695.204      430.596        0.363        0.097       72.565       12.951        0.032      342.170       17.392      866.313
08/28/2014  06:43:00      -78.786      -47.109       -0.661       49.876       25.229       24.028     2487.640      636.526      577.364        0.606        0.185       91.796       19.855        0.047      341.989       17.084      866.333
08/28/2014  06:44:00     -100.500      -71.196        2.145       55.129       44.335       25.413     3039.198     1965.598      645.819        1.041        0.283      123.163       25.495        0.043      341.944       17.009      866.347
08/28/2014  06:45:00     -109.087      -70.696        2.210       56.944       38.719       23.552     3242.636     1499.163      554.696        1.110        0.265      129.992       28.271        0.047      341.872       16.886      866.360
08/28/2014  06:46:00      -70.603      -43.841        2.366       45.804       33.896       21.224     2097.969     1148.911      450.467        0.530        0.185       83.108       16.546        0.040      341.875       16.891      866.366
08/28/2014  06:47:00     -108.326      -18.872       -8.563       24.885       24.337       17.243      619.260      592.313      297.330        0.684        0.075      109.957       14.214        0.017      341.986       17.078      866.373
08/28/2014  06:48:00      -47.585      -30.714        6.052       33.020       27.614       17.707     1090.305      762.551      313.527        0.270        0.108       56.636       15.297        0.073      342.083       17.246      866.379
08/28/2014  06:49:00      -68.585      -43.511        2.245       24.298       17.695       10.687      590.382      313.120      114.205        0.381        0.051       81.223        9.350        0.013      342.092       17.258      866.388
08/28/2014  06:50:00      -89.557      -27.813       -2.016       17.297       22.137       11.018      299.174      490.030      121.406        0.485        0.046       93.776        6.629        0.005      342.023       17.143      866.401
08/28/2014  06:51:00      -86.658      -35.499      -12.032       11.551       14.706        9.979      133.432      216.265       99.587        0.468        0.022       93.647        4.557        0.002      342.027       17.150      866.408
08/28/2014  06:52:00      -80.928      -43.058      -14.130       16.589       13.273       11.885      275.203      176.163      141.260        0.460        0.030       91.670        6.401        0.005      342.081       17.240      866.417
08/28/2014  06:53:00      -51.009      -51.167        0.723       24.740       17.217       13.363      612.067      296.419      178.558        0.315        0.054       72.249       11.031        0.023      342.170       17.392      866.418
08/28/2014  06:54:00      -37.511      -36.517       11.070       44.770       25.975       24.654     2004.352      674.687      607.828        0.307        0.164       52.351       22.118        0.178      342.161       17.377      866.414
08/28/2014  06:55:00      -94.118      -56.092       -1.748       37.204       33.156       16.705     1384.141     1099.292      279.057        0.738        0.138      109.565       16.604        0.023      342.022       17.141      866.411
08/28/2014  06:56:00      -95.582      -33.967       -8.486       22.462       12.436       11.359      504.521      154.646      129.035        0.557        0.039      101.438        8.370        0.007      341.983       17.075      866.391
08/28/2014  06:57:00      -64.670      -29.696      -10.390       16.862       15.381        9.109      284.330      236.572       82.978        0.289        0.030       71.163        3.130        0.002      342.120       17.305      866.385
08/28/2014  06:58:00      -89.147      -37.037       -9.688       19.870       15.210       11.731      394.807      231.337      137.619        0.509        0.038       96.534        6.626        0.005      342.308       17.628      866.389
08/28/2014  06:59:00      -40.643      -39.894       -7.283       26.626       11.352       12.390      708.961      128.877      153.521        0.214        0.050       56.950       14.825        0.068      342.272       17.565      866.391
08/28/2014  07:00:00       -8.836      -25.198        4.135       14.410       13.748       10.986      207.646      189.007      120.683        0.062        0.026       26.702        6.817        0.065      342.312       17.633      866.398
08/28/2014  07:01:00      -58.055      -29.946       -6.479       10.977       11.196        6.519      120.492      125.339       42.503        0.230        0.014       65.323        5.546        0.007      342.321       17.646      866.404
08/28/2014  07:02:00      -61.505      -37.592        1.595       30.696       14.698       13.773      942.260      216.029      189.701        0.327        0.067       72.083       13.206        0.034      342.240       17.512      866.403
08/28/2014  07:03:00      -54.262      -33.499        4.859       26.056       18.661       15.514      678.890      348.241      240.688        0.268        0.063       63.770       12.384        0.038      342.188       17.423      866.418
08/28/2014  07:04:00      -53.505      -37.676        2.127       25.340       13.133       14.845      642.109      172.477      220.376        0.266        0.052       65.439       16.097        0.061      342.218       17.474      866.427
08/28/2014  07:05:00      -84.440      -50.377       -1.930       18.079       20.746       14.530      326.862      430.407      211.132        0.532        0.048       98.326       10.997        0.013      342.235       17.502      866.429
08/28/2014  07:06:00     -111.671      -39.673        0.040       42.783       21.554       16.652     1830.392      464.576      277.296        0.831        0.129      118.509       20.294        0.029      342.217       17.473      866.444
08/28/2014  07:07:00      -64.591      -42.365       -3.460       27.637       25.511       12.853      763.795      650.805      165.189        0.378        0.079       77.245        9.664        0.016      342.212       17.464      866.456
08/28/2014  07:08:00      -78.582      -42.756       -0.270       40.169       26.134       19.680     1613.571      682.991      387.307        0.534        0.134       89.460       20.304        0.052      342.239       17.509      866.457
08/28/2014  07:09:00      -63.729      -54.511        6.340       35.893       28.949       22.742     1288.290      838.055      517.213        0.486        0.132       83.862       19.757        0.055      342.288       17.592      866.471
08/28/2014  07:10:00      -77.253      -39.671       -6.139       22.986       26.943       11.311      528.354      725.900      127.940        0.448        0.069       86.844       11.009        0.016      342.306       17.624      866.464
08/28/2014  07:11:00      -66.611      -26.338       -7.540       20.231       10.437        9.155      409.294      108.936       83.807        0.289        0.030       71.629        8.820        0.015      342.335       17.672      866.465
08/28/2014  07:12:00      -64.138      -39.006       -4.174       19.103       16.095       10.038      364.933      259.039      100.759        0.319        0.036       75.068        5.718        0.006      342.373       17.736      866.479
08/28/2014  07:13:00      -86.198      -28.456      -12.508       21.863       15.732       11.116      478.010      247.496      123.570        0.462        0.042       90.774        8.250        0.008      342.451       17.869      866.474
08/28/2014  07:14:00      -89.439      -38.508      -14.901       14.497       12.313       11.766      210.166      151.599      138.439        0.510        0.025       97.377        4.841        0.002      342.472       17.903      866.492
08/28/2014  07:15:00      -88.958      -33.254      -11.461       18.014       13.193       11.072      324.517      174.061      122.588        0.489        0.031       94.970        7.878        0.007      342.447       17.861      866.482
08/28/2014  07:16:00      -65.646      -40.434       -5.037       18.755       16.475       13.352      351.754      271.411      178.286        0.339        0.040       77.099        8.154        0.011      342.566       18.065      866.485
08/28/2014  07:17:00      -14.297      -18.810        3.374       13.657       15.286       11.578      186.520      233.663      134.043        0.056        0.028       23.627        8.454        0.128      342.689       18.275      866.473
08/28/2014  07:18:00      -21.345      -12.762        1.512       10.971        9.112        9.908      120.366       83.030       98.168        0.046        0.015       24.869        5.084        0.042      342.654       18.215      866.476
08/28/2014  07:19:00      -45.564      -20.840       -8.142       14.582        9.203       12.881      212.633       84.693      165.908        0.152        0.023       50.104        6.779        0.018      342.606       18.132      866.471
08/28/2014  07:20:00      -35.697      -13.981       -4.801       10.039        8.063        5.583      100.773       65.010       31.167        0.084        0.010       38.337        3.546        0.009      342.590       18.106      866.479
08/28/2014  07:21:00      -15.770       -6.057       -1.684        4.685        4.959        3.317       21.950       24.589       11.005        0.017        0.003       16.893        1.992        0.014      342.644       18.198      866.480
08/28/2014  07:22:00       -3.277      -16.321       -0.793        6.422        7.103        8.752       41.238       50.457       76.599        0.022        0.008       16.647        5.228        0.099      342.748       18.375      866.476
08/28/2014  07:23:00      -12.461      -11.056        0.413       12.257        8.006        9.552      150.235       64.102       91.237        0.029        0.015       16.658        6.417        0.148      342.845       18.541      866.484
08/28/2014  07:24:00      -24.091      -12.003       -1.675       16.255        8.134        9.899      264.209       66.160       97.994        0.058        0.021       26.915        5.618        0.044      342.817       18.492      866.482
08/28/2014  07:25:00      -20.364      -15.404        3.571       11.688        7.903       10.362      136.609       62.463      107.372        0.049        0.015       25.534        5.128        0.040      342.907       18.646      866.482
08/28/2014  07:26:00       -2.435        5.637       13.320        9.587        9.958        8.943       91.906       99.166       79.973        0.024        0.014        6.140        1.679        0.075      343.262       19.249      866.481
08/28/2014  07:27:00      -24.841      -25.221        0.481       28.387       25.299       14.454      805.831      640.018      208.920        0.145        0.083       35.400       11.328        0.102      343.008       18.817      866.476
08/28/2014  07:28:00      -29.735      -23.290       -7.463       16.086       11.885       10.801      258.749      141.245      116.671        0.100        0.026       37.770        2.823        0.006      342.824       18.503      866.488
08/28/2014  07:29:00      -43.355      -15.386        1.958       16.846       12.115       10.904      283.783      146.778      118.894        0.133        0.027       46.004        8.325        0.033      342.797       18.458      866.487
08/28/2014  07:30:00      -22.964       -6.922       -8.777       22.472       16.952       14.284      505.006      287.372      204.045        0.082        0.050       23.985       13.125        0.299      342.903       18.639      866.496
08/28/2014  07:31:00      -31.612      -16.813       -2.521       21.461       20.257       13.622      460.556      410.331      185.547        0.117        0.053       35.805       12.426        0.120      342.780       18.428      866.511
08/28/2014  07:32:00      -10.632      -27.170        8.848       29.843       29.683       14.045      890.587      881.058      197.264        0.145        0.098       29.177       18.255        0.391      342.854       18.555      866.508
08/28/2014  07:33:00      -31.428       -1.274        8.357       25.386       22.005       20.285      644.455      484.236      411.488        0.130        0.077       31.454       18.377        0.341      342.936       18.695      866.502
08/28/2014  07:34:00      -10.698        9.971       50.021       13.186       23.428       19.133      173.870      548.876      366.069        0.190        0.054       14.624       18.452        1.592      343.138       19.039      866.500
08/28/2014  07:35:00       -4.964       23.637       51.121        8.837       18.179       13.280       78.093      330.465      176.358        0.189        0.029       24.153       10.971        0.206      343.094       18.964      866.498
08/28/2014  07:36:00       38.066       11.519       22.734       27.707       14.344       26.782      767.657      205.756      717.265        0.189        0.085       39.771       17.878        0.202      343.008       18.818      866.507
08/28/2014  07:37:00       10.424       12.986       24.479       20.583       29.738       23.409      423.657      884.374      547.990        0.137        0.093       16.653       14.026        0.709      343.255       19.239      866.513
08/28/2014  07:38:00        1.296       34.607       38.510       14.116       16.344       14.196      199.249      267.135      201.532        0.167        0.033       34.631        9.579        0.077      343.483       19.626      866.516
08/28/2014  07:39:00        3.329        5.493       34.246       22.885       13.948       15.720      523.702      194.543      247.109        0.109        0.048        6.423        8.379        1.702      343.448       19.566      866.526
08/28/2014  07:40:00        4.452       10.349       38.970       25.374       26.282       23.230      643.862      690.740      539.655        0.176        0.094       11.266       14.218        1.593      343.445       19.561      866.536
08/28/2014  07:41:00       -5.496        0.602       35.108       19.847       19.792       22.255      393.899      391.716      495.275        0.127        0.064        5.529       17.401        9.906      343.577       19.786      866.544
08/28/2014  07:42:00       16.540      -14.884       11.776       24.803       37.370       26.604      615.213     1396.524      707.747        0.168        0.136       22.251       23.242        1.091      343.483       19.626      866.540
08/28/2014  07:43:00        3.006       21.312       36.323       18.827       26.796       25.252      354.459      718.038      637.667        0.175        0.086       21.522       17.375        0.652      343.672       19.949      866.538
08/28/2014  07:44:00       26.619      -22.900       15.892       35.800       27.308       30.154     1281.649      745.737      909.292        0.221        0.147       35.114       24.795        0.499      343.519       19.688      866.527
08/28/2014  07:45:00        6.993      -34.319       12.407       24.310       36.502       30.814      590.963     1332.368      949.497        0.213        0.144       35.024       27.932        0.636      343.541       19.726      866.530
08/28/2014  07:46:00        4.973       13.050       33.939       26.169       17.871       17.605      684.810      319.379      309.921        0.133        0.066       13.965       13.804        0.977      343.673       19.949      866.535
08/28/2014  07:47:00       -0.506       11.672       27.049       14.383       11.621       13.165      206.877      135.047      173.313        0.069        0.026       11.683        8.981        0.591      343.736       20.056      866.532
08/28/2014  07:48:00       32.678       46.923       39.032       29.268       28.310       18.086      856.602      801.469      327.097        0.339        0.099       57.180        9.266        0.026      343.469       19.603      866.528
08/28/2014  07:49:00       16.340       39.310        0.880       30.212       17.384       17.250      912.786      302.208      297.553        0.166        0.076       42.571       15.401        0.131      343.412       19.505      866.527
08/28/2014  07:50:00       -8.267       22.425        6.041       24.265       18.006       17.511      588.766      324.228      306.636        0.091        0.061       23.901       15.535        0.422      343.519       19.688      866.517
08/28/2014  07:51:00       -6.285        4.006        3.004       13.026        9.168       13.326      169.673       84.050      177.587        0.025        0.022        7.453        3.623        0.236      343.621       19.862      866.515
08/28/2014  07:52:00      -13.584        0.621       12.550       11.838       12.509       13.420      140.133      156.486      180.083        0.041        0.024       13.598        9.088        0.447      343.687       19.974      866.513
08/28/2014  07:53:00       -3.983       -4.256       23.240       10.838        8.916       13.442      117.460       79.488      180.695        0.048        0.019        5.829        8.639        2.197      344.061       20.613      866.507
08/28/2014  07:54:00       -5.633       -1.190       20.868       12.242       10.344        9.845      149.874      106.999       96.922        0.041        0.018        5.757        8.297        2.077      344.227       20.899      866.512
08/28/2014  07:55:00      -16.137      -11.127        1.180       11.966       11.611        9.234      143.178      134.806       85.273        0.037        0.018       19.601        6.313        0.104      343.516       19.683      866.517
08/28/2014  07:56:00      -18.883       -6.458        4.164       13.863       13.506       10.075      192.173      182.410      101.499        0.045        0.024       19.957        5.961        0.089      343.591       19.811      866.517
08/28/2014  07:57:00      -60.598      -20.684       -0.843       18.863       13.333       12.642      355.818      177.780      159.826        0.240        0.035       64.031        8.581        0.018      343.333       19.371      866.518
08/28/2014  07:58:00      -29.510       -7.047        5.725       38.149       13.624       18.786     1455.348      185.608      352.917        0.147        0.100       30.340       20.329        0.449      343.570       19.776      866.520
08/28/2014  07:59:00      -54.068      -33.530       -2.345       20.991       19.068       11.275      440.610      363.579      127.122        0.249        0.047       63.621        8.994        0.020      343.321       19.349      866.520
08/28/2014  08:00:00      -39.501      -39.729        1.679       17.858       13.996       12.856      318.911      195.891      165.271        0.191        0.034       56.024       11.903        0.045      343.375       19.443      866.527
08/28/2014  08:01:00      -30.573      -26.175        2.047       26.413       17.974       12.824      697.650      323.047      164.459        0.140        0.059       40.248       13.043        0.105      343.416       19.512      866.533
08/28/2014  08:02:00      -51.400      -30.581        0.962       18.237       13.788       11.781      332.600      190.103      138.793        0.212        0.033       59.809       11.620        0.038      343.447       19.565      866.536
08/28/2014  08:03:00      -67.854      -38.510       -6.780       29.188       17.154       10.353      851.911      294.252      107.189        0.369        0.063       78.020       10.367        0.018      343.379       19.451      866.540
08/28/2014  08:04:00      -73.159      -65.368       -8.605       28.974       20.878       13.695      839.476      435.907      187.540        0.558        0.073       98.108        8.322        0.007      343.423       19.524      866.535
08/28/2014  08:05:00      -76.918      -63.842       -9.610       13.511       16.885        9.259      182.549      285.118       85.725        0.532        0.028       99.961        5.630        0.003      343.396       19.479      866.538
08/28/2014  08:06:00      -50.279      -42.053       -1.926       17.592       16.461       11.994      309.478      270.968      143.857        0.251        0.036       65.547       11.303        0.030      343.440       19.553      866.536
08/28/2014  08:07:00      -33.350      -56.782        6.199       19.360       27.792       19.938      374.800      772.407      397.525        0.296        0.077       65.851       18.690        0.081      343.507       19.667      866.537
08/28/2014  08:08:00      -42.153      -26.684        7.432       21.666       35.719       15.128      469.399     1275.864      228.842        0.226        0.099       49.889       18.214        0.133      343.553       19.745      866.535
08/28/2014  08:09:00      -37.191      -13.637        2.512       21.864       23.930       19.831      478.039      572.643      393.257        0.151        0.072       39.612       20.234        0.261      343.683       19.967      866.540
08/28/2014  08:10:00      -39.527       24.197       21.703       34.123       21.192       18.541     1164.376      449.086      343.773        0.229        0.098       46.346       18.322        0.156      343.986       20.484      866.537
08/28/2014  08:11:00      -31.672       11.618        5.340       26.134       24.807       23.247      682.983      615.370      540.421        0.150        0.092       33.736       18.449        0.299      344.052       20.598      866.545
08/28/2014  08:12:00      -27.684      -20.485        1.887       24.180       25.183       15.489      584.660      634.186      239.904        0.132        0.073       34.439       15.145        0.193      343.965       20.447      866.541
08/28/2014  08:13:00      -46.176      -36.104       -0.293       25.051       29.044       16.486      627.544      843.558      271.797        0.259        0.087       58.615       16.736        0.082      343.738       20.061      866.552
08/28/2014  08:14:00      -19.529      -39.477        2.911       23.950       15.187       14.208      573.590      230.637      201.865        0.148        0.050       44.044        9.200        0.044      343.656       19.922      866.558
08/28/2014  08:15:00      -13.672      -34.569      -11.857       22.555       15.204       14.120      508.724      231.159      199.369        0.123        0.047       37.175       13.637        0.135      343.640       19.892      866.540
08/28/2014  08:16:00      -54.629      -58.786      -13.224        7.570       17.244        7.061       57.300      297.365       49.861        0.351        0.020       80.250        7.570        0.009      343.622       19.864      866.541
08/28/2014  08:17:00      -25.488      -15.156       -4.254       14.319        6.535        7.411      205.038       42.712       54.927        0.060        0.015       29.654        8.547        0.083      343.724       20.036      866.542
08/28/2014  08:18:00      -16.323        4.790        9.814       15.773       18.724       20.794      248.794      350.582      432.401        0.071        0.052       17.011       11.172        0.431      344.134       20.737      866.527
08/28/2014  08:19:00      -17.403      -45.555        0.268       10.128       18.048        9.611      102.572      325.726       92.370        0.145        0.026       48.767        5.673        0.014      343.763       20.104      866.532
08/28/2014  08:20:00      -39.259      -18.325       -9.823        6.800        8.632        7.309       46.242       74.515       53.416        0.107        0.009       43.325        4.550        0.011      343.811       20.186      866.527
08/28/2014  08:21:00      -34.680      -43.398       -3.538        8.359       12.198       11.984       69.874      148.780      143.611        0.173        0.018       55.553        6.237        0.013      343.792       20.153      866.538
08/28/2014  08:22:00      -13.793      -36.414       -6.954       10.277       13.241       11.797      105.608      175.324      139.168        0.099        0.021       38.938        6.738        0.030      343.880       20.304      866.544
08/28/2014  08:23:00      -23.987      -21.756        9.476       11.021       12.807       13.650      121.460      164.012      186.322        0.081        0.024       32.384        6.522        0.041      344.063       20.616      866.538
08/28/2014  08:24:00      -15.209      -12.816       -4.769       23.307       17.908       14.376      543.233      320.714      206.660        0.074        0.054       19.889       10.728        0.291      344.129       20.729      866.541
08/28/2014  08:25:00      -37.497      -37.253       -2.494       21.832       19.189       16.792      476.652      368.215      281.971        0.196        0.056       52.857       15.366        0.085      344.049       20.592      866.545
08/28/2014  08:26:00      -25.153      -15.760       -3.198       13.398       11.433        7.210      179.504      130.714       51.984        0.063        0.018       29.683        8.443        0.081      344.067       20.624      866.545
08/28/2014  08:27:00      -21.299       -8.136      -11.571        9.405        9.761        9.264       88.446       95.269       85.821        0.046        0.013       22.800        5.702        0.063      344.145       20.756      866.540
08/28/2014  08:28:00      -22.635      -20.032       -2.691       13.599       11.413        7.714      184.932      130.257       59.501        0.065        0.019       30.226        4.314        0.020      344.091       20.663      866.541
08/28/2014  08:29:00      -41.948      -22.805        0.135       12.969       15.879        9.785      168.188      252.128       95.739        0.140        0.026       47.747        5.866        0.015      344.082       20.648      866.536
08/28/2014  08:30:00      -49.382      -17.704       -5.161       16.316       16.141       11.645      266.207      260.526      135.603        0.172        0.033       52.460       12.284        0.055      344.141       20.750      866.537
08/28/2014  08:31:00      -30.105      -10.578        6.930       23.310       24.531       20.903      543.375      601.751      436.919        0.132        0.079       31.909       16.907        0.281      344.563       21.473      866.530
08/28/2014  08:32:00      -35.837      -20.560        1.599       21.907       16.551       14.914      479.934      273.934      222.427        0.134        0.049       41.316       12.761        0.095      344.376       21.151      866.526
08/28/2014  08:33:00      -31.243       -2.113       -1.869       11.898       14.763        9.792      141.567      217.944       95.877        0.072        0.023       31.314        4.637        0.022      344.344       21.096      866.519
08/28/2014  08:34:00      -18.119        1.949        7.156       12.137       12.162       15.992      147.313      147.912      255.756        0.047        0.028       18.224       11.562        0.403      344.828       21.924      866.514
08/28/2014  08:35:00      -11.867      -24.185       19.064       18.578       20.301       18.895      345.155      412.126      357.019        0.110        0.056       26.940        7.111        0.070      344.778       21.838      866.501
08/28/2014  08:36:00      -50.694       -3.259       -0.059       13.725       13.535       11.623      188.377      183.208      135.095        0.154        0.025       50.799        8.475        0.028      344.319       21.054      866.496
08/28/2014  08:37:00      -22.384      -26.662        9.388       16.426       27.201       18.041      269.821      739.890      325.494        0.132        0.067       34.812       16.291        0.219      344.647       21.613      866.490
08/28/2014  08:38:00      -40.479      -22.998       -2.535       22.905       18.168       10.231      524.657      330.086      104.678        0.157        0.048       46.556        8.065        0.030      344.474       21.318      866.485
08/28/2014  08:39:00      -53.352      -30.551       -4.547       33.284       16.631       19.267     1107.834      276.601      371.200        0.278        0.088       61.480        9.936        0.026      344.478       21.325      866.485
08/28/2014  08:40:00      -30.198      -46.888        4.321       31.688       25.782       17.856     1004.157      664.709      318.835        0.256        0.099       55.771       22.609        0.164      344.709       21.720      866.482
08/28/2014  08:41:00      -32.698      -13.934       -1.385       16.172       26.705       13.363      261.529      713.182      178.556        0.121        0.058       35.543        9.346        0.069      344.596       21.529      866.476
08/28/2014  08:42:00       -6.901       12.898        7.627       12.576       19.472       20.624      158.144      379.172      425.342        0.062        0.048       14.628       12.260        0.702      345.276       22.691      866.473
08/28/2014  08:43:00      -12.589       13.772       14.978       19.443       20.905       17.860      378.026      437.013      318.964        0.085        0.057       18.659       14.253        0.583      345.242       22.633      866.474
08/28/2014  08:44:00        6.112       17.132       38.101       12.381       20.214       12.898      153.277      408.611      166.367        0.126        0.036       18.190       11.346        0.389      345.424       22.945      866.469
08/28/2014  08:45:00        3.776       20.842       35.315       18.633       25.492       11.404      347.194      649.855      130.046        0.141        0.056       21.181       11.227        0.281      345.328       22.780      866.472
08/28/2014  08:46:00      -13.397       -8.580       15.566       12.459       13.188       18.969      155.236      173.921      359.816        0.059        0.034       15.909       11.660        0.537      345.418       22.934      866.465
08/28/2014  08:47:00      -21.528       -6.834        2.671       12.771       12.087       14.726      163.095      146.089      216.843        0.052        0.026       22.587        8.070        0.128      344.989       22.201      866.458
08/28/2014  08:48:00      -47.760      -21.875       -0.454       21.301       15.632       12.183      453.717      244.354      148.434        0.180        0.042       52.531        8.068        0.024      344.765       21.816      866.453
08/28/2014  08:49:00      -51.623       -0.512       -2.617       14.005       32.847       14.797      196.141     1078.943      218.941        0.208        0.075       51.626       10.661        0.043      344.664       21.643      866.444
08/28/2014  08:50:00      -49.518       10.571       -4.725       20.328       25.762       14.274      413.238      663.687      203.740        0.193        0.064       50.634        8.037        0.025      344.721       21.741      866.430
08/28/2014  08:51:00      -24.791        9.247        4.371       27.075       31.487       25.669      733.060      991.428      658.887        0.155        0.119       26.459       24.166        0.834      345.117       22.420      866.414
08/28/2014  08:52:00      -29.791        3.433       -0.338       20.078       14.977       15.928      403.136      224.302      253.705        0.089        0.044       29.988       14.450        0.232      345.153       22.481      866.408
08/28/2014  08:53:00        5.664      -16.470       37.782       29.400       43.311       32.545      864.348     1875.860     1059.155        0.276        0.190       17.417       13.845        0.632      345.557       23.173      866.399
08/28/2014  08:54:00       -4.046      -17.588       30.686       28.066       32.629       19.294      787.718     1064.626      372.244        0.175        0.111       18.047       11.903        0.435      345.454       22.995      866.386
08/28/2014  08:55:00       13.372        9.798       48.591       30.704       47.727       32.625      942.716     2277.883     1064.368        0.346        0.214       16.577       31.947        3.714      345.602       23.251      866.384
08/28/2014  08:56:00       -7.009      -55.007       49.302       23.939       64.436       25.307      573.057     4151.990      640.440        0.543        0.268       55.452       29.112        0.276      345.408       22.917      866.373
08/28/2014  08:57:00       19.678      -78.718       17.933       24.003       66.354       41.522      576.127     4402.853     1724.039        0.680        0.335       81.141       47.109        0.337      344.967       22.163      866.377
08/28/2014  08:58:00       -1.283       23.114       67.211       19.119       55.279       25.238      365.546     3055.816      636.943        0.455        0.203       23.150       30.761        1.766      345.446       22.983      866.375
08/28/2014  08:59:00      -59.488      -22.898        5.772       26.999       31.453       19.897      728.965      989.307      395.888        0.310        0.106       63.743       17.595        0.076      345.102       22.393      866.377
08/28/2014  09:00:00        4.736       -4.388       12.332       15.490       14.018       16.984      239.937      196.502      288.452        0.046        0.036        6.456       10.148        2.471      345.683       23.391      866.374
08/28/2014  09:01:00      -36.607       20.419        1.054       37.985       23.070       30.716     1442.857      532.241      943.442        0.234        0.146       41.917       17.603        0.176      345.290       22.715      866.370
08/28/2014  09:02:00      -10.916        2.938        0.319       32.353       19.817       22.099     1046.719      392.700      488.363        0.103        0.096       11.304       11.618        1.056      345.615       23.273      866.370
08/28/2014  09:03:00       -9.290      -16.344       13.016       18.882       18.876       21.776      356.523      356.310      474.186        0.085        0.059       18.800        5.058        0.072      345.774       23.544      866.366
08/28/2014  09:04:00      -37.857      -38.381        3.096       31.998       31.170       25.733     1023.867      971.579      662.163        0.279        0.133       53.909       16.043        0.089      345.238       22.626      866.369
08/28/2014  09:05:00      -34.264      -10.185       16.479       24.418       31.443       24.382      596.215      988.683      594.501        0.186        0.109       35.746       22.889        0.410      345.565       23.188      866.360
08/28/2014  09:06:00      -39.716      -29.829        5.783       40.001       32.133       20.403     1600.101     1032.549      416.299        0.277        0.152       49.670       16.995        0.117      345.233       22.618      866.348
08/28/2014  09:07:00      -41.815      -39.184        6.384       37.625       40.052       31.071     1415.608     1604.147      965.392        0.365        0.199       57.305       21.994        0.147      345.326       22.777      866.342
08/28/2014  09:08:00       22.736      -12.363       -0.118       44.452       37.815       40.698     1976.008     1429.941     1656.296        0.287        0.253       25.880       23.211        0.804      345.616       23.273      866.334
08/28/2014  09:09:00      -34.337      -25.285       12.326       38.760       33.389       25.706     1502.331     1114.794      660.820        0.262        0.164       42.643       20.407        0.229      345.484       23.047      866.336
08/28/2014  09:10:00      -48.848      -16.750        1.523       31.911       18.002       17.693     1018.305      324.088      313.040        0.216        0.083       51.640       16.137        0.098      345.382       22.874      866.344
08/28/2014  09:11:00      -49.519      -34.919       -0.553       23.913       25.194       12.645      571.814      634.720      159.884        0.252        0.068       60.593       12.101        0.040      345.208       22.575      866.348
08/28/2014  09:12:00      -37.207      -16.282        0.392       21.908       14.634       11.590      479.972      214.141      134.322        0.124        0.041       40.613        9.122        0.050      345.247       22.640      866.354
08/28/2014  09:13:00        4.480       19.945       44.564       28.515       32.030       39.567      813.081     1025.897     1565.586        0.290        0.170       20.442       25.461        1.551      346.020       23.967      866.346
08/28/2014  09:14:00       -3.684       31.992       66.208       21.776       31.333       20.479      474.176      981.762      419.388        0.365        0.094       32.204       18.773        0.340      346.242       24.350      866.351
08/28/2014  09:15:00      -23.346       21.956       42.398       23.270       27.725       20.580      541.511      768.666      423.523        0.228        0.087       32.049       11.224        0.123      346.024       23.975      866.347
08/28/2014  09:16:00        0.793       26.999       57.099       27.558       38.745       22.988      759.449     1501.146      528.451        0.339        0.139       27.010        7.767        0.083      346.387       24.598      866.356
08/28/2014  09:17:00       25.455       -6.563       36.741       32.680       75.407       31.917     1067.990     5686.179     1018.667        0.491        0.389       26.287       40.965        2.428      345.858       23.689      866.353
08/28/2014  09:18:00       29.041     -108.541       -4.206       38.576       46.645       30.100     1488.146     2175.729      906.030        0.861        0.228      112.359       26.152        0.054      345.505       23.083      866.354
08/28/2014  09:19:00      -77.854     -103.319      -17.686       30.228       45.362       18.355      913.718     2057.727      336.924        1.018        0.165      129.367        7.330        0.003      345.219       22.594      866.364
08/28/2014  09:20:00     -118.731      -57.992      -15.052       30.047       33.604       23.478      902.816     1129.247      551.229        1.013        0.129      132.137       24.457        0.034      345.154       22.481      866.363
08/28/2014  09:21:00      -79.462      -42.195       -3.639       28.730       21.318       15.823      825.405      454.460      250.359        0.482        0.077       89.970       14.632        0.026      345.273       22.687      866.373
08/28/2014  09:22:00      -73.350       -8.116       -1.864       42.892       32.238       24.406     1839.722     1039.264      595.672        0.446        0.174       73.797       22.103        0.090      345.383       22.874      866.386
08/28/2014  09:23:00      -95.253      -61.368       -2.758       24.953       31.165       16.067      622.659      971.273      258.153        0.735        0.093      113.310        1.931        0.000      345.339       22.799      866.403
08/28/2014  09:24:00      -66.920        8.279        8.830       43.434       27.912       19.019     1886.486      779.083      361.735        0.383        0.151       67.430       13.013        0.037      345.423       22.942      866.405
08/28/2014  09:25:00      -52.752      -47.734      -10.289       41.339       45.700       25.952     1708.946     2088.448      673.507        0.482        0.224       71.143       28.573        0.161      345.831       23.644      866.407
08/28/2014  09:26:00      -55.792      -80.812       -5.332       35.124       39.919       24.339     1233.679     1593.564      592.390        0.654        0.171       98.200       16.838        0.029      345.436       22.964      866.413
08/28/2014  09:27:00      -47.606       -3.371        5.924       44.813       23.086       19.264     2008.240      532.969      371.096        0.261        0.146       47.726       16.376        0.118      345.664       23.356      866.409
08/28/2014  09:28:00      -14.994       10.744       33.772       32.884       24.954       16.419     1081.367      622.710      269.581        0.173        0.099       18.446       17.428        0.893      346.375       24.578      866.409
08/28/2014  09:29:00      -12.706       17.431       47.914       16.649       20.578       15.548      277.183      423.447      241.738        0.185        0.047       21.570       11.005        0.260      346.684       25.109      866.395
08/28/2014  09:30:00       16.572      -44.788       17.552       24.963       56.169       32.249      623.174     3154.984     1040.001        0.370        0.241       47.756       34.653        0.527      346.387       24.599      866.384
08/28/2014  09:31:00       23.763      -13.748       34.268       47.374       44.258       26.017     2244.341     1958.801      676.869        0.340        0.244       27.454       27.427        0.998      346.287       24.427      866.370
08/28/2014  09:32:00       13.409      -21.304       34.202       35.751       44.158       25.472     1278.147     1949.938      648.837        0.284        0.194       25.173       17.701        0.494      346.336       24.510      866.373
08/28/2014  09:33:00       36.023       -3.871       38.536       45.564       83.200       42.866     2076.103     6922.270     1837.480        0.681        0.542       36.230       45.272        1.561      346.114       24.130      866.365
08/28/2014  09:34:00      -30.536      -45.289       -1.812       42.271       66.488       25.060     1786.802     4420.710      628.011        0.491        0.342       54.621       27.486        0.253      346.031       23.987      866.362
08/28/2014  09:35:00       17.058      -42.920       16.164       60.510       42.362       36.879     3661.423     1794.512     1360.091        0.460        0.341       46.186       32.267        0.488      346.238       24.342      866.377
08/28/2014  09:36:00       15.731        1.709       39.573       27.709       41.426       25.313      767.797     1716.115      640.739        0.247        0.156       15.824       24.790        2.454      346.291       24.432      866.365
08/28/2014  09:37:00       -4.963       13.140       50.644       35.350       55.285       45.050     1249.598     3056.452     2029.497        0.455        0.317       14.046       44.459       10.019      346.231       24.329      866.372
08/28/2014  09:38:00        7.210      -14.314       33.573       48.291       67.346       44.710     2332.005     4535.515     1999.007        0.512        0.443       16.027       44.969        7.872      346.465       24.733      866.367
08/28/2014  09:39:00       15.087       -4.081       38.486       34.839       40.797       32.049     1213.751     1664.415     1027.159        0.281        0.195       15.629       29.284        3.511      346.449       24.704      866.369
08/28/2014  09:40:00        1.493       32.286       63.860       37.534       42.602       26.000     1408.787     1814.889      675.984        0.451        0.195       32.321       21.161        0.429      346.516       24.820      866.351
08/28/2014  09:41:00       52.316       24.536       50.386       79.806       63.668       54.873     6368.955     4053.672     3011.003        0.965        0.672       57.784       40.668        0.495      346.362       24.555      866.349
08/28/2014  09:42:00       23.201       51.180       75.699       48.850       61.517       37.717     2386.283     3784.353     1422.581        0.824        0.380       56.193       35.735        0.404      346.388       24.601      866.349
08/28/2014  09:43:00      106.178     -120.011      -30.093       65.647       71.212       50.909     4309.518     5071.111     2591.695        1.927        0.599      160.238       44.867        0.078      345.919       23.791      866.350
08/28/2014  09:44:00       12.178       46.805       81.570       48.668       58.192       39.707     2368.569     3386.254     1576.618        0.816        0.367       48.363       32.810        0.460      346.551       24.880      866.331
08/28/2014  09:45:00       52.296      -73.119       -0.283       62.680       91.021       66.911     3928.801     8284.750     4477.071        1.238        0.835       89.896       68.651        0.583      346.187       24.252      866.332
08/28/2014  09:46:00      160.093     -135.662      -49.368       51.351       57.794       35.173     2636.966     3340.160     1237.118        2.684        0.361      209.843       13.760        0.004      345.788       23.564      866.326
08/28/2014  09:47:00       44.335      -47.756       14.181       54.300       71.812       46.699     2948.477     5157.019     2180.763        0.736        0.514       65.164       48.963        0.565      346.330       24.500      866.335
08/28/2014  09:48:00       28.090      -33.883       18.852       41.192       60.903       36.164     1696.761     3709.153     1307.862        0.450        0.336       44.013       39.382        0.801      346.301       24.451      866.325
08/28/2014  09:49:00       17.531       36.535       56.252       49.068       50.890       44.684     2407.645     2589.770     1996.643        0.590        0.350       40.524       36.117        0.794      346.675       25.094      866.323
08/28/2014  09:50:00       29.556       55.248       87.752       43.034       61.780       33.462     1851.962     3816.717     1119.706        0.921        0.339       62.656       31.287        0.249      346.371       24.572      866.331
08/28/2014  09:51:00       18.487       -2.778       52.422       28.985       37.904       32.088      840.104     1436.676     1029.639        0.320        0.165       18.695       24.350        1.697      346.622       25.001      866.332
08/28/2014  09:52:00       26.540       37.613       67.641       37.832       63.487       50.385     1431.246     4030.607     2538.620        0.735        0.400       46.034       42.209        0.841      346.633       25.023      866.341
08/28/2014  09:53:00       44.484       28.375       70.501       56.346       64.605       41.377     3174.867     4173.787     1712.028        0.841        0.453       52.764       44.006        0.696      346.297       24.443      866.344
08/28/2014  09:54:00      104.146      -52.117        7.419       61.786       92.891       46.703     3817.529     8628.716     2181.143        1.412        0.731      116.459       51.012        0.192      345.925       23.804      866.347
08/28/2014  09:55:00       20.921        1.293       34.860       32.123       42.769       30.669     1031.908     1829.148      940.603        0.273        0.190       20.960       30.909        2.175      346.623       25.004      866.338
08/28/2014  09:56:00       18.310       40.862       82.386       39.270       51.250       28.978     1542.094     2626.517      839.706        0.690        0.250       44.777       25.072        0.314      346.705       25.146      866.324
08/28/2014  09:57:00      -10.622        7.585       14.055       22.875       28.461       21.046      523.257      810.039      442.926        0.107        0.089       13.052       14.998        1.320      346.666       25.079      866.328
08/28/2014  09:58:00       25.899       37.902       76.281       43.818       53.661       37.970     1920.027     2879.506     1441.701        0.708        0.312       45.905       35.832        0.609      346.434       24.677      866.326
08/28/2014  09:59:00       43.202      -31.280       35.418       47.904       41.281       35.881     2294.783     1704.132     1287.456        0.469        0.264       53.337       31.787        0.355      346.448       24.702      866.333
08/28/2014  10:00:00       49.051      -84.701       -1.163       55.462       78.332       49.200     3076.076     6135.829     2420.680        1.060        0.582       97.879       57.088        0.340      346.429       24.670      866.326
08/28/2014  10:01:00       50.597      -22.089       40.599       51.238       66.917       50.320     2625.349     4477.889     2532.101        0.716        0.482       55.208       49.577        0.806      346.871       25.431      866.332
08/28/2014  10:02:00       22.809      -58.078       24.350       41.824       58.765       36.794     1749.220     3453.317     1353.815        0.552        0.328       62.396       35.962        0.332      346.464       24.730      866.329
08/28/2014  10:03:00       -5.065      -19.633       14.723       31.117       36.684       28.493      968.276     1345.736      811.849        0.188        0.156       20.276       11.422        0.317      346.772       25.261      866.323
08/28/2014  10:04:00      -26.726      -19.896        9.677       24.833       29.410       19.715      616.673      864.945      388.680        0.154        0.094       33.319       21.219        0.406      346.646       25.043      866.325
08/28/2014  10:05:00      -26.430       14.056       51.987       30.023       36.475       27.795      901.352     1330.433      772.575        0.330        0.150       29.935       29.663        0.982      347.058       25.753      866.324
08/28/2014  10:06:00      -66.688      -24.267        7.132       39.120       24.956       19.763     1530.339      622.813      390.594        0.381        0.127       70.966       20.852        0.086      346.310       24.464      866.313
08/28/2014  10:07:00      -50.792      -19.750        5.471       35.492       29.240       20.407     1259.694      854.977      416.442        0.276        0.127       54.497       20.993        0.148      346.507       24.804      866.317
08/28/2014  10:08:00      -59.855      -59.963       -8.841       35.493       26.105       19.061     1259.726      681.493      363.313        0.478        0.115       84.724       12.169        0.021      346.121       24.141      866.303
08/28/2014  10:09:00       -5.629      -16.417        9.510       35.718       25.885       30.919     1275.767      670.027      955.991        0.165        0.145       17.355       24.924        2.063      346.715       25.162      866.290
08/28/2014  10:10:00       19.683       14.596       23.040       48.242       55.071       38.505     2327.329     3032.843     1482.660        0.399        0.342       24.505       39.198        2.559      346.776       25.267      866.290
08/28/2014  10:11:00       29.316       75.701       68.158       62.441       31.177       30.795     3898.887      972.026      948.322        0.853        0.291       81.179       27.206        0.112      346.690       25.119      866.269
08/28/2014  10:12:00       30.712     -100.098       -1.439       43.315       59.191       47.105     1876.223     3503.582     2218.921        0.928        0.380      104.704       41.038        0.154      346.720       25.170      866.259
08/28/2014  10:13:00       38.385      -75.484       -0.542       52.876       72.418       43.468     2795.915     5244.424     1889.471        0.855        0.496       84.683       37.018        0.191      346.849       25.392      866.257
08/28/2014  10:14:00       59.593      -70.836       -4.990       64.771       94.474       62.700     4195.230     8925.397     3931.346        1.282        0.853       92.569       51.117        0.305      346.853       25.399      866.234
08/28/2014  10:15:00       56.658      -67.024        2.895       59.539       74.325       61.338     3544.909     5524.185     3762.359        1.027        0.642       87.763       51.275        0.341      346.778       25.270      866.236
08/28/2014  10:16:00       27.461      -93.001        8.628       37.870       78.640       35.588     1434.158     6184.197     1266.504        0.918        0.444       96.971       40.058        0.171      346.498       24.791      866.238
08/28/2014  10:17:00       14.753      -13.488       45.531       33.239       70.193       31.667     1104.835     4927.097     1002.814        0.475        0.352       19.990       38.628        3.734      347.043       25.728      866.232
08/28/2014  10:18:00        5.617       23.269       54.354       16.198       33.164       16.833      262.376     1099.829      283.342        0.259        0.082       23.937       17.472        0.533      346.924       25.522      866.227
08/28/2014  10:19:00      -19.449        4.765       25.208       40.552       26.296       32.618     1644.451      691.490     1063.938        0.222        0.170       20.025       31.521        2.478      346.930       25.534      866.211
08/28/2014  10:20:00      -39.089       -6.969       -1.241       31.535       31.946       23.028      994.462     1020.568      530.301        0.206        0.127       39.706       14.484        0.133      346.776       25.267      866.208
08/28/2014  10:21:00      -18.097       -4.000       12.581       21.328       16.908       16.008      454.896      285.891      256.252        0.075        0.050       18.533       12.808        0.478      347.096       25.818      866.201
08/28/2014  10:22:00      -17.383       -5.919       32.152       22.242       22.633       12.335      494.701      512.261      152.151        0.126        0.058       18.363        8.760        0.228      347.429       26.393      866.194
08/28/2014  10:23:00       17.309      -15.900       33.407       41.966       51.570       36.730     1761.137     2659.417     1349.117        0.372        0.288       23.503       26.975        1.317      347.426       26.386      866.187
08/28/2014  10:24:00       33.006      -73.715       -6.207       34.949       32.562       39.743     1221.415     1060.315     1579.501        0.521        0.193       80.767       32.656        0.163      346.480       24.757      866.198
08/28/2014  10:25:00      -37.353      -17.577       13.453       23.905       41.365       25.694      571.440     1711.063      660.201        0.241        0.147       41.282       27.840        0.455      346.489       24.774      866.198
08/28/2014  10:26:00       -0.218       31.577       38.624       33.400       26.591       26.845     1115.587      707.092      720.672        0.252        0.127       31.578       15.847        0.252      347.475       26.472      866.183
08/28/2014  10:27:00       81.997       52.275       32.031       72.839       39.640       39.871     5305.542     1571.295     1589.715        0.947        0.423       97.243       30.509        0.098      347.114       25.849      866.184
08/28/2014  10:28:00       44.152       45.218        7.554       51.311       34.990       30.384     2632.803     1224.292      923.211        0.441        0.239       63.199       29.728        0.221      346.976       25.612      866.183
08/28/2014  10:29:00       64.810       67.757       45.151       38.866       43.859       30.505     1510.576     1923.583      930.533        0.760        0.218       93.762       13.232        0.020      347.196       25.990      866.174
08/28/2014  10:30:00       38.147       13.335       35.831       37.757       42.591       40.098     1425.592     1813.970     1607.860        0.388        0.242       40.410       28.655        0.503      347.392       26.328      866.177
08/28/2014  10:31:00       73.038      -91.069        4.995       56.053       85.992       42.829     3141.903     7394.664     1834.318        1.301        0.619      116.740       41.992        0.129      347.270       26.117      866.165
08/28/2014  10:32:00       51.044      -21.454       43.951       41.892       50.122       46.549     1754.940     2512.213     2166.775        0.571        0.322       55.369       38.792        0.491      347.388       26.323      866.171
08/28/2014  10:33:00       16.512        6.621       23.770       24.596       43.181       27.648      604.948     1864.611      764.390        0.206        0.162       17.790       29.023        2.661      347.271       26.120      866.170
08/28/2014  10:34:00        2.001        7.014        0.125       35.265       18.864       21.377     1243.586      355.855      456.956        0.105        0.103        7.293       14.579        3.996      347.141       25.896      866.172
08/28/2014  10:35:00      -82.086       -3.961      -14.868       20.376       14.511       13.616      415.171      210.582      185.404        0.389        0.041       82.182        7.233        0.008      346.761       25.242      866.165
08/28/2014  10:36:00      -41.229       -6.009      -19.116       31.653       31.875       16.788     1001.904     1016.043      281.837        0.220        0.115       41.665       16.483        0.157      346.832       25.364      866.167
08/28/2014  10:37:00     -127.555      -54.668      -17.956       36.133       30.079       16.572     1305.624      904.757      274.630        1.103        0.124      138.776        6.284        0.002      346.675       25.093      866.154
08/28/2014  10:38:00     -108.299       -5.354      -18.936       16.400       11.470       15.168      268.962      131.568      230.067        0.637        0.032      108.431        8.067        0.006      346.552       24.883      866.158
08/28/2014  10:39:00      -85.323       -5.281      -11.616       23.263       23.496       11.351      541.175      552.055      128.842        0.433        0.061       85.487        8.110        0.009      346.640       25.034      866.144
08/28/2014  10:40:00      -55.906      -30.223       10.005       26.449       26.977       23.478      699.540      727.760      551.201        0.306        0.099       63.553       11.891        0.035      347.000       25.651      866.148
08/28/2014  10:41:00     -147.541       28.915      -11.957       49.889       30.083       23.605     2488.897      904.975      557.216        1.335        0.198      150.348       23.058        0.024      346.897       25.475      866.139
08/28/2014  10:42:00     -155.379      -70.519       -5.697       60.245       58.180       30.475     3629.514     3384.884      928.747        1.854        0.397      170.633       32.207        0.036      346.829       25.357      866.133
08/28/2014  10:43:00     -173.095        5.323      -14.911       27.292       25.213       19.335      744.835      635.678      373.838        1.598        0.088      173.176        7.673        0.002      346.706       25.147      866.121
08/28/2014  10:44:00     -104.524      -40.121       -4.884       50.234       35.347       26.771     2523.473     1249.399      716.680        0.852        0.224      111.960       23.598        0.044      346.950       25.567      866.121
08/28/2014  10:45:00      -43.755      -58.357        8.933       58.282       40.953       35.135     3396.767     1677.115     1234.465        0.585        0.315       72.939       36.826        0.255      347.310       26.188      866.113
08/28/2014  10:46:00     -118.938      -54.834      -15.254       19.827       25.256       13.457      393.125      637.844      181.089        0.930        0.061      130.969        7.447        0.003      346.780       25.274      866.107
08/28/2014  10:47:00      -77.137      -10.634      -16.244       14.307       16.969       11.820      204.677      287.955      139.721        0.348        0.032       77.867        7.562        0.009      346.838       25.374      866.102
08/28/2014  10:48:00      -59.577       16.414      -11.400       14.888       21.856       14.036      221.661      477.670      197.012        0.242        0.045       61.796        7.255        0.014      346.964       25.590      866.102
08/28/2014  10:49:00      -64.638       29.811      -11.448       28.688       36.701       15.601      823.019     1346.933      243.407        0.381        0.121       71.181       11.821        0.028      347.039       25.719      866.086
08/28/2014  10:50:00      -46.652       15.135       -1.242       12.830       16.343       13.239      164.601      267.083      175.265        0.151        0.030       49.046        6.046        0.015      346.977       25.613      866.076
08/28/2014  10:51:00     -110.177      -11.464       -5.786       30.523       21.583       13.465      931.650      465.810      181.297        0.694        0.079      110.772        6.971        0.004      346.984       25.624      866.061
08/28/2014  10:52:00     -111.869       23.631      -18.460       33.501       30.045       18.766     1122.342      902.728      352.174        0.790        0.119      114.337        6.093        0.003      347.046       25.731      866.060
08/28/2014  10:53:00        8.795       44.435       13.738       33.793       34.389       32.852     1141.937     1182.588     1079.282        0.282        0.170       45.296       27.001        0.355      347.977       27.339      866.044
08/28/2014  10:54:00       48.475       32.000       23.220       42.933       31.540       22.857     1843.210      994.770      522.454        0.364        0.168       58.084       20.605        0.126      347.722       26.898      866.035
08/28/2014  10:55:00       -9.826       25.808        9.533       17.414       30.878       22.979      303.250      953.454      528.044        0.132        0.089       27.615       15.571        0.318      347.920       27.240      866.021
08/28/2014  10:56:00      -36.769       12.602      -10.719       36.338       47.398       23.736     1320.437     2246.570      563.399        0.288        0.207       38.869       16.061        0.171      347.397       26.338      866.023
08/28/2014  10:57:00      -68.355       41.083      -31.121       30.562       29.392       14.165      934.016      863.913      200.644        0.466        0.100       79.751        8.790        0.012      347.061       25.756      866.011
08/28/2014  10:58:00      -32.487      -34.702        7.095       31.905       40.963       21.039     1017.926     1677.938      442.641        0.272        0.157       47.535       12.752        0.072      347.508       26.529      865.993
08/28/2014  10:59:00      -12.535      -89.280       -4.449       37.263       24.685       18.758     1388.545      609.326      351.855        0.525        0.117       90.156       16.322        0.033      347.041       25.723      865.986
08/28/2014  11:00:00      -33.661      -51.762       -6.377       41.383       31.811       20.613     1712.576     1011.913      424.879        0.350        0.157       61.745        7.126        0.013      347.271       26.118      865.970
08/28/2014  11:01:00      -58.163      -49.579       -8.499       36.588       36.888       21.035     1338.675     1360.690      442.476        0.453        0.157       76.427       20.797        0.074      347.387       26.319      865.955
08/28/2014  11:02:00       10.168      -41.262       -1.221       35.174       42.241       32.122     1237.211     1784.288     1031.843        0.293        0.203       42.496       19.201        0.204      347.759       26.961      865.946
08/28/2014  11:03:00        7.575      -88.103      -16.529       51.239       46.370       28.729     2625.474     2150.203      825.363        0.685        0.280       88.428       16.335        0.034      347.467       26.457      865.937
08/28/2014  11:04:00       -2.655      -89.080       -7.154       36.055       55.873       37.465     1299.976     3121.760     1403.597        0.691        0.291       89.119       30.443        0.117      347.875       27.160      865.921
08/28/2014  11:05:00       10.901      -73.068       35.110       40.140       88.676       53.807     1611.210     7863.344     2895.155        0.953        0.618       73.877       62.515        0.716      348.017       27.407      865.914
08/28/2014  11:06:00        7.381       49.098       73.930       20.282       33.447       19.991      411.376     1118.694      399.641        0.493        0.096       49.650       20.279        0.167      347.949       27.288      865.903
08/28/2014  11:07:00      -13.500      -21.290       32.535       31.103       60.645       35.479      967.395     3677.865     1258.785        0.380        0.295       25.210       38.471        2.329      348.157       27.649      865.893
08/28/2014  11:08:00      -44.922       42.378       31.377       19.002       19.139       16.719      361.068      366.320      279.511        0.290        0.050       61.756        8.521        0.019      348.030       27.427      865.871
08/28/2014  11:09:00      -40.792       31.292       13.567       30.066       34.270       28.397      903.938     1174.440      806.369        0.286        0.144       51.412       17.787        0.120      348.204       27.731      865.867
08/28/2014  11:10:00      -21.901       12.217       18.489       25.282       40.512       25.770      639.188     1641.245      664.084        0.196        0.147       25.078       20.868        0.692      348.356       27.993      865.850
08/28/2014  11:11:00       43.381      -28.874       14.974       71.389       59.807       43.544     5096.418     3576.840     1896.106        0.675        0.528       52.112       39.895        0.586      348.200       27.723      865.839
08/28/2014  11:12:00       52.868      -60.733       16.444       49.461       65.869       37.317     2446.347     4338.755     1392.546        0.746        0.409       80.521       33.785        0.176      348.132       27.605      865.813
08/28/2014  11:13:00       53.232       28.705       67.203       57.384       56.642       39.134     3292.931     3208.269     1531.446        0.810        0.402       60.478       39.934        0.436      348.197       27.717      865.811
08/28/2014  11:14:00       37.059        7.646       33.543       53.652       70.153       48.626     2878.516     4921.510     2364.479        0.636        0.508       37.840       36.759        0.944      348.053       27.470      865.792
08/28/2014  11:15:00       41.397       -0.634       48.265       41.731       41.357       33.176     1741.477     1710.435     1100.621        0.430        0.228       41.402       30.231        0.533      348.349       27.982      865.796
08/28/2014  11:16:00       -6.675       17.275        2.384       41.085       23.966       28.603     1687.963      574.360      818.149        0.171        0.154       18.520       22.124        1.427      347.796       27.025      865.785
08/28/2014  11:17:00       -4.343       14.013       37.328       36.337       39.325       30.091     1320.380     1546.484      905.497        0.269        0.189       14.671       22.127        2.275      348.502       28.245      865.769
08/28/2014  11:18:00       27.062      -10.388       21.251       30.600       47.006       36.853      936.354     2209.586     1358.127        0.290        0.225       28.987       40.839        1.985      348.015       27.404      865.764
08/28/2014  11:19:00       -5.868      -55.556       16.534       32.396       43.517       28.139     1049.470     1893.716      791.812        0.356        0.187       55.865       17.617        0.099      347.996       27.370      865.741
08/28/2014  11:20:00        6.240       26.621       63.198       34.942       48.183       30.771     1220.931     2321.598      946.829        0.461        0.224       27.343       21.265        0.605      348.687       28.566      865.730
08/28/2014  11:21:00       46.100      -55.440       48.933       54.257       65.805       41.538     2943.769     4330.351     1725.403        0.829        0.450       72.103       33.569        0.217      348.358       27.997      865.714
08/28/2014  11:22:00       55.326      -28.353       47.842       51.473       98.383       53.791     2649.461     9679.293     2893.482        1.068        0.761       62.168       61.561        0.981      348.148       27.634      865.718
08/28/2014  11:23:00       73.380      -48.101       25.908       56.983       71.171       48.759     3247.118     5065.380     2377.410        0.953        0.534       87.740       52.247        0.355      348.150       27.638      865.708
08/28/2014  11:24:00       63.081      -38.635       -3.222       56.680       37.657       15.529     3212.602     1418.079      241.144        0.518        0.244       73.972        8.916        0.015      347.542       26.585      865.710
08/28/2014  11:25:00       -1.123      -65.471       -7.175       36.836       65.966       18.636     1356.904     4351.509      347.307        0.520        0.303       65.480       25.054        0.146      347.843       27.106      865.689
08/28/2014  11:26:00       10.589      -68.407       -5.971       40.455       36.885       36.799     1636.596     1360.535     1354.177        0.459        0.218       69.221       33.130        0.229      348.172       27.674      865.680
08/28/2014  11:27:00       -1.202      -34.341       37.388       34.762       56.438       39.039     1208.373     3185.293     1524.031        0.425        0.296       34.362       33.238        0.936      348.729       28.639      865.660
08/28/2014  11:28:00       66.211      -61.894        1.266       49.840       67.776       44.594     2484.059     4593.560     1988.604        0.864        0.453       90.636       40.011        0.195      348.104       27.557      865.660
08/28/2014  11:29:00        2.620       49.565       58.179       26.232       34.755       31.799      688.098     1207.896     1011.165        0.438        0.145       49.634       23.077        0.216      348.469       28.188      865.645
08/28/2014  11:30:00        0.342       -8.503       17.893       22.271       27.393       20.911      496.010      750.361      437.266        0.104        0.084        8.510       14.599        2.943      348.642       28.487      865.635
08/28/2014  11:31:00       31.287      -44.347        6.888       51.078       38.661       30.734     2608.975     1494.666      944.596        0.402        0.252       54.273       24.408        0.202      348.262       27.828      865.628
08/28/2014  11:32:00      -34.197      -57.220        4.986       41.404       30.700       19.831     1714.250      942.473      393.285        0.376        0.153       66.660       19.549        0.086      348.080       27.516      865.608
08/28/2014  11:33:00      -23.168      -23.241       12.499       28.173       43.227       20.199      793.699     1868.585      408.002        0.215        0.154       32.817       22.640        0.476      348.420       28.106      865.604
08/28/2014  11:34:00      -31.944      -45.362        4.025       34.137       41.610       21.659     1165.309     1731.413      469.122        0.323        0.168       55.481       25.036        0.204      348.050       27.463      865.595
08/28/2014  11:35:00       89.100       44.960        8.508       85.607       71.957       39.567     7328.612     5177.820     1565.520        1.205        0.704       99.801       33.354        0.112      348.385       28.042      865.586
08/28/2014  11:36:00       89.260       82.607       22.279       63.286       38.326       43.143     4005.172     1468.864     1861.347        1.131        0.367      121.619       26.083        0.046      348.197       27.718      865.575
08/28/2014  11:37:00       94.563       91.783       -2.141       71.725       60.421       45.401     5144.446     3650.741     2061.272        1.411        0.543      131.782       42.888        0.106      348.257       27.821      865.553
08/28/2014  11:38:00      103.623       83.703       -8.305       37.252       40.435       37.259     1387.709     1634.966     1388.227        1.111        0.221      133.206       27.733        0.043      348.096       27.544      865.552
08/28/2014  11:39:00      141.776       74.568       20.864       59.556       41.676       41.867     3546.928     1736.929     1752.877        1.656        0.352      160.190       30.196        0.036      348.149       27.633      865.538
08/28/2014  11:40:00       18.772       41.307       12.079       48.638       42.223       33.595     2365.676     1782.801     1128.651        0.374        0.264       45.373       23.447        0.267      348.831       28.815      865.522
08/28/2014  11:41:00       75.943       51.314       10.937       38.423       39.005       38.097     1476.353     1521.398     1451.409        0.648        0.222       91.654       22.873        0.062      348.659       28.516      865.515
08/28/2014  11:42:00      105.343       81.899       74.433       64.786       47.624       54.406     4197.272     2268.056     2959.972        1.638        0.471      133.434       30.209        0.051      348.476       28.200      865.498
08/28/2014  11:43:00      118.183       44.983       12.992       67.786       59.030       39.229     4594.984     3484.579     1538.938        1.289        0.481      126.454       27.823        0.048      348.131       27.603      865.509
08/28/2014  11:44:00       12.900      129.714      -14.989       30.989       68.361       32.803      960.305     4673.278     1076.034        1.196        0.335      130.354       32.192        0.061      348.415       28.094      865.502
08/28/2014  11:45:00        9.546       60.992       15.704       32.073       43.585       34.975     1028.707     1899.685     1223.228        0.410        0.208       61.734       28.989        0.221      348.940       29.004      865.496
08/28/2014  11:46:00       67.361      106.100        0.378       45.209       39.528       38.483     2043.844     1562.467     1480.935        1.044        0.254      125.677       30.082        0.057      348.442       28.141      865.493
08/28/2014  11:47:00      112.324       57.464       32.415       56.688       69.312       56.043     3213.551     4804.105     3140.783        1.406        0.558      126.170       23.949        0.036      348.283       27.865      865.485
08/28/2014  11:48:00       33.079       11.179       37.431       45.638       77.912       47.865     2082.808     6070.296     2291.104        0.653        0.522       34.917       44.748        1.642      348.479       28.206      865.483
08/28/2014  11:49:00        5.149       20.035       43.525       39.956       43.841       31.338     1596.480     1922.055      982.100        0.341        0.225       20.686       12.449        0.362      349.130       29.331      865.463
08/28/2014  11:50:00      -29.113       18.317      -14.445       33.945       51.866       28.064     1152.233     2690.064      787.572        0.301        0.231       34.396       23.265        0.457      348.514       28.265      865.452
08/28/2014  11:51:00      -17.291      -61.169       12.276       48.915       47.979       44.358     2392.683     2302.027     1967.590        0.543        0.333       63.566       12.457        0.038      348.704       28.596      865.421
08/28/2014  11:52:00      -32.155      -28.949       -7.202       39.915       29.904       21.132     1593.211      894.236      446.544        0.243        0.147       43.266        6.472        0.022      348.885       28.908      865.415
08/28/2014  11:53:00       -0.379       -4.818        4.526       33.397       46.593       34.602     1115.388     2170.917     1197.266        0.226        0.224        4.833       31.079       41.355      349.264       29.566      865.389
08/28/2014  11:54:00       10.447      -80.267      -21.889       39.070       35.341       33.690     1526.458     1248.985     1135.040        0.547        0.196       80.944       24.996        0.095      348.501       28.243      865.382
08/28/2014  11:55:00       -5.750      -41.056        6.006       35.060       47.971       31.990     1229.182     2301.244     1023.336        0.315        0.228       41.457       31.786        0.588      349.104       29.286      865.376
08/28/2014  11:56:00       13.299      -65.366       43.190       43.654       69.325       44.176     1905.708     4805.954     1951.485        0.749        0.433       66.705       21.216        0.101      349.081       29.247      865.345
08/28/2014  11:57:00       56.538     -135.697      -31.154       48.568       49.019       34.053     2358.843     2402.815     1159.623        1.425        0.296      147.004       21.078        0.021      348.445       28.145      865.339
08/28/2014  11:58:00       11.756      -89.972        4.813       52.954       83.382       45.483     2804.144     6952.549     2068.709        1.004        0.591       90.737       49.543        0.298      348.739       28.655      865.316
08/28/2014  11:59:00       35.964      -12.263       30.018       56.981       44.353       27.543     3246.879     1967.187      758.644        0.416        0.299       37.997       35.599        0.878      349.178       29.417      865.307
08/28/2014  12:00:00      -25.473      -13.179       12.297       27.781       35.537       22.378      771.805     1262.860      500.783        0.175        0.127       28.681       23.107        0.649      349.083       29.252      865.299
08/28/2014  12:01:00       29.322       47.708       22.566       42.370       35.466       27.121     1795.189     1257.810      735.573        0.372        0.189       55.999       20.481        0.134      349.349       29.712      865.287
08/28/2014  12:02:00      135.501       90.424       12.186       74.466       40.927       38.511     5545.158     1674.997     1483.111        1.769        0.435      162.902       19.241        0.014      348.440       28.136      865.269
08/28/2014  12:03:00       89.019       73.497        1.608       72.906       50.549       41.184     5315.255     2555.208     1696.085        1.145        0.478      115.439       37.366        0.105      348.421       28.105      865.266
08/28/2014  12:04:00       70.786       57.662       10.279       59.283       34.243       35.723     3514.462     1172.609     1276.123        0.720        0.298       91.299       22.936        0.063      348.790       28.743      865.234
08/28/2014  12:05:00       90.998       73.401        7.797       43.243       37.756       24.236     1869.976     1425.496      587.397        0.881        0.194      116.912       13.867        0.014      348.326       27.940      865.226
08/28/2014  12:06:00       47.321       52.568       11.036       39.166       23.990       27.005     1533.968      575.542      729.253        0.398        0.142       70.730       27.605        0.152      348.574       28.369      865.204
08/28/2014  12:07:00       55.665       33.431       16.044       39.805       33.993       28.221     1584.477     1155.493      796.426        0.400        0.177       64.932       21.532        0.110      348.637       28.479      865.183
08/28/2014  12:08:00      125.909       89.861       23.788       44.244       33.116       33.354     1957.498     1096.652     1112.500        1.433        0.208      154.687       26.296        0.029      348.366       28.010      865.161
08/28/2014  12:09:00      109.509       72.701        6.709       32.700       33.170       28.828     1069.313     1100.218      831.049        1.016        0.150      131.444       19.393        0.022      348.398       28.064      865.153
08/28/2014  12:10:00       34.414       49.027      -12.217       15.707       31.255       14.661      246.724      976.857      214.954        0.259        0.072       59.900       13.362        0.050      348.380       28.034      865.139
08/28/2014  12:11:00       31.661       59.504       53.307       54.793       36.622       38.355     3002.267     1341.206     1471.070        0.660        0.291       67.403       21.114        0.098      348.800       28.760      865.122
08/28/2014  12:12:00       18.323       31.448       42.846       46.860       46.008       28.317     2195.851     2116.755      801.847        0.414        0.256       36.396       26.032        0.512      348.934       28.994      865.109
08/28/2014  12:13:00       39.700      -35.335       20.055       60.509       43.933       27.975     3661.351     1930.106      782.607        0.480        0.319       53.148       33.177        0.390      348.730       28.640      865.093
08/28/2014  12:14:00      -27.113      -15.017       -7.915       23.401       21.480       19.949      547.611      461.408      397.943        0.121        0.070       30.994       15.620        0.254      348.567       28.357      865.079
08/28/2014  12:15:00      -46.588        6.933       15.409       38.946       29.691       21.941     1516.826      881.530      481.389        0.267        0.144       47.101       22.249        0.223      349.151       29.369      865.047
08/28/2014  12:16:00       27.738       14.006       31.828       59.431       35.499       27.384     3532.023     1260.201      749.907        0.376        0.277       31.073       28.866        0.863      349.613       30.171      865.053
08/28/2014  12:17:00      171.125      100.915       10.530       66.880       45.656       49.743     4472.974     2084.511     2474.319        2.430        0.452      198.665       36.667        0.034      348.529       28.288      865.027
08/28/2014  12:18:00       11.531       45.724       -5.859       32.895       61.099       30.121     1082.053     3733.126      907.299        0.399        0.286       47.155       28.196        0.358      349.012       29.129      865.024
08/28/2014  12:19:00       98.339       41.927        9.270       56.591       35.671       32.084     3202.574     1272.407     1029.398        0.851        0.275      106.904       25.956        0.059      348.608       28.429      864.995
08/28/2014  12:20:00      107.195      101.565       -1.778       61.095       47.320       37.282     3732.568     2239.204     1389.973        1.458        0.368      147.669       21.769        0.022      348.517       28.268      864.971
08/28/2014  12:21:00       74.301       52.574      -18.400       31.740       26.265       24.249     1007.411      689.841      588.012        0.545        0.114       91.020       19.893        0.048      348.452       28.157      864.957
08/28/2014  12:22:00      -10.619        0.214      -22.915       25.133       24.952       14.349      631.664      622.581      205.888        0.105        0.073       10.621       11.108        1.094      348.699       28.587      864.945
08/28/2014  12:23:00      -81.672       51.161       -7.919       49.130       26.095       24.680     2413.723      680.923      609.078        0.653        0.185       96.373       24.541        0.065      348.652       28.504      864.925
08/28/2014  12:24:00     -118.715        8.379      -10.136       15.702       28.717       10.843      246.554      824.638      117.563        0.773        0.059      119.010       12.484        0.011      348.274       27.849      864.916
08/28/2014  12:25:00      -78.995      -41.731       -6.797       23.504       13.440       14.748      552.429      180.635      217.507        0.449        0.048       89.340       11.503        0.017      348.515       28.268      864.902
08/28/2014  12:26:00      -54.544      -77.579       -8.343       29.265       20.259       18.602      856.459      410.424      346.036        0.534        0.081       94.835       16.067        0.029      348.425       28.111      864.881
08/28/2014  12:27:00      -34.860     -121.447      -13.417       25.620       31.440       18.941      656.404      988.444      358.754        0.907        0.100      126.351       13.226        0.011      348.500       28.241      864.878
08/28/2014  12:28:00       25.536      -92.911        5.909       26.295       54.814       18.522      691.445     3004.601      343.064        0.668        0.202       96.356       18.717        0.038      348.585       28.389      864.870
08/28/2014  12:29:00     -127.352       17.919        1.838       74.159       44.611       33.273     5499.585     1990.104     1107.125        1.257        0.430      128.607       35.274        0.075      348.950       29.020      864.864
08/28/2014  12:30:00      -85.374      -30.485       -2.568       60.288       23.317       25.216     3634.640      543.681      635.842        0.652        0.241       90.654       34.859        0.148      348.701       28.592      864.843
08/28/2014  12:31:00      -11.367      -41.580        6.396       42.670       39.061       19.247     1820.754     1525.745      370.442        0.281        0.186       43.106       20.282        0.221      348.713       28.610      864.823
08/28/2014  12:32:00      -26.082        7.716       13.553       57.943       32.994       28.647     3357.421     1088.637      820.654        0.309        0.263       27.199       31.017        1.300      349.428       29.850      864.805
08/28/2014  12:33:00     -127.898      -80.074       -5.880       55.800       53.365       28.497     3113.630     2847.777      812.101        1.479        0.339      150.896       23.035        0.023      348.917       28.963      864.796
08/28/2014  12:34:00      -85.833      -48.136        8.058       71.901       59.132       28.154     5169.766     3496.582      792.653        0.960        0.473       98.409       36.407        0.137      349.089       29.263      864.778
08/28/2014  12:35:00      -39.971       -2.816        8.238       38.715       38.844       27.554     1498.864     1508.832      759.203        0.272        0.188       40.070       18.606        0.216      349.366       29.743      864.760
08/28/2014  12:36:00        4.628      -65.996      -12.055       40.395       42.695       30.713     1631.763     1822.851      943.310        0.446        0.220       66.158       20.403        0.095      348.855       28.855      864.746
08/28/2014  12:37:00       -2.085      -47.994       -2.970       42.209       33.236       20.701     1781.564     1104.647      428.531        0.282        0.166       48.040       16.916        0.124      348.932       28.989      864.739
08/28/2014  12:38:00       11.348       25.993       17.616       45.708       30.431       27.300     2089.242      926.029      745.265        0.244        0.188       28.362       23.007        0.658      349.238       29.519      864.728
08/28/2014  12:39:00       90.580      -19.298       27.687      123.107       70.080       53.472    15155.280     4911.174     2859.299        1.613        1.146       92.613       53.286        0.331      349.233       29.509      864.695
08/28/2014  12:40:00      136.712       92.162       95.004       87.545       93.018       68.489     7664.137     8652.346     4690.791        2.860        1.050      164.876       63.137        0.147      348.808       28.771      864.665
08/28/2014  12:41:00       57.544       96.642      116.398       78.623       78.811       59.304     6181.529     6211.119     3516.959        2.105        0.795      112.477       61.910        0.303      348.783       28.730      864.655
08/28/2014  12:42:00      127.048       75.318       42.672       94.211       53.593       49.294     8875.711     2872.186     2429.945        1.890        0.709      147.696       37.744        0.065      348.920       28.968      864.651
08/28/2014  12:43:00      -26.512       19.614       34.402       42.296       31.586       21.749     1788.967      997.654      473.021        0.276        0.163       32.979       18.501        0.315      349.631       30.201      864.636
08/28/2014  12:44:00        0.001      -69.725       10.793       47.040       58.938       34.912     2212.765     3473.675     1218.857        0.594        0.345       69.725       37.372        0.287      349.313       29.648      864.626
08/28/2014  12:45:00       40.157      -64.124       19.625       33.142       35.393       33.649     1098.385     1252.698     1132.272        0.480        0.174       75.660       19.335        0.065      349.046       29.188      864.609
08/28/2014  12:46:00       38.865      -37.798       24.074       30.282       31.259       20.630      917.008      977.155      425.608        0.292        0.116       54.214       20.639        0.145      349.139       29.347      864.603
08/28/2014  12:47:00       16.207       18.471       -7.187       17.375       32.337       30.313      301.894     1045.692      918.854        0.146        0.113       24.574        8.528        0.120      349.185       29.428      864.580
08/28/2014  12:48:00       -3.522      -35.524       -9.899       20.098       30.719       23.243      403.940      943.664      540.257        0.163        0.094       35.698       12.285        0.118      349.105       29.290      864.566
08/28/2014  12:49:00       -5.100      -99.341        3.643       22.332       29.553       18.611      498.739      873.353      346.386        0.581        0.086       99.472       14.968        0.023      348.801       28.763      864.545
08/28/2014  12:50:00      -22.624      -15.832        2.294       45.128       46.461       26.783     2036.573     2158.627      717.323        0.284        0.246       27.613       22.534        0.666      349.072       29.232      864.515
08/28/2014  12:51:00        4.844      -88.317       11.508       88.408       54.473       38.636     7815.922     2967.283     1492.740        1.011        0.614       88.450       41.204        0.217      348.874       28.889      864.512
08/28/2014  12:52:00       24.366      -18.714       15.074       21.198       32.138       18.424      449.345     1032.869      339.441        0.150        0.091       30.723        9.760        0.101      349.275       29.585      864.495
08/28/2014  12:53:00        4.531       33.029       10.064       23.918       36.147       26.153      572.084     1306.626      683.999        0.189        0.128       33.338       22.644        0.461      349.551       30.062      864.481
08/28/2014  12:54:00       34.347       68.012        6.124       23.951       61.187       34.801      573.656     3743.859     1211.127        0.568        0.276       76.193       38.041        0.249      349.279       29.591      864.482
08/28/2014  12:55:00      -10.877       -5.194       13.620       20.225       21.467       19.056      409.048      460.852      363.147        0.078        0.062       12.054       17.246        2.047      349.922       30.707      864.463
08/28/2014  12:56:00      -10.710       -6.701       12.376       38.063       26.413       19.048     1448.814      697.634      362.837        0.141        0.125       12.634        6.871        0.296      349.870       30.616      864.436
08/28/2014  12:57:00       44.042       13.184       21.568       41.168       45.175       34.973     1694.786     2040.803     1223.081        0.377        0.248       45.973       27.592        0.360      349.515       30.000      864.431
08/28/2014  12:58:00       69.759       81.462       67.145       63.919       85.474       58.079     4085.576     7305.851     3373.149        1.538        0.738      107.249       45.675        0.181      349.480       29.938      864.401
08/28/2014  12:59:00       85.676       84.228       76.613       98.338       57.530       49.956     9670.386     3309.709     2495.578        1.789        0.774      120.144       48.675        0.164      349.551       30.062      864.375
08/28/2014  13:00:00       63.038       36.354       60.965       60.608       91.382       50.654     3673.380     8350.619     2565.850        1.180        0.729       72.769       53.963        0.550      349.730       30.372      864.356
08/28/2014  13:01:00       28.962      -33.251       22.035       58.558       61.587       43.850     3429.067     3792.956     1922.853        0.579        0.457       44.096       45.262        1.054      349.579       30.110      864.338
08/28/2014  13:02:00      104.974     -135.353       -5.336       75.928       59.491       41.340     5765.098     3539.229     1709.024        2.019        0.551      171.290       41.529        0.059      349.254       29.546      864.322
08/28/2014  13:03:00       51.957      -13.459       70.813       70.160      120.306       60.759     4922.392    14473.553     3691.611        1.549        1.154       53.672       80.939        2.274      349.872       30.617      864.290
08/28/2014  13:04:00       38.346      -14.117       21.439       70.657       89.858       50.869     4992.370     8074.530     2587.695        0.889        0.783       40.862       44.099        1.165      349.905       30.677      864.274
08/28/2014  13:05:00       45.512      -35.444       35.783       64.034       76.516       56.451     4100.327     5854.733     3186.688        0.887        0.657       57.686       36.750        0.406      349.875       30.625      864.256
08/28/2014  13:06:00       97.980      -46.587       65.858       95.117      141.149       89.540     9047.315    19923.078     8017.351        2.654        1.849      108.492       95.339        0.772      349.732       30.375      864.238
08/28/2014  13:07:00       32.157       75.891      115.457       53.988      102.333       65.936     2914.742    10472.123     4347.585        1.893        0.887       82.423       71.747        0.758      349.732       30.376      864.250
08/28/2014  13:08:00        4.644      -57.867       63.451       61.771      115.441       58.104     3815.649    13326.719     3376.036        1.395        1.026       58.053       59.162        1.039      349.934       30.725      864.231
08/28/2014  13:09:00       83.262      -61.062       35.224       81.088      128.551       70.190     6575.224    16525.235     4926.704        1.996        1.401      103.253       83.731        0.658      349.729       30.367      864.220
08/28/2014  13:10:00       83.395     -113.661      -13.598       52.466       44.528       36.416     2752.717     1982.718     1326.101        1.306        0.303      140.974       27.312        0.038      349.118       29.310      864.237
08/28/2014  13:11:00       16.455      -48.226       25.065       40.104       60.084       31.118     1608.352     3610.059      968.313        0.470        0.309       50.956       28.541        0.314      349.903       30.673      864.212
08/28/2014  13:12:00        0.172      -11.460       31.326       42.411       71.697       35.032     1798.655     5140.481     1227.214        0.464        0.408       11.461       24.641        4.622      350.078       30.978      864.178
08/28/2014  13:13:00       39.782       57.133       35.662       59.812       48.816       43.436     3577.431     2383.023     1886.656        0.698        0.392       69.619       38.473        0.305      349.594       30.136      864.145
08/28/2014  13:14:00       52.255       34.985        6.915       50.469       40.296       36.675     2547.104     1623.740     1345.090        0.476        0.276       62.885       28.248        0.202      349.700       30.322      864.132
08/28/2014  13:15:00        1.395       17.091       28.405       30.093       36.391       33.968      905.594     1324.308     1153.792        0.224        0.169       17.147        9.247        0.291      349.966       30.782      864.128
08/28/2014  13:16:00       24.383       53.132       50.360       43.246       41.819       41.270     1870.215     1748.823     1703.172        0.564        0.266       58.459       22.924        0.154      349.768       30.439      864.110
08/28/2014  13:17:00       48.679      -65.404       22.603       75.013       75.823       49.590     5626.944     5749.136     2459.176        1.049        0.692       81.531       43.290        0.282      349.765       30.433      864.085
08/28/2014  13:18:00       55.395      -16.865       45.229       77.976       68.774       45.570     6080.233     4729.845     2076.654        0.914        0.644       57.905       38.565        0.444      349.978       30.802      864.074
08/28/2014  13:19:00       69.599      -61.187       20.759       70.584       68.792       46.196     4982.103     4732.287     2134.036        1.043        0.592       92.671       51.709        0.311      349.857       30.593      864.082
08/28/2014  13:20:00      156.152     -168.084      -33.399       77.295      108.909       51.435     5974.542    11861.172     2645.548        3.711        1.024      229.425       57.269        0.062      349.402       29.802      864.076
08/28/2014  13:21:00       65.391     -142.662       -9.045       63.549       67.847       37.456     4038.436     4603.175     1402.915        1.738        0.502      156.934       31.211        0.040      349.218       29.483      864.073
08/28/2014  13:22:00      -13.303      -13.392       12.907       36.790       45.994       27.060     1353.514     2115.462      732.243        0.236        0.210       18.876       24.247        1.650      350.015       30.868      864.043
08/28/2014  13:23:00       47.717      -53.354       24.065       89.246       92.877       60.891     7964.776     8626.177     3707.708        1.300        1.015       71.579       68.853        0.925      349.870       30.615      864.021
08/28/2014  13:24:00      125.179     -124.752      -31.269       89.335      108.337       58.269     7980.709    11736.828     3395.301        2.766        1.156      176.728       72.886        0.170      349.580       30.111      864.007
08/28/2014  13:25:00       69.141     -102.687       -9.453       72.003       77.534       51.378     5184.362     6011.449     2639.707        1.462        0.692      123.795       43.278        0.122      349.504       29.980      863.996
08/28/2014  13:26:00       41.609      -32.286       37.333       51.274       89.703       47.070     2629.006     8046.651     2215.580        0.853        0.645       52.666       44.739        0.722      349.855       30.590      863.977
08/28/2014  13:27:00       69.536      -48.331       25.393       49.440       61.429       43.513     2444.305     3773.560     1893.396        0.796        0.406       84.683       32.364        0.146      349.488       29.952      863.957
08/28/2014  13:28:00       73.515       23.039       62.096       80.340       73.639       59.803     6454.523     5422.710     3576.429        1.262        0.773       77.040       64.332        0.697      349.745       30.398      863.925
08/28/2014  13:29:00       48.453        6.367       55.192       69.693       88.094       56.813     4857.172     7760.505     3227.693        1.064        0.792       48.869       50.621        1.073      349.841       30.565      863.902
08/28/2014  13:30:00      110.598       74.745       27.727       64.841       47.930       39.006     4204.311     2297.281     1521.483        1.330        0.401      133.487       28.530        0.046      349.523       30.012      863.893
08/28/2014  13:31:00       32.781       72.257       96.388       51.216       49.482       39.122     2623.049     2448.473     1530.510        1.109        0.330       79.345       25.618        0.104      350.049       30.927      863.877
08/28/2014  13:32:00       79.146       70.332       37.013       63.212       52.161       50.402     3995.771     2720.814     2540.397        1.092        0.463      105.881       24.923        0.055      349.775       30.451      863.867
08/28/2014  13:33:00      100.138       51.693        3.243      108.900       69.543       59.686    11859.198     4836.279     3562.372        1.648        1.013      112.693       31.033        0.076      349.781       30.459      863.846
08/28/2014  13:34:00      134.240       77.078       20.179       86.506       79.868       40.208     7483.374     6378.922     1616.672        1.992        0.774      154.795       32.481        0.044      349.517       30.001      863.845
08/28/2014  13:35:00       30.735       56.046        4.533       50.127       47.210       31.419     2512.720     2228.823      987.167        0.492        0.286       63.921       24.966        0.153      349.567       30.089      863.833
08/28/2014  13:36:00       -8.210       46.553        5.230       18.429       37.607       21.033      339.633     1414.306      442.372        0.223        0.110       47.271       22.047        0.218      349.927       30.716      863.812
08/28/2014  13:37:00        6.256       21.088       15.359       23.880       31.530       24.414      570.237      994.156      596.058        0.144        0.108       21.997       17.235        0.614      350.247       31.271      863.797
08/28/2014  13:38:00       24.408       -2.655       10.250       20.419       29.888       22.364      416.931      893.317      500.146        0.126        0.091       24.552        9.301        0.144      349.976       30.801      863.790
08/28/2014  13:39:00       17.821      -71.672       -0.483       31.752       37.042       26.375     1008.202     1372.087      695.626        0.426        0.154       73.854       20.232        0.075      349.494       29.963      863.777
08/28/2014  13:40:00       53.101       68.076       67.234       47.037       45.456       40.047     2212.518     2066.283     1603.770        0.893        0.294       86.337       20.051        0.054      350.189       31.170      863.748
08/28/2014  13:41:00       29.718       20.121       78.177       45.994       55.848       37.587     2115.420     3119.015     1412.761        0.702        0.332       35.889       15.142        0.178      350.357       31.462      863.744
08/28/2014  13:42:00       34.693        2.035        6.235       32.702       23.114       19.271     1069.434      534.257      371.375        0.161        0.099       34.752       11.272        0.105      349.596       30.140      863.738
08/28/2014  13:43:00       83.170     -117.558       -7.008       74.332       91.848       31.346     5525.319     8436.105      982.548        1.786        0.747      144.004       26.138        0.033      349.709       30.336      863.725
08/28/2014  13:44:00      100.595     -202.190      -19.602       60.602       67.079       40.178     3672.565     4499.563     1614.274        3.058        0.489      225.832       30.827        0.019      349.714       30.340      863.695
08/28/2014  13:45:00      108.564     -238.856      -20.360       78.176       69.227       50.249     6111.487     4792.336     2524.975        4.134        0.671      262.371       39.144        0.022      349.684       30.288      863.698
08/28/2014  13:46:00     -114.607     -163.639      -21.568       64.036       64.964       28.666     4100.667     4220.382      821.753        2.476        0.457      199.781       19.772        0.010      349.205       29.459      863.713
08/28/2014  13:47:00     -163.393      -64.572      -13.548       46.413       31.515       23.265     2154.210      993.176      541.254        1.737        0.184      175.690       21.359        0.015      349.331       29.680      863.679
08/28/2014  13:48:00      -40.057      -32.090       13.418       40.051       37.873       26.962     1604.096     1434.366      726.965        0.329        0.188       51.326       23.945        0.218      349.829       30.546      863.653
08/28/2014  13:49:00        8.799       39.013       23.278       45.647       31.974       25.504     2083.646     1022.325      650.452        0.295        0.188       39.993       18.561        0.215      350.199       31.187      863.623
08/28/2014  13:50:00       -6.936       45.224       16.801       26.086       33.746       26.048      680.457     1138.794      678.476        0.244        0.125       45.752       16.131        0.124      350.080       30.980      863.609
08/28/2014  13:51:00       48.047       30.074       12.275       31.181       20.012       33.836      972.255      400.495     1144.871        0.294        0.126       56.683       18.513        0.107      349.937       30.732      863.588
08/28/2014  13:52:00       79.282       70.101       10.796       88.664       54.361       44.582     7861.277     2955.168     1987.587        1.206        0.640      105.829       27.822        0.069      350.115       31.041      863.568
08/28/2014  13:53:00      110.512       84.290        7.829       68.818       54.181       55.515     4735.950     2935.622     3081.865        1.506        0.538      138.989       32.950        0.056      350.119       31.046      863.543
08/28/2014  13:54:00       39.686      -54.062      -22.273       37.880       88.593       34.992     1434.889     7848.702     1224.453        0.775        0.525       67.065       23.716        0.125      350.288       31.341      863.536
08/28/2014  13:55:00      204.889     -232.794      -27.853      105.172      113.834       54.149    11061.121    12958.089     2932.095        6.194        1.348      310.118       61.422        0.039      349.776       30.450      863.523
08/28/2014  13:56:00      157.432     -178.562      -21.662      135.580      124.986       76.705    18382.039    15621.540     5883.636        4.850        1.994      238.053       67.001        0.079      349.880       30.630      863.508
08/28/2014  13:57:00       17.822     -171.818      -12.441       92.060       79.103       72.408     8474.960     6257.349     5242.908        2.498        0.999      172.740       66.311        0.147      349.962       30.774      863.518
08/28/2014  13:58:00       57.037      -74.033       34.256       96.611       97.358       57.197     9333.718     9478.631     3271.450        1.599        1.104       93.456       63.702        0.465      350.121       31.051      863.527
08/28/2014  13:59:00       55.237     -149.148      -27.115       56.409       84.750       36.163     3182.029     7182.510     1307.777        1.885        0.584      159.048       34.048        0.046      349.700       30.318      863.533
08/28/2014  14:00:00      -23.819       29.677       30.365       41.723       43.686       35.197     1740.805     1908.480     1238.828        0.363        0.244       38.054       31.135        0.669      350.330       31.414      863.516
08/28/2014  14:01:00      -40.220      -27.720        7.093       91.879       50.452       38.043     8441.792     2545.400     1447.297        0.743        0.622       48.848       28.951        0.351      350.155       31.109      863.496
08/28/2014  14:02:00       40.817      -96.872       -9.548       53.254       66.876       32.881     2835.943     4472.431     1081.129        0.976        0.419      105.120       35.786        0.116      350.033       30.899      863.490
08/28/2014  14:03:00       35.678      -59.374       16.091       68.263       53.196       41.385     4659.880     2829.823     1712.683        0.713        0.460       69.269       37.231        0.289      350.042       30.915      863.481
08/28/2014  14:04:00       84.380       41.814       72.063       66.056       67.654       48.053     4363.427     4577.070     2309.055        1.265        0.562       94.172       42.121        0.200      349.764       30.431      863.469
08/28/2014  14:05:00       97.899       50.530        8.413       43.903       59.199       35.368     1927.482     3504.483     1250.914        0.944        0.334      110.170       19.955        0.033      349.547       30.056      863.445
08/28/2014  14:06:00       89.770       78.203        6.993       81.163       80.276       59.758     6587.513     6444.171     3571.008        1.541        0.830      119.056       38.011        0.102      349.780       30.458      863.396
08/28/2014  14:07:00      -65.827      -42.162       -5.345       99.701       67.971       35.974     9940.380     4620.011     1294.121        1.099        0.793       78.172       39.204        0.252      349.997       30.834      863.412
08/28/2014  14:08:00      -42.637      -64.153       25.634       86.353       49.016       42.694     7456.877     2402.556     1822.763        0.913        0.584       77.030       47.351        0.378      350.281       31.329      863.401
08/28/2014  14:09:00      -86.032      -79.872       -2.196       90.935       69.574       40.035     8269.223     4840.594     1602.824        1.425        0.736      117.393       40.300        0.118      350.105       31.022      863.388
08/28/2014  14:10:00     -169.322     -109.893       -9.555       80.040       74.020       42.355     6406.387     5478.916     1793.945        2.726        0.684      201.858       38.613        0.037      349.952       30.755      863.369
08/28/2014  14:11:00     -137.350     -109.434       -9.787       72.154       56.415       32.495     5206.170     3182.690     1055.919        2.019        0.472      175.616       38.034        0.047      349.896       30.660      863.352
08/28/2014  14:12:00      -80.307      -87.178        5.303       91.538       42.992       47.859     8379.243     1848.272     2290.474        1.330        0.626      118.530       45.755        0.149      350.205       31.197      863.340
08/28/2014  14:13:00      -84.392      -38.746       -9.278       59.336       45.239       27.194     3520.741     2046.577      739.507        0.751        0.315       92.861       23.710        0.065      349.884       30.639      863.333
08/28/2014  14:14:00     -138.362      -55.382       -5.398       76.372       35.588       25.153     5832.698     1266.475      632.654        1.498        0.387      149.034       29.249        0.039      349.765       30.434      863.299
08/28/2014  14:15:00     -151.386      -41.701      -10.948       34.083       42.062       18.442     1161.681     1769.227      340.097        1.402        0.164      157.024       11.059        0.005      349.517       30.002      863.264
08/28/2014  14:16:00      -20.045      -35.327       -1.566       40.088       28.715       23.616     1607.011      824.568      557.693        0.232        0.149       40.618       10.791        0.071      350.138       31.082      863.247
08/28/2014  14:17:00      -69.387       -1.016       -1.478       31.271       49.940       22.205      977.904     2493.958      493.044        0.439        0.198       69.394       13.624        0.039      350.301       31.364      863.240
08/28/2014  14:18:00      -68.641       16.452       -6.050       59.295       63.398       38.806     3515.918     4019.327     1505.915        0.703        0.452       70.585       24.953        0.125      350.257       31.287      863.220
08/28/2014  14:19:00      -34.798      -14.794        2.948       39.447       35.150       29.925     1556.055     1235.533      895.522        0.256        0.184       37.812       19.748        0.273      350.504       31.717      863.204
08/28/2014  14:20:00      -41.919      -31.551      -16.227       74.692       45.059       33.513     5578.961     2030.294     1123.105        0.587        0.437       52.466       27.703        0.279      350.172       31.142      863.195
08/28/2014  14:21:00      -27.406        1.247       22.862       40.212       54.137       28.104     1617.028     2930.808      789.823        0.331        0.267       27.435       23.147        0.712      350.691       32.043      863.185
08/28/2014  14:22:00       -6.191      -87.829      -15.573       73.201       46.403       24.446     5358.450     2153.204      597.599        0.805        0.405       88.047       19.207        0.048      350.280       31.328      863.175
08/28/2014  14:23:00      -35.910      -42.200       -9.407       41.270       49.876       26.613     1703.228     2487.608      708.248        0.403        0.245       55.411       21.866        0.156      350.376       31.494      863.168
08/28/2014  14:24:00       -3.976        4.087        5.214       20.003       26.590       24.488      400.118      707.048      599.662        0.088        0.085        5.702       10.119        3.150      350.787       32.209      863.153
08/28/2014  14:25:00      -36.710      -15.329        5.174       38.165       41.122       24.501     1456.581     1691.024      600.290        0.268        0.187       39.782       18.787        0.223      350.372       31.489      863.149
08/28/2014  14:26:00       26.629      -19.236       36.782       58.736       92.473       40.597     3449.974     8551.190     1648.100        0.804        0.682       32.851       47.662        2.105      350.537       31.775      863.132
08/28/2014  14:27:00      119.631     -171.355       -1.722       82.573      103.585       59.498     6818.337    10729.890     3539.985        3.238        1.054      208.984       68.911        0.109      349.991       30.822      863.111
08/28/2014  14:28:00       34.462     -138.917       -1.204       56.821       90.959       49.496     3228.599     8273.512     2449.843        1.722        0.698      143.128       45.356        0.100      350.155       31.108      863.098
08/28/2014  14:29:00       41.377      -62.628       27.897       61.888       90.751       49.361     3830.073     8235.832     2436.478        1.045        0.725       75.062       51.118        0.464      350.466       31.651      863.083
08/28/2014  14:30:00       30.238       19.900       71.190       80.532       88.840       63.919     6485.457     7892.567     4085.700        1.242        0.923       36.198       64.961        3.220      350.558       31.812      863.077
08/28/2014  14:31:00      110.780       29.473       92.404       73.137      124.861       75.631     5349.008    15590.237     5720.077        2.416        1.333      114.634       85.133        0.552      350.135       31.074      863.070
08/28/2014  14:32:00      135.790      150.862      155.733       79.349      104.948       65.395     6296.327    11014.094     4276.460        4.351        1.079      202.973       71.408        0.124      350.068       30.956      863.035
08/28/2014  14:33:00       65.886       43.677       69.747       94.908      119.054       61.734     9007.577    14173.915     3811.095        1.905        1.350       79.048       61.985        0.615      350.475       31.667      863.020
08/28/2014  14:34:00       78.999      163.902      154.585       82.210       89.258       76.696     6758.514     7966.907     5882.245        3.880        1.030      181.947       52.968        0.085      350.317       31.389      863.002
08/28/2014  14:35:00      148.661      124.349      120.772       99.564       78.841       66.882     9912.934     6215.834     4473.168        3.637        1.030      193.811       52.710        0.074      349.815       30.518      863.004
08/28/2014  14:36:00       73.180       71.477       99.839       74.732      110.578       78.068     5584.846    12227.385     6094.569        2.216        1.195      102.295       72.827        0.507      349.922       30.704      862.992
08/28/2014  14:37:00      106.141       97.749       61.030       72.989       53.217       63.965     5327.343     2832.054     4091.488        1.840        0.613      144.294       43.112        0.089      350.224       31.231      862.974
08/28/2014  14:38:00      106.750       42.439       38.720       69.336       67.706       51.940     4807.514     4584.042     2697.773        1.339        0.604      114.877       31.747        0.076      350.331       31.416      862.974
08/28/2014  14:39:00      101.203     -109.705       -3.780       61.791      107.314       51.339     3818.096    11516.191     2635.650        2.013        0.898      149.256       56.956        0.146      349.851       30.581      862.969
08/28/2014  14:40:00       38.434      -39.680        9.275       54.768       50.000       30.010     2999.524     2499.985      900.592        0.477        0.320       55.242       31.920        0.334      350.218       31.222      862.948
08/28/2014  14:41:00       47.636     -105.683        3.352       41.702       42.841       30.040     1739.049     1835.364      902.395        0.896        0.224      115.922       26.295        0.051      349.807       30.506      862.912
08/28/2014  14:42:00       40.147      -36.331       24.932       59.181      101.913       59.159     3502.437    10386.160     3499.730        1.047        0.869       54.146       59.402        1.204      350.322       31.399      862.896
08/28/2014  14:43:00       72.506       95.373       84.307       82.810       76.105       54.641     6857.498     5792.007     2985.691        1.854        0.782      119.804       36.730        0.094      350.047       30.921      862.902
08/28/2014  14:44:00       73.864       53.195       14.061       60.093       62.620       45.931     3611.159     3921.253     2109.701        0.906        0.482       91.025       35.053        0.148      350.201       31.191      862.895
08/28/2014  14:45:00      126.512       79.380       22.746       66.642       65.117       37.106     4441.187     4240.168     1376.872        1.644        0.503      149.353       19.305        0.017      350.170       31.134      862.873
08/28/2014  14:46:00      144.456       83.877       16.725       46.395       52.975       44.865     2152.511     2806.363     2012.863        1.758        0.349      167.041       24.698        0.022      350.074       30.969      862.847
08/28/2014  14:47:00       80.968       59.628       54.557       64.190       47.009       39.333     4120.307     2209.881     1547.112        1.048        0.394      100.555       27.335        0.074      350.322       31.400      862.843
08/28/2014  14:48:00       67.915       53.233       17.999       42.463       34.747       32.219     1803.090     1207.353     1038.095        0.591        0.202       86.292       21.560        0.062      350.310       31.381      862.852
08/28/2014  14:49:00       43.597        4.933       15.931       34.445       46.217       26.934     1186.472     2136.054      725.437        0.311        0.202       43.875       15.395        0.123      350.197       31.184      862.837
08/28/2014  14:50:00      134.855        7.342        9.886       49.597       71.747       32.765     2459.894     5147.647     1073.519        1.351        0.434      135.054       22.765        0.028      349.961       30.775      862.820
08/28/2014  14:51:00       44.349       17.770        1.247       34.348       37.700       30.990     1179.791     1421.268      960.370        0.292        0.178       47.777       18.442        0.149      350.214       31.211      862.773
08/28/2014  14:52:00       71.505      -55.437       32.268       74.621       70.277       45.183     5568.285     4938.909     2041.459        1.089        0.627       90.478       37.648        0.173      350.370       31.484      862.739
08/28/2014  14:53:00       22.696       23.971       54.477       60.306       52.071       35.395     3636.793     2711.434     1252.819        0.583        0.380       33.011       25.074        0.577      350.934       32.467      862.720
08/28/2014  14:54:00       74.457       44.720       52.707       84.941       64.083       44.850     7215.009     4106.588     2011.533        1.182        0.667       86.855       32.052        0.136      350.435       31.596      862.722
08/28/2014  14:55:00       22.343      -79.389        5.180       38.521       52.304       40.690     1483.863     2735.660     1655.693        0.635        0.294       82.474       25.974        0.099      350.494       31.701      862.717
08/28/2014  14:56:00       68.221       -9.745       43.762       51.177       39.827       45.841     2619.132     1586.191     2101.374        0.648        0.315       68.913       30.700        0.198      350.275       31.318      862.718
08/28/2014  14:57:00       32.915      -52.168       15.193       44.026       41.262       19.669     1938.301     1702.570      386.867        0.403        0.201       61.683       10.638        0.030      350.227       31.236      862.683
08/28/2014  14:58:00      131.854       80.891       57.458      105.623       77.177       55.119    11156.224     5956.342     3038.093        2.369        1.008      154.690       27.368        0.031      350.354       31.454      862.661
08/28/2014  14:59:00       34.857      -50.475       11.251       99.988      148.285       88.953     9997.565    21988.468     7912.719        2.189        1.995       61.341       97.603        2.532      350.669       32.003      862.644
08/28/2014  15:00:00      -32.293      -68.376       14.541      136.557       87.468       63.011    18647.941     7650.642     3970.397        1.809        1.513       75.618       60.662        0.644      350.516       31.738      862.660
08/28/2014  15:01:00      180.341     -232.482      -12.248       99.656      164.073       91.399     9931.379    26920.014     8353.854        6.595        2.260      294.228      102.060        0.120      350.114       31.035      862.634
08/28/2014  15:02:00       73.058     -186.013      -30.433       93.089      103.610       46.963     8665.577    10735.032     2205.516        3.123        1.080      199.846       44.983        0.051      350.180       31.152      862.645
08/28/2014  15:03:00       35.145      -48.910       -3.189       36.621       54.875       37.181     1341.123     3011.284     1382.440        0.469        0.287       60.227       25.723        0.182      350.288       31.341      862.626
08/28/2014  15:04:00       45.800      -15.800        8.095       33.204       42.344       28.211     1102.478     1792.978      795.848        0.305        0.185       48.449       22.676        0.219      350.140       31.084      862.610
08/28/2014  15:05:00     -107.838     -141.795      -20.237       41.085       46.489       29.754     1688.004     2161.255      885.287        1.844        0.237      178.143       17.926        0.010      349.999       30.838      862.585
08/28/2014  15:06:00      -78.569       -9.895        7.940       63.632       46.052       29.888     4048.970     2120.765      893.278        0.670        0.353       79.190       28.108        0.126      350.328       31.411      862.567
08/28/2014  15:07:00       77.111     -100.185       -4.105       43.405       51.827       27.482     1883.959     2686.054      755.279        1.066        0.266      126.424       27.013        0.046      350.167       31.133      862.558
08/28/2014  15:08:00       93.954      -71.536       22.624       89.808      113.737       69.263     8065.495    12936.174     4797.360        2.012        1.290      118.088       81.273        0.474      350.528       31.757      862.546
08/28/2014  15:09:00       69.456       37.112       98.029       85.342       94.662       70.835     7283.179     8960.918     5017.604        1.853        1.063       78.750       80.148        1.036      350.466       31.650      862.526
08/28/2014  15:10:00       29.996      -64.264        7.690       49.175       55.640       45.431     2418.176     3095.855     2063.936        0.633        0.379       70.920       29.575        0.174      350.726       32.104      862.534
08/28/2014  15:11:00       18.987       21.193       27.419       32.774       54.463       43.023     1074.118     2966.230     1850.987        0.373        0.295       28.454       39.508        1.928      350.494       31.700      862.538
08/28/2014  15:12:00       20.629      -18.498       38.292       31.650       40.037       22.957     1001.744     1602.952      527.036        0.268        0.157       27.708       14.395        0.270      351.269       33.049      862.526
08/28/2014  15:13:00       -7.465      -54.985       -3.916       64.885      102.310       45.432     4210.113    10467.262     2064.082        0.991        0.837       55.490       51.477        0.861      350.605       31.893      862.521
08/28/2014  15:14:00     -115.588     -102.373      -19.399       70.492       71.077       40.222     4969.167     5051.943     1617.849        1.793        0.582      154.405       39.279        0.065      350.279       31.326      862.507
08/28/2014  15:15:00     -124.086     -106.541       -8.961       65.848       43.166       36.449     4335.998     1863.282     1328.501        1.718        0.376      163.549       32.096        0.039      350.226       31.232      862.485
08/28/2014  15:16:00     -104.150     -187.374       -1.603       79.047       88.379       58.000     6248.483     7810.837     3363.977        3.169        0.871      214.374       47.225        0.049      350.241       31.255      862.477
08/28/2014  15:17:00     -127.607     -220.150       -9.563       77.855       70.581       49.795     6061.328     4981.610     2479.571        3.918        0.676      254.459       42.076        0.027      350.053       30.930      862.483
08/28/2014  15:18:00     -124.272     -210.643      -10.768       65.208       61.900       35.668     4252.096     3831.658     1272.180        3.464        0.468      244.570       27.305        0.012      350.042       30.910      862.472
08/28/2014  15:19:00     -114.620     -105.518      -11.425       83.032       65.264       53.318     6894.365     4259.357     2842.835        1.920        0.700      155.795       45.822        0.087      350.260       31.293      862.459
08/28/2014  15:20:00      -47.731     -109.395       20.453       65.810       78.674       38.183     4330.978     6189.635     1457.970        1.332        0.599      119.354       35.243        0.087      350.371       31.486      862.440
08/28/2014  15:21:00     -173.544     -116.308       -8.460       70.920       56.380       40.736     5029.611     3178.704     1659.426        2.679        0.493      208.914       39.428        0.036      350.263       31.295      862.436
08/28/2014  15:22:00     -192.466      -70.663      -18.443       46.647       49.118       27.918     2175.967     2412.585      779.390        2.387        0.268      205.028       18.801        0.008      350.106       31.026      862.427
08/28/2014  15:23:00     -155.706      -40.337      -10.356       56.414       65.051       28.774     3182.586     4231.690      827.962        1.711        0.412      160.846       24.785        0.024      350.282       31.330      862.414
08/28/2014  15:24:00     -110.415      -11.588      -13.616       26.711       32.793       20.694      713.455     1075.409      428.223        0.736        0.111      111.022       13.264        0.014      350.263       31.298      862.403
08/28/2014  15:25:00     -130.112       13.803      -16.003       42.434       28.218       25.067     1800.609      796.258      628.364        1.030        0.161      130.842        9.798        0.006      350.384       31.508      862.392
08/28/2014  15:26:00        3.735       36.929        2.103       35.519       49.570       33.567     1261.600     2457.215     1126.775        0.311        0.242       37.117       26.508        0.510      350.341       31.434      862.389
08/28/2014  15:27:00      -35.072       -3.921       -1.602       31.053       23.758       34.845      964.304      564.464     1214.163        0.199        0.137       35.290       28.255        0.641      350.640       31.956      862.355
08/28/2014  15:28:00      -37.207      -64.633      -18.131       46.125       61.216       42.073     2127.483     3747.452     1770.104        0.677        0.382       74.577       41.158        0.305      350.422       31.575      862.326
08/28/2014  15:29:00       -2.051       -0.733       13.381       31.853       59.105       34.970     1014.634     3493.403     1222.879        0.296        0.287        2.178       30.453      195.562      350.606       31.895      862.308
08/28/2014  15:30:00      -23.676       -0.456        5.823       38.093       20.339       27.322     1451.089      413.671      746.499        0.160        0.131       23.680       26.690        1.270      350.920       32.443      862.292
08/28/2014  15:31:00       17.603       29.621       46.670       28.615       22.145       13.280      818.834      490.390      176.361        0.243        0.074       34.456        8.192        0.057      350.673       32.013      862.280
08/28/2014  15:32:00       53.215        6.333        5.026       26.742       24.308       27.358      715.121      590.869      748.481        0.248        0.103       53.591       20.882        0.152      350.137       31.080      862.255
08/28/2014  15:33:00       93.903       91.157      111.531       84.874       79.363       83.942     7203.647     6298.456     7046.323        2.505        1.027      130.872       64.471        0.243      350.240       31.256      862.237
08/28/2014  15:34:00       46.207       43.709       70.591       61.340       90.555       64.063     3762.647     8200.197     4104.119        1.254        0.803       63.605       68.352        1.155      350.366       31.477      862.233
08/28/2014  15:35:00      -28.033      -51.468      -33.801       66.619       62.734       33.256     4438.122     3935.543     1105.977        0.703        0.474       58.607       27.143        0.215      350.514       31.735      862.234
08/28/2014  15:36:00       14.139       -6.068       27.769       34.534       28.683       25.488     1192.578      822.699      649.648        0.184        0.133       15.386       16.657        1.172      350.940       32.477      862.220
08/28/2014  15:37:00       89.827      -13.929       65.073       72.856      109.637       53.693     5308.040    12020.249     2882.908        1.635        1.011       90.901       62.194        0.468      350.853       32.324      862.193
08/28/2014  15:38:00      126.130       38.844      -11.156      114.715       60.386       66.456    13159.577     3646.411     4416.410        1.938        1.061      131.976       52.780        0.160      350.391       31.520      862.185
08/28/2014  15:39:00       55.577       25.027       -1.792       37.509       46.223       28.633     1406.925     2136.608      819.852        0.404        0.218       60.952       17.446        0.082      350.981       32.547      862.171
08/28/2014  15:40:00       41.408       41.737       44.707       46.051       49.482       36.836     2120.686     2448.481     1356.902        0.569        0.296       58.793       34.495        0.344      350.956       32.504      862.151
08/28/2014  15:41:00       39.582      -58.634       11.692       35.901       62.089       29.382     1288.853     3855.026      863.283        0.557        0.300       70.744       32.585        0.212      350.804       32.241      862.140
08/28/2014  15:42:00       48.586      -18.942        0.360       46.448       56.287       33.048     2157.451     3168.213     1092.163        0.457        0.321       52.147       31.921        0.375      350.570       31.832      862.141
08/28/2014  15:43:00      -61.339       71.308      -19.509       63.296       71.572       34.363     4006.366     5122.551     1180.846        0.977        0.515       94.060       41.372        0.193      350.826       32.278      862.138
08/28/2014  15:44:00      -85.047      120.012      -12.319       79.496       72.497       48.491     6319.685     5255.885     2351.412        1.785        0.696      147.091       53.139        0.131      350.789       32.212      862.116
08/28/2014  15:45:00       20.034      164.892      -22.791       38.020       63.970       30.114     1445.518     4092.141      906.847        1.728        0.322      166.105       28.095        0.029      350.367       31.479      862.087
08/28/2014  15:46:00        5.890       97.877      -11.856       40.036       66.676       24.537     1602.905     4445.739      602.059        0.820        0.333       98.054       25.977        0.070      350.709       32.074      862.076
08/28/2014  15:47:00      -52.642      179.912      -30.543      105.606       83.903       56.570    11152.591     7039.661     3200.200        2.873        1.070      187.455       29.507        0.025      350.812       32.252      862.049
08/28/2014  15:48:00      -45.339      235.061      -37.578       90.456       95.190       39.408     8182.319     9061.078     1552.990        3.876        0.940      239.394       45.042        0.035      350.449       31.618      862.049
08/28/2014  15:49:00      128.875      170.878       -2.388      111.595       98.683       66.524    12453.510     9738.353     4425.404        3.621        1.331      214.028       56.022        0.069      350.706       32.066      862.025
08/28/2014  15:50:00      125.552      220.236        2.353      124.737      130.673       80.995    15559.378    17075.417     6560.184        5.173        1.960      253.510       80.535        0.101      350.761       32.163      862.012
08/28/2014  15:51:00       64.671      257.314      -18.337       98.132      156.739       69.904     9629.865    24567.009     4886.576        5.490        1.954      265.317       80.533        0.092      350.670       32.004      862.024
08/28/2014  15:52:00       -1.053      372.340      -43.195       92.531      127.325       72.260     8562.036    16211.535     5221.453        8.524        1.500      372.341       75.841        0.041      350.510       31.725      862.021
08/28/2014  15:53:00       50.587      209.284       -8.629       96.763      147.593       79.172     9363.011    21783.661     6268.220        4.192        1.871      215.311       76.783        0.127      350.494       31.697      862.012
08/28/2014  15:54:00       74.177      386.531      -55.438       87.229      143.383       73.876     7608.856    20558.700     5457.622        9.580        1.681      393.585       88.983        0.051      350.345       31.438      862.010
08/28/2014  15:55:00       39.108      259.407      -34.996       84.093       99.720       58.693     7071.652     9944.147     3444.819        4.525        1.023      262.338       55.977        0.046      350.346       31.438      862.005
08/28/2014  15:56:00     -132.147      141.744      -15.461      123.509      103.346       59.277    15254.424    10680.455     3513.791        3.362        1.472      193.789       50.436        0.068      350.560       31.812      861.958
08/28/2014  15:57:00       67.265      162.530      -15.014       95.154      123.022       55.349     9054.213    15134.356     3063.483        2.920        1.363      175.899       61.741        0.123      350.816       32.259      861.971
08/28/2014  15:58:00      164.145      166.008        1.877      133.841      111.254       66.295    17913.544    12377.478     4395.085        4.459        1.734      233.457       51.248        0.048      350.546       31.787      861.981
08/28/2014  15:59:00      174.141      159.186        4.218      107.619       83.107       73.017    11581.871     6906.830     5331.473        3.975        1.191      235.935       58.653        0.062      350.610       31.899      861.966
08/28/2014  16:00:00      117.531      102.450       12.079       75.760       66.882       48.933     5739.541     4473.172     2394.398        1.853        0.630      155.916       40.942        0.069      350.598       31.880      861.956
08/28/2014  16:01:00        2.651      260.871      -34.649       41.586      119.759       46.615     1729.405    14342.206     2172.937        4.375        0.912      260.885       61.564        0.056      350.541       31.779      861.949
08/28/2014  16:02:00       -6.806      281.462      -39.363       78.162       74.786       30.269     6109.301     5592.920      916.222        4.671        0.631      281.544       22.431        0.006      350.389       31.512      861.950
08/28/2014  16:03:00       69.452       73.806       13.364       65.962       67.873       44.839     4350.950     4606.724     2010.549        1.071        0.548      101.346       37.216        0.135      350.524       31.752      861.948
08/28/2014  16:04:00       67.540       33.120       19.562       49.944       29.569       34.446     2494.356      874.314     1186.497        0.530        0.228       75.224       29.666        0.156      350.538       31.777      861.926
08/28/2014  16:05:00       34.029       67.358       76.686       60.598       55.612       43.828     3672.139     3092.700     1920.907        1.013        0.434       75.466       31.915        0.179      350.537       31.773      861.904
08/28/2014  16:06:00      126.437       98.889       64.911       97.495       81.910       60.621     9505.307     6709.187     3674.928        2.493        0.994      160.515       49.145        0.094      350.235       31.247      861.877
08/28/2014  16:07:00      211.961      145.124       36.250       63.348       46.503       47.412     4012.948     2162.573     2247.935        3.786        0.421      256.882       10.399        0.002      350.363       31.468      861.879
08/28/2014  16:08:00      140.168       70.977       54.377      105.388       73.620       75.136    11106.704     5419.916     5645.365        2.490        1.109      157.114       59.553        0.144      350.607       31.894      861.855
08/28/2014  16:09:00      230.067      125.505       41.416       89.650       71.398       63.993     8037.210     5097.660     4095.123        4.381        0.861      262.073       41.066        0.025      350.414       31.557      861.856
08/28/2014  16:10:00       45.347       99.013      122.031       74.329       77.221       67.663     5524.805     5963.064     4578.249        2.141        0.803      108.903       56.592        0.270      350.670       32.004      861.843
08/28/2014  16:11:00       67.456      -41.242       31.250       65.499      110.617       55.593     4290.077    12236.147     3090.593        1.342        0.981       79.065       68.794        0.757      350.257       31.286      861.823
08/28/2014  16:12:00       53.269      -16.788       31.106       59.465      102.884       47.980     3536.054    10585.053     2302.082        1.025        0.821       55.852       54.619        0.956      350.478       31.670      861.803
08/28/2014  16:13:00      123.449       32.367       27.235       56.361       48.960       43.155     3176.516     2397.109     1862.381        1.223        0.372      127.621       20.110        0.025      350.570       31.832      861.814
08/28/2014  16:14:00      166.642       78.642       35.809       91.600       75.925       50.078     8390.469     5764.597     2507.829        2.595        0.833      184.267       47.203        0.066      350.660       31.987      861.794
08/28/2014  16:15:00      185.150       85.520       45.252      100.984       73.380       57.807    10197.740     5384.638     3341.650        3.128        0.946      203.947       43.495        0.045      350.543       31.781      861.778
08/28/2014  16:16:00      149.479       86.698       58.702       88.278       84.181       63.320     7793.086     7086.454     4009.380        2.609        0.944      172.802       27.013        0.024      350.642       31.954      861.781
08/28/2014  16:17:00       73.460      110.281       24.218       89.207       80.997       60.183     7957.867     6560.499     3621.950        1.814        0.907      132.508       46.363        0.122      350.602       31.888      861.790
08/28/2014  16:18:00       36.221       60.548        3.122       72.561       40.018       26.538     5265.066     1601.418      704.284        0.628        0.379       70.556       23.062        0.107      350.644       31.960      861.791
08/28/2014  16:19:00       91.081       84.205        3.761       47.031       38.209       38.095     2211.949     1459.947     1451.195        1.026        0.256      124.041       19.869        0.026      350.369       31.482      861.772
08/28/2014  16:20:00      -19.659      112.279       19.202       97.620      108.933       51.734     9529.682    11866.296     2676.420        1.871        1.204      113.987       46.022        0.163      350.857       32.330      861.753
08/28/2014  16:21:00      -73.433      244.184      -33.370       53.321       95.142       39.944     2843.080     9052.088     1595.545        3.981        0.675      254.986       36.097        0.020      350.530       31.760      861.762
08/28/2014  16:22:00       27.017      215.570      -26.824       64.147       69.892       44.992     4114.801     4884.846     2024.263        2.947        0.551      217.256       41.499        0.036      350.490       31.691      861.746
08/28/2014  16:23:00       22.511      179.621      -18.685       42.332       79.816       46.013     1791.968     6370.638     2117.239        2.170        0.514      181.026       47.751        0.070      350.489       31.689      861.728
08/28/2014  16:24:00      -59.642      218.733      -24.947       44.147       62.155       34.222     1948.937     3863.222     1171.127        2.950        0.349      226.719       30.201        0.018      350.428       31.581      861.717
08/28/2014  16:25:00      -63.630      143.091      -20.121       62.972       58.772       31.507     3965.414     3454.091      992.672        1.667        0.421      156.601       26.689        0.029      350.534       31.769      861.713
08/28/2014  16:26:00      -78.005        4.203      -18.221       55.756       53.301       28.429     3108.775     2841.038      808.192        0.659        0.338       78.118       25.493        0.107      350.587       31.862      861.691
08/28/2014  16:27:00       53.079       37.446       11.277       20.649       13.939       22.517      426.398      194.306      507.012        0.274        0.056       64.959        7.654        0.014      350.613       31.909      861.674
08/28/2014  16:28:00       35.279       26.852       28.253       43.374       24.300       26.760     1881.305      590.492      716.079        0.298        0.159       44.336       27.950        0.397      350.532       31.767      861.666
08/28/2014  16:29:00       20.958       73.355      -13.167       40.965       61.330       32.405     1678.093     3761.398     1050.071        0.624        0.324       76.290       13.824        0.033      350.474       31.665      861.663
08/28/2014  16:30:00        3.395      -21.278       -7.395       22.419       50.893       18.337      502.604     2590.093      336.236        0.197        0.171       21.547       22.372        1.078      350.456       31.635      861.657
08/28/2014  16:31:00      -15.333       78.125       -9.932       38.682       40.212       19.560     1496.312     1616.987      382.600        0.497        0.175       79.615       19.520        0.060      350.627       31.933      861.651
08/28/2014  16:32:00      -25.921       93.950      -17.095       21.025       58.178       17.083      442.033     3384.734      291.846        0.695        0.206       97.460        7.485        0.006      350.410       31.555      861.642
08/28/2014  16:33:00      -42.394       91.792      -13.315       69.492       58.669       25.949     4829.155     3442.104      673.342        0.967        0.447      101.109       35.141        0.121      350.548       31.795      861.640
08/28/2014  16:34:00     -161.626      173.698      -54.003       93.879       77.304       43.650     8813.186     5975.888     1905.291        3.795        0.835      237.264       37.259        0.025      350.310       31.377      861.631
08/28/2014  16:35:00     -121.778       80.629      -29.817       35.831       33.281       22.826     1283.834     1107.594      521.010        1.257        0.146      146.051       19.142        0.017      350.496       31.704      861.614
08/28/2014  16:36:00        1.691       44.039        7.480       43.417       36.347       23.014     1885.009     1321.095      529.641        0.287        0.187       44.072       21.155        0.230      350.663       31.995      861.601
08/28/2014  16:37:00       15.026       13.147        2.062       30.703       24.823       14.917      942.686      616.191      222.507        0.109        0.089       19.966        4.259        0.045      350.721       32.094      861.594
08/28/2014  16:38:00       22.184       50.731       22.455       77.654       59.193       31.945     6030.111     3503.865     1020.480        0.706        0.528       55.370       26.082        0.222      350.914       32.431      861.587
08/28/2014  16:39:00      -19.280      148.254      -15.342       57.163       71.228       39.682     3267.600     5073.450     1574.691        1.625        0.496      149.502       40.906        0.075      350.659       31.986      861.584
08/28/2014  16:40:00       -8.636      213.769      -19.635       54.638      107.089       49.691     2985.295    11468.152     2469.152        3.154        0.846      213.943       56.731        0.070      350.637       31.946      861.576
08/28/2014  16:41:00       48.110      158.444       -1.438       98.851      109.756       64.400     9771.477    12046.457     4147.356        2.669        1.298      165.587       57.966        0.123      350.621       31.918      861.573
08/28/2014  16:42:00      114.140      120.538       -0.209       82.687       70.675       55.644     6837.062     4994.937     3096.222        2.124        0.746      166.004       41.129        0.061      350.481       31.675      861.567
08/28/2014  16:43:00      132.065      115.084        9.382       76.567       41.138       38.014     5862.573     1692.310     1445.066        1.988        0.450      175.173       26.505        0.023      350.425       31.578      861.567
08/28/2014  16:44:00      109.801       79.530       21.050       47.111       37.915       35.904     2219.447     1437.560     1289.098        1.188        0.247      135.578       17.538        0.017      350.372       31.487      861.576
08/28/2014  16:45:00      -27.636        8.630      -16.168       41.429       54.659       29.275     1716.327     2987.655      857.048        0.333        0.278       28.952       19.596        0.458      350.507       31.722      861.549
08/28/2014  16:46:00       61.691       11.068        9.958       48.470       64.398       38.694     2349.376     4147.038     1497.262        0.601        0.400       62.676       26.191        0.175      350.470       31.658      861.533
08/28/2014  16:47:00      134.113       48.308       23.646       60.315       40.797       38.328     3637.870     1664.397     1469.020        1.382        0.339      142.548        9.921        0.005      350.365       31.475      861.511
08/28/2014  16:48:00       26.012       11.164       15.025       32.910       41.099       18.413     1083.068     1689.134      339.038        0.207        0.156       28.306        9.083        0.103      350.409       31.554      861.494
08/28/2014  16:49:00       36.399       14.801       23.551       20.529       40.486       20.180      421.442     1639.124      407.250        0.228        0.123       39.294       18.487        0.221      350.193       31.176      861.479
08/28/2014  16:50:00       74.586       37.655       21.697       53.133       42.480       27.823     2823.166     1804.589      774.107        0.643        0.270       83.552       21.570        0.067      350.256       31.285      861.464
08/28/2014  16:51:00      169.343       76.188       17.457       96.635       82.300       51.154     9338.293     6773.311     2616.776        2.675        0.936      185.692       32.807        0.031      350.408       31.548      861.452
08/28/2014  16:52:00      117.617       58.955       -4.144       52.444       45.054       33.229     2750.351     2029.871     1104.166        1.160        0.294      131.565       15.190        0.013      350.471       31.660      861.455
08/28/2014  16:53:00       21.361      -27.528       13.074       26.304       37.760       23.400      691.920     1425.829      547.571        0.202        0.133       34.843       21.273        0.373      350.545       31.789      861.455
08/28/2014  16:54:00       69.278     -110.928       -9.502       42.486       37.029       23.943     1805.032     1371.183      573.265        1.047        0.187      130.784       16.346        0.016      350.352       31.452      861.441
08/28/2014  16:55:00       27.159      -33.402       14.548       40.093       60.296       38.486     1607.485     3635.584     1481.187        0.439        0.336       43.050       44.753        1.081      350.480       31.676      861.438
08/28/2014  16:56:00      -18.233      -15.179       -0.409       47.413       46.459       28.180     2248.015     2158.479      794.110        0.288        0.260       23.725       33.357        1.977      350.915       32.433      861.431
08/28/2014  16:57:00      -68.498      -20.784       -5.679       30.512       32.613       23.501      930.995     1063.583      552.310        0.385        0.127       71.582       20.918        0.085      350.740       32.130      861.431
08/28/2014  16:58:00      -16.777       17.799        0.966       25.432       28.023       20.804      646.773      785.262      432.803        0.123        0.093       24.459       14.013        0.328      350.665       31.997      861.432
08/28/2014  16:59:00       19.230       35.404       17.933       32.461       55.762       23.335     1053.698     3109.367      544.528        0.333        0.235       40.289       26.494        0.432      350.441       31.607      861.434
08/28/2014  17:00:00      -21.744       96.055       -7.891       17.606       20.476       19.843      309.955      419.270      393.753        0.544        0.056       98.485       13.910        0.020      350.417       31.568      861.440
08/28/2014  17:01:00      -30.444       81.920      -26.432       27.347       39.384       20.488      747.880     1551.094      419.743        0.553        0.136       87.394       25.201        0.083      350.465       31.652      861.435
08/28/2014  17:02:00      -21.009       63.074      -20.570       19.575       21.128       11.612      383.199      446.392      134.835        0.290        0.048       66.480        6.403        0.009      350.496       31.705      861.432
08/28/2014  17:03:00       15.092       44.787        3.293       32.156       32.260       24.991     1034.002     1040.736      624.537        0.247        0.135       47.261       24.186        0.262      350.535       31.772      861.425
08/28/2014  17:04:00      -14.147       28.504       -0.304       42.446       40.674       14.968     1801.631     1654.370      224.039        0.235        0.184       31.821       10.371        0.106      350.715       32.085      861.429
08/28/2014  17:05:00      -85.937       30.056       -1.552      113.711      108.048       52.222    12930.136    11674.342     2727.151        1.781        1.367       91.042       69.688        0.586      350.630       31.937      861.437
08/28/2014  17:06:00     -181.614      152.128      -30.947       76.620      109.864       59.836     5870.650    12070.069     3580.290        3.930        1.076      236.911       44.918        0.036      350.801       32.230      861.435
08/28/2014  17:07:00     -233.169      -57.653      -29.332       61.196       52.876       33.995     3745.011     2795.869     1155.687        3.312        0.385      240.191       20.258        0.007      350.568       31.826      861.442
08/28/2014  17:08:00      -80.002       33.632       -3.586       77.318       48.833       34.225     5978.112     2384.617     1171.383        0.854        0.477       86.784       43.560        0.252      350.676       32.017      861.440
08/28/2014  17:09:00     -132.357      108.169      -15.862       92.602       77.613       49.265     8575.041     6023.767     2427.062        2.324        0.851      170.936       63.052        0.136      350.707       32.067      861.437
08/28/2014  17:10:00     -103.937       89.493      -18.511       69.164      106.794       43.619     4783.614    11405.031     1902.609        1.862        0.905      137.156       36.200        0.070      350.810       32.249      861.420
08/28/2014  17:11:00      -55.731      149.949      -11.580       62.421      107.264       31.875     3896.390    11505.584     1015.993        2.107        0.821      159.970       27.602        0.030      350.537       31.774      861.429
08/28/2014  17:12:00      -52.481      127.713      -16.464       91.156       87.828       34.345     8309.364     7713.770     1179.583        1.827        0.860      138.075       43.820        0.101      350.570       31.831      861.411
08/28/2014  17:13:00      -84.283      232.690      -39.710       61.799       84.503       40.143     3819.071     7140.832     1611.462        3.770        0.629      247.484       44.974        0.033      350.538       31.772      861.430
08/28/2014  17:14:00       26.125      116.881      -10.174       72.436       90.708       49.163     5247.026     8227.993     2417.021        1.517        0.795      119.766       44.709        0.139      350.511       31.728      861.421
08/28/2014  17:15:00      100.343       66.358        6.812       82.751       54.829       45.500     6847.737     3006.258     2070.268        1.322        0.596      120.300       23.888        0.039      350.463       31.646      861.401
08/28/2014  17:16:00       -8.275       22.366       -4.910      104.143       40.170       43.764    10845.756     1613.605     1915.282        0.748        0.719       23.848       35.434        2.208      350.541       31.781      861.407
08/28/2014  17:17:00      -72.518       64.408       -2.382       66.545       40.503       33.137     4428.185     1640.493     1098.059        0.829        0.358       96.991       36.480        0.141      350.512       31.731      861.409
08/28/2014  17:18:00      -94.566       53.896       -7.647       53.946       53.521       33.355     2910.215     2864.491     1112.560        0.940        0.344      108.846       36.365        0.112      350.546       31.789      861.411
08/28/2014  17:19:00      -62.912       48.738      -14.097       22.675       32.236       20.418      514.140     1039.165      416.911        0.425        0.099       79.582       10.489        0.017      350.595       31.875      861.411
08/28/2014  17:20:00      -76.366        9.986        1.978       79.806       66.439       27.607     6368.951     4414.100      762.157        0.874        0.577       77.016       32.208        0.175      350.534       31.769      861.411
08/28/2014  17:21:00     -210.371      -14.427       -9.891       63.959       72.750       37.291     4090.761     5292.631     1390.631        2.767        0.539      210.865       33.520        0.025      350.489       31.687      861.412
08/28/2014  17:22:00     -228.375      -23.700       -6.012       91.275       69.600       41.288     8331.193     4844.168     1704.677        3.381        0.744      229.602       37.141        0.026      350.533       31.765      861.405
08/28/2014  17:23:00     -183.927      -16.422      -25.463       71.342       65.902       43.806     5089.738     4343.126     1918.964        2.305        0.568      184.659       35.047        0.036      350.471       31.656      861.421
08/28/2014  17:24:00      -38.783       64.621        3.022       56.359       61.767       31.509     3176.329     3815.128      992.800        0.684        0.399       75.365       34.854        0.214      350.461       31.641      861.406
08/28/2014  17:25:00      -66.829       65.297       -6.174       46.250       63.526       30.230     2139.016     4035.507      913.874        0.793        0.354       93.434       31.388        0.113      350.524       31.752      861.406
08/28/2014  17:26:00     -159.273        0.065      -21.879       75.579       70.238       40.470     5712.200     4933.375     1637.785        1.906        0.614      159.273       40.514        0.065      350.506       31.720      861.406
08/28/2014  17:27:00     -126.939      -18.104      -15.562       52.587       57.124       38.848     2765.389     3263.191     1509.194        1.211        0.377      128.224       20.096        0.025      350.595       31.874      861.420
08/28/2014  17:28:00     -194.677      -65.572      -11.770       74.023       56.791       41.591     5479.445     3225.188     1729.803        2.638        0.522      205.424       26.617        0.017      350.571       31.831      861.421
08/28/2014  17:29:00     -208.554      -17.156      -18.820       63.164       54.875       31.843     3989.648     3011.234     1014.007        2.608        0.401      209.258       31.982        0.023      350.602       31.884      861.416
08/28/2014  17:30:00     -134.793      -33.833      -18.386       74.274       56.081       30.023     5516.628     3145.081      901.392        1.461        0.478      138.974       19.651        0.020      350.629       31.934      861.394
08/28/2014  17:31:00     -145.676        9.497      -24.960       63.420       74.973       33.534     4022.079     5620.931     1124.557        1.635        0.538      145.985       24.680        0.029      350.703       32.064      861.400
08/28/2014  17:32:00     -193.596      -10.082      -17.221       91.214       82.682       43.840     8319.991     6836.266     1921.968        2.747        0.854      193.859       34.503        0.032      350.743       32.131      861.400
08/28/2014  17:33:00     -191.703       50.116      -30.514       88.716       81.534       48.785     7870.501     6647.776     2379.949        2.854        0.845      198.146       50.117        0.064      350.608       31.895      861.388
08/28/2014  17:34:00      -87.761       15.815        9.207       68.284       61.481       48.688     4662.656     3779.961     2370.533        0.942        0.541       89.175       40.156        0.203      350.637       31.950      861.365
08/28/2014  17:35:00     -197.524      -48.162      -36.471       72.601      105.890       31.806     5270.858    11212.748     1011.646        3.008        0.875      203.311       23.126        0.013      350.547       31.790      861.374
08/28/2014  17:36:00     -171.579      -63.914        9.907      129.357       96.508       43.799    16733.173     9313.839     1918.333        3.079        1.398      183.097       32.650        0.032      350.550       31.796      861.352
08/28/2014  17:37:00     -192.826      158.761      -41.818      117.269      119.727       64.285    13751.933    14334.525     4132.615        4.817        1.611      249.774       66.436        0.071      350.462       31.641      861.383
08/28/2014  17:38:00     -197.664      234.627      -49.900       81.469       84.922       53.252     6637.197     7211.733     2835.748        5.664        0.834      306.791       40.210        0.017      350.462       31.638      861.389
08/28/2014  17:39:00      -70.111      183.788      -19.948       83.628      126.696       48.953     6993.644    16051.912     2396.417        3.226        1.272      196.707       60.820        0.096      350.430       31.587      861.387
08/28/2014  17:40:00     -135.154      141.607      -14.456       93.491      112.656       56.313     8740.510    12691.327     3171.150        3.156        1.230      195.753       58.250        0.089      350.472       31.659      861.380
08/28/2014  17:41:00     -107.146      175.368      -26.956       92.448      100.597       45.386     8546.675    10119.736     2059.933        3.184        1.036      205.510       50.306        0.060      350.388       31.514      861.366
08/28/2014  17:42:00     -156.384      122.765      -17.828      113.596      123.084       64.722    12904.088    15149.698     4188.904        3.604        1.612      198.815       62.389        0.098      350.441       31.603      861.360
08/28/2014  17:43:00     -146.914      206.429      -23.162       81.624      108.850       61.839     6662.545    11848.362     3824.035        4.353        1.117      253.370       60.412        0.057      350.444       31.610      861.365
08/28/2014  17:44:00      -69.885      157.036        1.244       54.176       77.409       50.714     2935.074     5992.226     2571.877        2.052        0.575      171.884       46.849        0.074      350.404       31.543      861.354
08/28/2014  17:45:00     -155.532       77.389      -28.834       81.022       84.562       46.027     6564.491     7150.774     2118.473        2.342        0.792      173.722       27.292        0.025      350.448       31.619      861.359
08/28/2014  17:46:00     -189.915       65.836      -27.956      126.367       84.454       52.725    15968.652     7132.519     2779.961        3.353        1.294      201.003       57.754        0.083      350.397       31.531      861.364
08/28/2014  17:47:00      -77.292       30.513        1.686       91.497       92.377       31.895     8371.781     8533.582     1017.290        1.241        0.896       83.097       33.161        0.159      350.411       31.554      861.345
08/28/2014  17:48:00     -188.021       36.860      -22.685       98.846       70.705       52.035     9770.614     4999.167     2707.667        2.735        0.874      191.600       58.242        0.092      350.331       31.415      861.356
08/28/2014  17:49:00     -255.154       21.048      -34.477      102.501      114.072       50.689    10506.430    13012.317     2569.360        4.641        1.304      256.021       47.753        0.035      350.314       31.384      861.362
08/28/2014  17:50:00     -228.296       74.126      -41.851      123.713      107.587       56.639    15304.993    11574.893     3207.969        4.472        1.504      240.029       48.603        0.041      350.345       31.437      861.335
08/28/2014  17:51:00     -148.011      115.416      -28.475       73.333      106.133       46.364     5377.786    11264.264     2149.610        2.741        0.940      187.692       35.535        0.036      350.315       31.387      861.342
08/28/2014  17:52:00     -130.036      283.072      -26.927       72.458      119.752       57.481     5250.224    14340.509     3304.095        6.032        1.145      311.511       56.789        0.033      350.319       31.392      861.353
08/28/2014  17:53:00     -171.209      195.448      -35.362      120.787       90.078       61.750    14589.548     8114.012     3813.124        4.763        1.326      259.831       65.297        0.063      350.309       31.375      861.351
08/28/2014  17:54:00      -68.126      130.653       -2.493       96.624       66.061       49.021     9336.140     4363.993     2403.091        1.891        0.805      147.348       47.253        0.103      350.271       31.311      861.349
08/28/2014  17:55:00     -139.915      182.786      -33.031       98.751       83.734       58.791     9751.771     7011.399     3456.345        3.714        1.011      230.189       56.901        0.061      350.236       31.248      861.350
08/28/2014  17:56:00     -111.452      208.317      -23.285       83.429      121.351       62.739     6960.345    14726.121     3936.197        4.099        1.281      236.257       61.296        0.067      350.261       31.292      861.351
08/28/2014  17:57:00     -118.519      328.230      -47.201      100.994      122.202       47.628    10199.790    14933.365     2268.415        7.570        1.370      348.973       44.628        0.016      350.255       31.281      861.342
08/28/2014  17:58:00      -69.059      322.415      -41.906       95.686       86.211       43.591     9155.865     7432.335     1900.201        6.448        0.924      329.728       44.400        0.018      350.298       31.356      861.310
08/28/2014  17:59:00      -68.485      336.290      -31.777       90.383      106.794       56.959     8169.130    11405.012     3244.311        7.080        1.141      343.193       50.176        0.021      350.314       31.383      861.305
08/28/2014  18:00:00     -117.422      292.308      -26.861      107.196       94.904       66.260    11490.933     9006.798     4390.322        6.242        1.244      315.011       68.421        0.047      350.299       31.358      861.322
08/28/2014  18:01:00     -144.345      155.327      -25.465      107.154      132.692       49.938    11482.078    17607.275     2493.806        3.859        1.579      212.042       53.166        0.063      350.311       31.381      861.311
08/28/2014  18:02:00     -194.287      198.270      -42.140      100.863       87.735       50.562    10173.321     7697.420     2556.528        4.963        1.021      277.594       50.912        0.034      350.294       31.348      861.309
08/28/2014  18:03:00      -89.934      215.026      -29.422       71.124       71.604       41.420     5058.644     5127.165     1715.645        3.354        0.595      233.075       33.256        0.020      350.307       31.372      861.302
08/28/2014  18:04:00      -69.038      385.792      -26.568      134.435      176.297       90.575    18072.638    31080.514     8203.785       10.582        2.868      391.921       96.692        0.061      350.297       31.355      861.277
08/28/2014  18:05:00     -214.680       50.526      -17.792      131.993      176.377       69.187    17422.271    31108.925     4786.838        5.113        2.666      220.546       72.883        0.109      350.355       31.456      861.290
08/28/2014  18:06:00     -120.887      112.694      -28.558       91.330      121.759       58.277     8341.229    14825.274     3396.255        2.734        1.328      165.268       64.865        0.154      350.405       31.543      861.309
08/28/2014  18:07:00     -155.303       61.064      -18.903      114.614      111.874       65.557    13136.301    12515.800     4297.738        2.907        1.497      166.877       61.597        0.136      350.461       31.639      861.308
08/28/2014  18:08:00     -226.438       19.755      -27.259      135.975      114.764       58.680    18489.153    13170.728     3443.298        4.375        1.755      227.298       31.876        0.020      350.429       31.585      861.311
08/28/2014  18:09:00     -213.960       91.781      -32.591      127.738      115.826       55.864    16317.015    13415.681     3120.802        4.405        1.643      232.815       49.906        0.046      350.403       31.539      861.325
08/28/2014  18:10:00     -288.869       86.173      -37.638      156.304      103.677       60.314    24431.011    10748.845     3637.775        6.555        1.941      301.449       68.237        0.051      350.371       31.482      861.322
08/28/2014  18:11:00     -195.216      -18.050      -33.728       94.220       99.896       54.449     8877.439     9979.183     2964.740        3.069        1.091      196.048       50.943        0.068      350.433       31.593      861.323
08/28/2014  18:12:00     -179.505      143.006      -19.947       90.124       97.080       71.181     8122.410     9424.473     5066.805        3.784        1.131      229.506       66.560        0.084      350.365       31.474      861.328
08/28/2014  18:13:00     -140.855       82.628        7.986      126.952       99.416       57.450    16116.923     9883.493     3300.473        2.801        1.465      163.302       67.351        0.170      350.369       31.481      861.326
08/28/2014  18:14:00     -115.583      117.399       -8.498       93.379      134.152       53.931     8719.603    17996.632     2908.604        2.841        1.481      164.748       41.673        0.064      350.363       31.471      861.326
08/28/2014  18:15:00      -82.847      112.112      -21.951       66.775       91.901       44.527     4458.898     8445.874     1982.613        1.740        0.744      139.401       34.329        0.061      350.325       31.404      861.332
08/28/2014  18:16:00     -159.662       17.969      -30.722       71.697      103.960       51.380     5140.489    10807.610     2639.946        2.267        0.929      160.670       46.051        0.082      350.368       31.481      861.331
08/28/2014  18:17:00     -164.858       99.690      -44.209       91.912      133.393       57.215     8447.904    17793.821     3273.608        3.429        1.476      192.656       46.956        0.059      350.285       31.333      861.338
08/28/2014  18:18:00     -222.254       20.326      -35.984      152.038      147.582       61.975    23115.409    21780.462     3840.957        4.991        2.437      223.182       52.013        0.054      350.231       31.241      861.350
08/28/2014  18:19:00     -253.588       90.808      -37.488       93.366      143.583       67.426     8717.219    20616.087     4546.280        5.391        1.694      269.357       47.536        0.031      350.224       31.226      861.337
08/28/2014  18:20:00     -229.359      -38.597       -5.245      200.477      144.329       72.110    40191.061    20830.983     5199.811        6.016        3.311      232.584       69.099        0.088      350.214       31.211      861.340
08/28/2014  18:21:00     -333.367      -34.819      -25.494      107.679      112.737       60.792    11594.713    12709.527     3695.696        7.049        1.400      335.181       42.294        0.016      350.130       31.062      861.352
08/28/2014  18:22:00     -182.754      -42.671      -15.227       77.248       80.430       42.301     5967.195     6468.974     1789.391        2.484        0.711      187.669       29.490        0.025      350.117       31.043      861.362
08/28/2014  18:23:00     -272.224        1.101      -33.196       93.885      136.107       53.946     8814.448    18525.082     2910.173        5.272        1.512      272.226       57.566        0.045      350.100       31.009      861.366
08/28/2014  18:24:00     -183.686       64.673      -10.016       99.613      116.946       69.168     9922.845    13676.415     4784.279        3.320        1.419      194.739       39.504        0.041      350.134       31.069      861.352
08/28/2014  18:25:00     -251.522      101.708      -30.535      123.979       84.042       60.359    15370.737     7063.004     3643.153        5.030        1.304      271.308       64.718        0.057      350.187       31.164      861.345
08/28/2014  18:26:00     -304.581      -34.431      -25.942      143.218       97.792       57.838    20511.468     9563.356     3345.203        6.402        1.671      306.521       53.378        0.030      350.176       31.144      861.343
08/28/2014  18:27:00     -259.370        7.846      -28.985      134.065      110.021       57.667    17973.361    12104.519     3325.466        5.078        1.670      259.489       59.597        0.053      350.173       31.138      861.363
08/28/2014  18:28:00     -332.192      -57.592      -10.907      159.443       96.320       62.575    25421.926     9277.558     3915.579        7.619        1.931      337.147       73.087        0.047      350.165       31.123      861.354
08/28/2014  18:29:00     -133.040      -52.709      -16.905      116.310       75.118       48.318    13527.992     5642.674     2334.670        2.113        1.075      143.101       48.342        0.114      350.229       31.238      861.344
08/28/2014  18:30:00     -284.247      -70.134      -29.702      113.143       81.347       47.001    12801.375     6617.414     2209.056        5.411        1.081      292.772       30.492        0.011      350.161       31.116      861.352
08/28/2014  18:31:00     -129.819      -16.132      -24.139      108.990       85.319       56.132    11878.759     7279.396     3150.842        2.000        1.115      130.818       48.251        0.136      350.238       31.253      861.356
08/28/2014  18:32:00     -246.339      -60.052      -15.285      128.064       90.906       57.225    16400.271     8263.940     3274.677        4.623        1.397      253.553       48.970        0.037      350.167       31.130      861.365
08/28/2014  18:33:00     -210.677      -56.653      -13.482      124.153       99.340       54.967    15414.055     9868.535     3021.417        3.803        1.415      218.161       63.034        0.083      350.158       31.112      861.364
08/28/2014  18:34:00     -293.428      -29.236       -7.277      133.249       83.988       60.461    17755.194     7053.989     3655.525        5.773        1.423      294.880       56.409        0.037      350.113       31.034      861.367
08/28/2014  18:35:00     -192.041       -2.884      -21.300      124.346       86.212       50.722    15461.826     7432.525     2572.714        3.140        1.273      192.062       53.060        0.076      350.103       31.018      861.376
08/28/2014  18:36:00     -191.265       87.453      -17.933       93.482       78.475       60.025     8738.889     6158.311     3603.012        3.152        0.925      210.309       56.679        0.073      350.060       30.942      861.402
08/28/2014  18:37:00     -257.322       79.073      -42.123      118.317      106.300       69.871    13998.912    11299.689     4881.901        5.221        1.509      269.198       57.723        0.046      350.104       31.018      861.403
08/28/2014  18:38:00     -210.589      120.194      -19.973      128.349      131.307       77.611    16473.339    17241.551     6023.398        4.946        1.987      242.475       70.170        0.084      350.084       30.984      861.397
08/28/2014  18:39:00     -181.500      -26.773      -30.791      107.440       80.800       57.250    11543.343     6528.709     3277.617        2.797        1.067      183.464       52.656        0.082      350.138       31.077      861.393
08/28/2014  18:40:00     -276.067       47.354      -49.315      127.479      183.319       64.025    16250.919    33605.687     4099.177        6.741        2.698      280.099       61.658        0.048      350.081       30.978      861.409
08/28/2014  18:41:00     -329.768      -56.428      -40.032      137.936       97.926       60.342    19026.220     9589.510     3641.190        7.289        1.613      334.561       57.498        0.030      350.060       30.942      861.416
08/28/2014  18:42:00     -342.373      -48.556      -14.460      141.142      125.107       68.832    19920.949    15651.863     4737.887        8.004        2.016      345.799       64.693        0.035      350.033       30.894      861.422
08/28/2014  18:43:00     -307.890      -12.879      -28.709      132.594       89.702       62.204    17581.204     8046.441     3869.300        6.264        1.475      308.159       75.731        0.060      349.986       30.817      861.430
08/28/2014  18:44:00     -158.969      -59.246       -6.539       72.823       89.927       49.853     5303.143     8086.846     2485.344        2.235        0.794      169.651       29.029        0.029      349.985       30.812      861.437
08/28/2014  18:45:00     -283.454      -32.191       -9.859       95.652       65.876       46.814     9149.273     4339.681     2191.532        4.858        0.784      285.276       47.047        0.027      349.955       30.759      861.451
08/28/2014  18:46:00     -232.920      -59.316      -14.810      100.700       87.768       50.401    10140.575     7703.162     2540.234        3.918        1.019      240.354       54.037        0.051      349.930       30.716      861.460
08/28/2014  18:47:00     -264.343      -17.110      -21.939      111.958       91.404       47.214    12534.536     8354.736     2229.145        4.688        1.156      264.896       57.305        0.047      349.882       30.632      861.467
08/28/2014  18:48:00     -372.544      -15.650      -36.883      128.708       90.614       51.589    16565.658     8210.854     2661.461        8.391        1.372      372.873       56.539        0.023      349.889       30.646      861.468
08/28/2014  18:49:00     -216.662      -13.260        8.029      135.362      104.082       63.243    18322.982    10832.984     3999.722        4.016        1.658      217.067       58.814        0.073      349.906       30.675      861.467
08/28/2014  18:50:00     -288.382      -53.908      -20.094      106.988      101.168       49.151    11446.378    10234.976     2415.780        5.528        1.205      293.377       28.757        0.010      349.858       30.592      861.486
08/28/2014  18:51:00     -203.721      -44.013      -22.210       61.245       72.403       40.903     3750.923     5242.143     1673.021        2.730        0.533      208.421       34.217        0.027      349.849       30.575      861.491
08/28/2014  18:52:00     -154.628      -43.554       -3.475       76.392       94.036       44.920     5835.676     8842.779     2017.808        2.125        0.835      160.645       19.188        0.014      349.842       30.565      861.499
08/28/2014  18:53:00     -190.627      -61.469      -12.656       93.138       85.217       38.648     8674.779     7261.940     1493.674        2.885        0.872      200.293       37.897        0.036      349.834       30.550      861.507
08/28/2014  18:54:00     -166.521       40.636      -22.785      107.897       76.292       45.255    11641.739     5820.423     2048.037        2.470        0.976      171.407       49.967        0.085      349.830       30.544      861.528
08/28/2014  18:55:00     -236.905      -61.161       -2.974      117.860       77.001       51.274    13890.924     5929.156     2628.996        4.116        1.122      244.672       58.725        0.058      349.782       30.460      861.545
08/28/2014  18:56:00     -300.640      -84.838      -16.111      127.093       76.248       52.776    16152.698     5813.717     2785.286        6.129        1.238      312.381       65.536        0.044      349.775       30.447      861.546
08/28/2014  18:57:00     -256.639      -72.459        3.510       83.987       73.198       44.461     7053.742     5357.914     1976.806        4.275        0.719      266.671       42.054        0.025      349.783       30.461      861.564
08/28/2014  18:58:00     -202.935      -82.660       -9.934       76.090       72.626       35.582     5789.660     5274.567     1266.051        3.022        0.617      219.124       34.174        0.024      349.779       30.453      861.580
08/28/2014  18:59:00     -162.280      -62.918       10.220      108.002       71.725       39.887    11664.400     5144.459     1590.937        2.440        0.920      174.050       51.157        0.086      349.814       30.515      861.586
08/28/2014  19:00:00     -146.807      -53.926       -3.691       63.264       78.789       41.424     4002.397     6207.766     1715.927        1.820        0.596      156.398       37.450        0.057      349.802       30.496      861.587
08/28/2014  19:01:00     -168.832      -54.840        6.675      103.465       93.544       45.213    10704.978     8750.539     2044.250        2.652        1.075      177.515       50.707        0.082      349.772       30.441      861.604
08/28/2014  19:02:00     -212.002      -81.772      -10.509      122.629       78.150       45.610    15037.937     6107.489     2080.256        3.748        1.161      227.225       49.740        0.048      349.736       30.379      861.618
08/28/2014  19:03:00     -378.335     -137.082      -15.666      151.608      116.457       67.512    22985.124    13562.269     4557.934       10.163        2.055      402.404       72.140        0.032      349.686       30.292      861.613
08/28/2014  19:04:00     -492.469      -47.822      -28.257      171.010      148.317       86.557    29244.376    21997.858     7492.170       15.216        2.937      494.785       83.741        0.029      349.640       30.212      861.608
08/28/2014  19:05:00     -437.468     -105.860      -34.289      127.239      109.530       62.594    16189.720    11996.929     3918.047       11.793        1.605      450.094       58.220        0.017      349.629       30.193      861.605
08/28/2014  19:06:00     -236.281      -57.888       -0.227      113.084      118.545       55.217    12787.898    14052.901     3048.944        4.453        1.494      243.269       41.045        0.028      349.614       30.169      861.632
08/28/2014  19:07:00     -130.719      -41.128        9.671      128.565       83.665       59.300    16528.941     6999.837     3516.452        2.295        1.352      137.037       78.027        0.324      349.546       30.051      861.648
08/28/2014  19:08:00     -327.095      -31.756       -9.521      242.002      144.021       78.531    58564.829    20742.144     6167.092        9.677        4.274      328.633       49.455        0.023      349.547       30.052      861.632
08/28/2014  19:09:00     -337.356      -22.523       -2.529      169.559      121.326       80.186    28750.133    14720.065     6429.842        8.210        2.495      338.107       82.044        0.059      349.499       29.969      861.614
08/28/2014  19:10:00     -316.339     -276.704       12.926      271.768      235.235      122.368    73857.576    55335.400    14973.909       16.046        7.208      420.280      152.819        0.132      349.447       29.880      861.594
08/28/2014  19:11:00     -288.854     -162.737        2.762      197.478      186.689      101.788    38997.496    34852.656    10360.822        9.705        4.211      331.542       99.254        0.090      349.441       29.867      861.602
08/28/2014  19:12:00     -295.387     -192.929      -12.187      172.261      179.773       87.906    29673.973    32318.448     7727.504        9.716        3.486      352.810       85.327        0.058      349.445       29.874      861.613
08/28/2014  19:13:00     -355.154     -132.104        5.574      271.287      157.379       88.719    73596.733    24768.150     7871.096       12.491        5.312      378.927      104.135        0.076      349.415       29.822      861.627
08/28/2014  19:14:00     -334.238     -228.410       -0.637      253.196      198.818      106.392    64108.295    39528.539    11319.328       13.940        5.748      404.829      135.464        0.112      349.370       29.745      861.630
08/28/2014  19:15:00     -535.901     -171.459      -28.330      213.397      181.840      107.529    45538.492    33065.903    11562.593       20.376        4.508      562.662      110.952        0.039      349.331       29.677      861.660
08/28/2014  19:16:00     -240.338     -145.378       17.500      186.637      127.216       98.895    34833.360    16183.920     9780.151        6.999        3.040      280.886      105.532        0.141      349.319       29.656      861.674
08/28/2014  19:17:00     -164.158     -181.412       18.842      182.707      145.299      116.970    33381.693    21111.690    13681.955        6.418        3.409      244.659      135.100        0.305      349.281       29.592      861.695
08/28/2014  19:18:00     -235.831     -196.316        3.710      154.422      133.384       84.518    23846.184    17791.232     7143.354        7.147        2.439      306.849       70.560        0.053      349.292       29.610      861.702
08/28/2014  19:19:00     -422.936     -157.631      -22.159      190.259      183.648       90.191    36198.444    33726.610     8134.352       14.112        3.903      451.356       87.776        0.038      349.270       29.571      861.704
08/28/2014  19:20:00     -389.233     -205.809       -4.321      228.978      213.221       93.789    52431.149    45462.997     8796.458       15.026        5.335      440.295       92.045        0.044      349.239       29.519      861.701
08/28/2014  19:21:00     -265.912     -145.756        4.081      243.191      229.502      102.725    59141.920    52671.359    10552.328       10.714        6.118      303.239      120.895        0.159      349.214       29.476      861.694
08/28/2014  19:22:00     -424.867     -283.085       -6.826      210.054      188.446      101.695    44122.497    35511.863    10341.848       17.532        4.499      510.539      103.604        0.041      349.210       29.468      861.691
08/28/2014  19:23:00     -252.922      -54.000       -7.645      129.979      109.297       67.457    16894.618    11945.795     4550.384        5.016        1.670      258.623       67.841        0.069      349.209       29.467      861.751
08/28/2014  19:24:00     -361.773      -87.602       -8.737      203.096      152.145       76.874    41247.982    23148.237     5909.661       10.445        3.515      372.228       90.852        0.060      349.175       29.407      861.764
08/28/2014  19:25:00     -360.898      -85.713       -9.466      179.035      184.595       68.271    32053.433    34075.286     4660.921       10.422        3.539      370.937       79.806        0.046      349.164       29.387      861.766
08/28/2014  19:26:00     -226.457      -62.123      -13.025      137.800      125.161       62.623    18988.895    15665.169     3921.633        4.694        1.929      234.823       71.948        0.094      349.136       29.339      861.788
08/28/2014  19:27:00     -283.006     -100.306       -5.501      156.203      113.776       71.064    24399.406    12944.955     5050.135        6.628        2.120      300.256       81.163        0.073      349.106       29.284      861.821
08/28/2014  19:28:00     -239.152     -112.516      -11.675      116.542      117.178       50.775    13582.151    13730.786     2578.122        4.993        1.495      264.298       48.235        0.033      349.100       29.274      861.835
08/28/2014  19:29:00     -229.423        3.865        0.214      119.562       90.031       55.385    14295.001     8105.660     3067.507        3.905        1.273      229.456       47.442        0.043      349.047       29.184      861.858
08/28/2014  19:30:00     -410.818      -97.540      -12.429      265.726      138.798       84.099    70610.337    19264.854     7072.568       13.767        4.847      422.239      109.261        0.067      349.068       29.221      861.863
08/28/2014  19:31:00     -419.082      -38.028      -18.279      175.060      121.259       70.435    30646.046    14703.712     4961.087       11.385        2.516      420.803       68.635        0.027      349.048       29.185      861.876
08/28/2014  19:32:00     -415.304     -106.452      -22.721      175.640      115.469       79.412    30849.338    13333.187     6306.223       11.740        2.524      428.730       91.134        0.045      349.040       29.171      861.890
08/28/2014  19:33:00     -208.091     -113.351        3.510      145.790       97.414       64.138    21254.630     9489.504     4113.664        4.550        1.743      236.961       78.349        0.109      348.982       29.073      861.932
08/28/2014  19:34:00     -383.509     -230.395      -11.783      177.497      146.683       78.380    31505.349    21515.777     6143.483       12.972        2.958      447.393       87.690        0.038      348.994       29.091      861.917
08/28/2014  19:35:00     -166.095      -49.441       18.403      126.895      103.385       53.976    16102.437    10688.378     2913.388        3.003        1.485      173.298       59.471        0.118      348.957       29.032      861.941
08/28/2014  19:36:00     -313.348      -26.590        2.322      168.867      118.822       76.593    28515.955    14118.593     5866.454        7.369        2.425      314.474       87.139        0.077      348.919       28.963      861.980
08/28/2014  19:37:00     -300.484     -189.770      -20.341      161.487      151.524       75.952    26077.926    22959.451     5768.699        9.075        2.740      355.392       79.184        0.050      348.892       28.917      861.976
08/28/2014  19:38:00     -188.448     -166.840       10.156      173.005      147.980       88.992    29930.638    21897.945     7919.665        6.159        2.987      251.691       89.019        0.125      348.852       28.846      861.978
08/28/2014  19:39:00     -264.035     -126.898       -1.553      150.602      119.859       79.306    22680.913    14366.204     6289.389        6.457        2.167      292.947       73.403        0.063      348.846       28.836      862.012
08/28/2014  19:40:00     -280.662      -45.975      -15.480      239.076      147.841       94.325    57157.514    21857.076     8897.165        8.450        4.396      284.403      124.331        0.191      348.831       28.814      862.026
08/28/2014  19:41:00     -330.071      -66.023       -1.048      178.350      140.990       78.831    31808.887    19878.263     6214.298        8.559        2.895      336.609       76.889        0.052      348.820       28.791      862.044
08/28/2014  19:42:00     -263.725     -119.370       -4.929      235.352      174.371       84.362    55390.402    30405.282     7116.879        8.835        4.646      289.482      116.387        0.162      348.815       28.783      862.066
08/28/2014  19:43:00     -387.340     -127.902       -3.728      206.036      153.051       80.678    42450.665    23424.746     6508.974       11.938        3.619      407.911       99.639        0.060      348.796       28.750      862.090
08/28/2014  19:44:00     -389.937     -184.403      -10.965      213.458      172.701       94.270    45564.372    29825.797     8886.759       13.521        4.214      431.341      117.844        0.075      348.777       28.716      862.087
08/28/2014  19:45:00     -238.287      -90.448        6.043      179.722      130.764       86.510    32300.140    17099.269     7483.973        6.093        2.844      254.875      104.824        0.169      348.753       28.677      862.119
08/28/2014  19:46:00     -449.783      -48.364      -27.127      216.284      108.959       87.118    46778.761    11872.150     7589.469       13.580        3.312      452.376       96.759        0.046      348.743       28.659      862.135
08/28/2014  19:47:00     -278.901     -118.281        7.405      194.713      163.297       90.301    37913.056    26665.752     8154.200        8.227        3.637      302.946       85.710        0.080      348.713       28.607      862.130
08/28/2014  19:48:00     -212.583      -96.629        2.914      151.241      112.519       70.395    22873.848    12660.556     4955.389        4.751        2.024      233.513       83.239        0.127      348.677       28.547      862.141
08/28/2014  19:49:00     -206.367      -71.968       -6.582      167.729      161.293       77.460    28133.020    26015.491     6000.057        5.397        3.007      218.556       73.367        0.113      348.669       28.533      862.128
08/28/2014  19:50:00     -483.992      -86.123      -18.023      197.579      147.543       97.345    39037.371    21768.924     9476.111       15.612        3.514      491.595      102.694        0.044      348.677       28.546      862.122
08/28/2014  19:51:00     -284.452     -170.465       -1.540      191.012      150.895       78.910    36485.637    22769.395     6226.743        8.771        3.274      331.619       94.299        0.081      348.654       28.505      862.121
08/28/2014  19:52:00     -287.472     -100.061        0.620      197.498      134.188       74.983    39005.314    18006.547     5622.483        7.763        3.132      304.388       90.812        0.089      348.645       28.490      862.135
08/28/2014  19:53:00     -190.725     -131.731       -9.155      178.602      111.582       74.592    31898.668    12450.632     5563.892        5.185        2.496      231.795       66.134        0.081      348.664       28.524      862.143
08/28/2014  19:54:00     -448.171      -37.879      -18.025      172.289      131.002       89.902    29683.647    17161.424     8082.291       12.876        2.746      449.769       92.868        0.043      348.656       28.508      862.165
08/28/2014  19:55:00     -233.864      -55.099        5.175      144.657      103.963       75.644    20925.697    10808.340     5722.040        4.760        1.873      240.267       69.794        0.084      348.599       28.410      862.198
08/28/2014  19:56:00     -279.550      -57.013       -4.437      158.420       93.421       61.712    25096.896     8727.450     3808.413        5.952        1.882      285.305       64.022        0.050      348.592       28.397      862.225
08/28/2014  19:57:00     -180.927     -101.224        8.994      143.150      111.317       65.097    20491.906    12391.550     4237.682        4.008        1.856      207.318       58.476        0.080      348.545       28.317      862.214
08/28/2014  19:58:00     -304.739      -64.965        3.410      207.826      106.308       64.674    43191.809    11301.428     4182.774        7.788        2.934      311.587       92.254        0.088      348.548       28.320      862.228
08/28/2014  19:59:00     -330.480      -65.350      -11.320      205.419      114.145       76.239    42196.927    13029.157     5812.461        8.731        3.052      336.879       97.654        0.084      348.527       28.284      862.229
08/28/2014  20:00:00     -430.156     -115.662      -24.641      132.320      141.546       71.504    17508.691    20035.274     5112.780       12.083        2.133      445.434       63.104        0.020      348.541       28.308      862.228
08/28/2014  20:01:00     -223.854     -112.709       -2.071      147.173      114.614       66.009    21659.966    13136.327     4357.130        5.098        1.958      250.627       73.063        0.085      348.514       28.261      862.241
08/28/2014  20:02:00     -424.464      -52.230      -19.362      219.329      127.658       83.621    48105.014    16296.669     6992.555       12.732        3.570      427.665      110.579        0.067      348.525       28.280      862.251
08/28/2014  20:03:00     -455.285      -98.705       -7.662      171.444      139.122       79.115    29393.085    19354.977     6259.181       13.604        2.750      465.862       75.175        0.026      348.516       28.263      862.259
08/28/2014  20:04:00     -270.018     -109.567       -0.345      112.730      103.168       60.562    12707.987    10643.577     3667.790        5.596        1.351      291.401       52.925        0.033      348.463       28.174      862.277
08/28/2014  20:05:00     -427.516      -48.142      -30.097      122.572      127.321       68.836    15023.986    16210.713     4738.423       11.098        1.799      430.218       67.804        0.025      348.469       28.184      862.283
08/28/2014  20:06:00     -393.955      -67.166      -26.040      165.155      144.711       77.814    27276.335    20941.211     6055.008       10.732        2.714      399.640       85.674        0.046      348.470       28.187      862.290
08/28/2014  20:07:00     -486.697     -100.842      -23.347      183.692      142.126       84.624    33742.643    20199.824     7161.163       15.433        3.055      497.035       81.144        0.027      348.437       28.129      862.313
08/28/2014  20:08:00     -379.823      -88.319      -46.619      138.615      132.155       59.414    19214.004    17464.953     3530.000        9.722        2.010      389.956       61.735        0.025      348.428       28.113      862.316
08/28/2014  20:09:00     -458.834       25.763      -28.432      177.614      130.617       68.932    31546.781    17060.722     4751.555       13.267        2.668      459.557       84.349        0.034      348.424       28.106      862.332
08/28/2014  20:10:00     -303.168      -83.962      -22.666      104.448       97.739       51.384    10909.458     9552.908     2640.287        6.128        1.155      314.580       44.131        0.020      348.382       28.033      862.336
08/28/2014  20:11:00     -308.003      -35.932      -14.825      101.375      115.247       51.610    10276.826    13281.892     2663.579        6.129        1.311      310.092       48.158        0.024      348.371       28.012      862.352
08/28/2014  20:12:00     -304.160      -81.572       -8.874      136.841      113.461       63.951    18725.534    12873.371     4089.748        6.746        1.784      314.909       58.776        0.035      348.354       27.985      862.347
08/28/2014  20:13:00     -249.620      -48.210       -3.682      133.113      106.282       50.911    17719.047    11295.901     2591.885        4.812        1.580      254.233       51.683        0.041      348.323       27.931      862.368
08/28/2014  20:14:00     -235.935      -75.208       -7.538      187.458      114.333       64.286    35140.432    13072.117     4132.630        5.685        2.617      247.631       81.090        0.107      348.314       27.917      862.362
08/28/2014  20:15:00     -415.893     -110.050      -17.479      150.945      133.606       65.354    22784.330    17850.548     4271.133       11.514        2.245      430.207       55.554        0.017      348.347       27.971      862.374
08/28/2014  20:16:00     -308.717      -23.441      -17.292      149.796      131.277       56.996    22438.739    17233.602     3248.499        6.953        2.146      309.605       62.998        0.041      348.284       27.863      862.357
08/28/2014  20:17:00     -309.204      -15.901      -17.297      133.723      104.913       62.718    17881.957    11006.736     3933.492        6.448        1.641      309.613       65.014        0.044      348.281       27.859      862.374
08/28/2014  20:18:00     -350.822      -98.460      -20.992      131.808      128.036       65.675    17373.381    16393.163     4313.226        8.564        1.904      364.377       56.176        0.024      348.286       27.866      862.386
08/28/2014  20:19:00     -218.375      -58.333       -2.031      145.351      125.910       71.583    21126.787    15853.234     5124.074        4.659        2.105      226.031       75.754        0.112      348.246       27.799      862.394
08/28/2014  20:20:00     -267.558      -72.903       -1.518      138.115      116.631       62.274    19075.796    13602.772     3878.027        5.672        1.828      277.312       72.236        0.068      348.277       27.851      862.402
08/28/2014  20:21:00     -302.544      -15.504      -28.524      122.289      123.263       56.959    14954.641    15193.835     3244.353        6.298        1.670      302.941       49.586        0.027      348.267       27.835      862.413
08/28/2014  20:22:00     -348.809      -90.213       -8.516      160.884      132.564       64.145    25883.732    17573.114     4114.619        8.872        2.379      360.286       61.685        0.029      348.274       27.846      862.406
08/28/2014  20:23:00     -375.677        4.489       -5.276      174.610      131.616       88.408    30488.603    17322.664     7815.950        9.839        2.781      375.704       90.830        0.058      348.256       27.816      862.408
08/28/2014  20:24:00     -526.727      -96.833      -18.843      205.955      162.525       82.661    42417.578    26414.453     6832.904       18.140        3.783      535.554       91.715        0.029      348.301       27.892      862.405
08/28/2014  20:25:00     -390.414     -105.308      -27.203      164.983      130.633       77.412    27219.300    17065.068     5992.601       10.726        2.514      404.368       80.144        0.039      348.265       27.829      862.390
08/28/2014  20:26:00     -342.827      -80.004      -12.915      113.244      109.655       67.584    12824.276    12024.285     4567.614        7.675        1.471      352.038       62.943        0.032      348.216       27.747      862.416
08/28/2014  20:27:00     -346.109     -136.295       -9.929      124.826       97.717       62.373    15581.555     9548.555     3890.397        8.374        1.451      371.979       58.521        0.025      348.192       27.704      862.413
08/28/2014  20:28:00     -347.451      -64.069      -13.414      130.698      110.246       65.272    17081.862    12154.249     4260.497        7.924        1.675      353.308       65.310        0.034      348.169       27.665      862.422
08/28/2014  20:29:00     -395.235     -130.169      -19.748      155.332       97.807       61.162    24128.092     9566.123     3740.833       10.548        1.872      416.119       64.802        0.024      348.167       27.662      862.408
08/28/2014  20:30:00     -478.712      -58.816      -24.069      181.349      185.944       87.818    32887.561    34575.046     7711.922       15.417        3.759      482.312       86.082        0.032      348.184       27.692      862.411
08/28/2014  20:31:00     -188.557     -106.307       11.381      153.196      129.048       71.928    23469.139    16653.396     5173.596        4.613        2.265      216.460       76.824        0.126      348.121       27.583      862.403
08/28/2014  20:32:00     -253.240      -10.198       11.451      209.213      137.087       90.161    43769.955    18792.905     8129.020        6.751        3.535      253.445      105.877        0.175      348.108       27.560      862.397
08/28/2014  20:33:00     -295.449      -28.079       -6.890      218.741      154.245       67.769    47847.503    23791.552     4592.676        8.216        3.812      296.780       61.906        0.044      348.143       27.622      862.393
08/28/2014  20:34:00     -316.990      -38.824       -6.520      145.049      109.309       74.980    21039.279    11948.557     5621.963        7.031        1.930      319.358       70.825        0.049      348.093       27.533      862.435
08/28/2014  20:35:00     -399.627      -16.267       -7.389      214.895      169.332       99.131    46179.670    28673.165     9826.885       12.233        4.234      399.958      115.681        0.084      348.118       27.578      862.431
08/28/2014  20:36:00     -559.768      -16.045      -36.780      218.453      213.576      101.556    47721.815    45614.886    10313.702       20.928        5.183      559.998      105.015        0.035      348.157       27.644      862.412
08/28/2014  20:37:00     -389.786      -42.309        0.266      201.035      134.688       83.284    40415.201    18140.879     6936.176       10.959        3.275      392.076      101.026        0.066      348.084       27.517      862.449
08/28/2014  20:38:00     -383.459     -111.538      -13.075      171.808      149.345       80.264    29518.006    22304.002     6442.260       10.895        2.913      399.351       88.469        0.049      348.095       27.536      862.445
08/28/2014  20:39:00     -445.501      -46.903      -22.833      155.207      159.311       77.723    24089.206    25379.907     6040.925       12.834        2.776      447.964       75.668        0.029      348.086       27.521      862.483
08/28/2014  20:40:00     -334.926      -51.875      -10.394      177.134      127.500       62.962    31376.338    16256.262     3964.196        8.328        2.580      338.919       82.244        0.059      348.069       27.493      862.502
08/28/2014  20:41:00     -356.042      -39.822      -23.333      188.388      154.757       65.921    35489.945    23949.593     4345.615        9.633        3.189      358.262       67.571        0.036      348.048       27.456      862.505
08/28/2014  20:42:00     -412.234      -95.414       -4.735      151.843      145.803       70.776    23056.334    21258.491     5009.294       11.418        2.466      423.132       73.567        0.030      348.055       27.469      862.542
08/28/2014  20:43:00     -456.420     -165.902      -24.312      190.939      131.357       78.178    36457.841    17254.541     6111.871       14.812        2.991      485.637       82.964        0.029      348.083       27.516      862.545
08/28/2014  20:44:00     -229.138     -139.322       -1.788      145.561      103.936       65.699    21187.947    10802.746     4316.310        5.411        1.815      268.170       71.986        0.072      347.997       27.369      862.587
08/28/2014  20:45:00     -310.833     -120.298      -15.687      111.142      105.410       63.424    12352.558    11111.363     4022.651        6.941        1.374      333.300       52.179        0.025      348.041       27.445      862.604
08/28/2014  20:46:00     -170.834      -29.317       -4.875       72.627       87.675       41.456     5274.749     7686.870     1718.567        2.237        0.734      173.331       40.274        0.054      347.989       27.357      862.612
08/28/2014  20:47:00     -249.126      -96.665      -19.116      122.469      104.331       71.114    14998.709    10884.864     5057.139        5.135        1.547      267.222       63.143        0.056      347.978       27.337      862.620
08/28/2014  20:48:00     -202.674       88.066      -17.815      119.391       96.426       45.845    14254.319     9297.934     2101.720        3.740        1.283      220.981       44.930        0.041      347.956       27.296      862.634
08/28/2014  20:49:00     -208.007      -38.953      -12.024       90.391       63.867       44.012     8170.449     4079.022     1937.020        2.955        0.709      211.623       39.494        0.035      347.915       27.227      862.661
08/28/2014  20:50:00     -226.645       -8.385       -9.216      114.778       80.371       51.272    13173.924     6459.495     2628.808        3.689        1.113      226.800       58.773        0.067      347.885       27.174      862.646
08/28/2014  20:51:00     -323.420      -49.005      -22.535      119.028      105.456       59.440    14167.771    11120.892     3533.117        6.816        1.441      327.112       56.717        0.030      347.920       27.236      862.660
08/28/2014  20:52:00     -281.689      -63.786      -21.199       94.023       94.548       43.305     8840.353     8939.398     1875.342        5.176        0.983      288.820       35.946        0.015      347.896       27.194      862.700
08/28/2014  20:53:00     -292.910       23.874      -23.389      127.740      101.766       59.366    16317.485    10356.224     3524.379        5.855        1.510      293.881       60.983        0.043      347.890       27.183      862.721
08/28/2014  20:54:00     -302.809       36.454      -28.823       99.136       71.013       45.684     9827.887     5042.827     2087.067        5.540        0.848      304.995       42.118        0.019      347.842       27.098      862.751
08/28/2014  20:55:00     -198.912      -50.878        8.550      175.418       88.113       72.574    30771.444     7763.817     5267.032        4.301        2.190      205.316       83.290        0.165      347.817       27.057      862.751
08/28/2014  20:56:00     -288.496      -85.153      -12.218      101.803      129.847       51.669    10363.807    16860.213     2669.712        6.026        1.495      300.800       37.865        0.016      347.830       27.078      862.771
08/28/2014  20:57:00     -210.424      -39.995      -19.078      106.175      132.119       45.266    11273.208    17455.362     2049.031        3.850        1.539      214.192       48.977        0.052      347.807       27.041      862.804
08/28/2014  20:58:00     -151.581      -28.860      -12.670      125.091       65.252       60.234    15647.681     4257.876     3628.085        2.375        1.177      154.304       61.131        0.157      347.808       27.042      862.798
08/28/2014  20:59:00      -79.363      -10.584        5.199       59.627       66.098       42.273     3555.378     4368.904     1787.015        0.807        0.486       80.066       36.899        0.212      347.781       27.000      862.798
08/28/2014  21:00:00     -168.848       52.276      -17.572      156.232      100.103       53.310    24408.590    10020.647     2841.979        3.440        1.864      176.755       55.033        0.097      347.732       26.913      862.818
08/28/2014  21:01:00     -163.758       -9.405      -18.479       99.621       73.313       37.593     9924.261     5374.793     1413.225        2.198        0.836      164.028       40.459        0.061      347.708       26.870      862.828
08/28/2014  21:02:00     -161.857       -1.882      -20.064      116.836       47.489       35.234    13650.724     2255.184     1241.450        2.187        0.857      161.868       40.802        0.064      347.658       26.786      862.837
08/28/2014  21:03:00     -276.903      -87.405      -18.198      112.490      104.997       52.918    12654.076    11024.425     2800.344        5.556        1.324      290.370       56.513        0.038      347.700       26.856      862.847
08/28/2014  21:04:00     -190.909      -68.323       -8.136      100.498       61.745       41.162    10099.776     3812.471     1694.350        2.839        0.780      202.767       38.739        0.037      347.617       26.712      862.848
08/28/2014  21:05:00     -185.969        5.605       -8.774       79.150       89.129       49.227     6264.728     7943.949     2423.336        2.566        0.832      186.054       45.532        0.060      347.625       26.728      862.855
08/28/2014  21:06:00     -207.418      -50.584      -15.612       85.528       56.889       30.654     7315.091     3236.306      939.648        2.866        0.575      213.497       21.817        0.010      347.656       26.782      862.876
08/28/2014  21:07:00     -147.724      -16.026       -0.167      103.555       58.442       43.147    10723.635     3415.461     1861.671        1.904        0.800      148.591       43.834        0.087      347.635       26.746      862.880
08/28/2014  21:08:00      -98.342      -46.534       -7.174       77.102       58.671       39.513     5944.664     3442.246     1561.268        1.142        0.547      108.796       22.759        0.044      347.586       26.662      862.891
08/28/2014  21:09:00      -83.634      -13.124       -8.329       88.358       58.301       39.762     7807.133     3398.948     1581.007        1.001        0.639       84.658       48.468        0.328      347.513       26.536      862.901
08/28/2014  21:10:00     -142.853       47.913      -15.915       93.344       71.293       50.135     8713.015     5082.706     2513.540        1.963        0.815      150.674       42.340        0.079      347.573       26.638      862.897
08/28/2014  21:11:00     -306.783      -60.941      -14.028      168.707      109.426       63.260    28462.214    11973.993     4001.864        7.122        2.222      312.778       61.188        0.038      347.598       26.682      862.912
08/28/2014  21:12:00     -276.259       -3.527      -38.975      114.247       95.838       49.244    13052.472     9184.956     2424.943        5.125        1.233      276.281       44.089        0.025      347.599       26.682      862.928
08/28/2014  21:13:00     -284.332      -51.373      -24.751      101.308       76.393       47.189    10263.281     5835.912     2226.846        5.121        0.916      288.935       40.996        0.020      347.598       26.679      862.926
08/28/2014  21:14:00     -194.955      -69.845        1.891       91.196       72.792       48.366     8316.785     5298.716     2339.286        2.942        0.798      207.089       54.158        0.068      347.533       26.569      862.927
08/28/2014  21:15:00     -107.664      -46.059        2.712       63.644       73.178       47.983     4050.520     5354.981     2302.356        1.271        0.585      117.102       24.761        0.045      347.519       26.548      862.932
08/28/2014  21:16:00      -44.754       12.156        9.676       74.719       61.489       52.944     5582.876     3780.856     2803.051        0.720        0.608       46.376       51.737        1.245      347.448       26.425      862.929
08/28/2014  21:17:00     -131.123        5.311      -16.091       90.166       71.914       38.755     8129.855     5171.671     1501.960        1.614        0.740      131.230       44.252        0.114      347.465       26.451      862.942
08/28/2014  21:18:00     -148.705       90.752      -26.466      104.113       80.775       36.881    10839.504     6524.634     1360.180        2.488        0.936      174.210       44.945        0.067      347.497       26.507      862.930
08/28/2014  21:19:00     -215.688        4.095      -22.055       76.415      108.084       44.766     5839.196    11682.128     2004.019        3.327        0.976      215.726       30.303        0.020      347.473       26.463      862.920
08/28/2014  21:20:00     -307.131       39.347      -23.322       90.847       96.836       39.301     8253.119     9377.117     1544.582        5.779        0.959      309.641       42.574        0.019      347.476       26.467      862.934
08/28/2014  21:21:00     -352.875     -144.553      -18.036      191.184      103.870       61.652    36551.266    10788.969     3801.004        9.843        2.557      381.335       61.122        0.026      347.512       26.531      862.902
08/28/2014  21:22:00     -352.359      -81.333      -17.274      144.720      104.550       56.082    20943.734    10930.685     3145.162        8.304        1.751      361.624       61.732        0.029      347.542       26.584      862.907
08/28/2014  21:23:00     -244.860      -54.862      -33.198       73.509       69.544       41.530     5403.629     4836.423     1724.777        3.801        0.598      250.931       25.067        0.010      347.502       26.513      862.921
08/28/2014  21:24:00     -147.125      -29.473      -12.546      108.283       61.600       47.907    11725.224     3794.582     2295.070        2.024        0.891      150.048       61.057        0.166      347.429       26.389      862.917
08/28/2014  21:25:00     -216.512      -72.972       -5.851      138.633      106.101       50.668    19219.071    11257.451     2567.261        4.263        1.652      228.478       46.395        0.041      347.386       26.314      862.917
08/28/2014  21:26:00     -307.569      -90.149      -23.272      107.961       89.643       59.354    11655.576     8035.912     3522.868        6.324        1.161      320.508       58.024        0.033      347.454       26.430      862.918
08/28/2014  21:27:00     -322.027      -31.883      -22.099      112.809      133.099       55.685    12725.842    17715.289     3100.833        6.937        1.677      323.601       62.182        0.037      347.427       26.382      862.920
08/28/2014  21:28:00     -233.201      -71.922       -9.421      110.193       94.743       52.050    12142.393     8976.258     2709.152        4.173        1.191      244.039       59.420        0.059      347.402       26.340      862.913
08/28/2014  21:29:00     -287.210     -107.150      -10.655      104.156       76.551       52.029    10848.524     5860.119     2706.994        5.675        0.971      306.546       51.933        0.029      347.408       26.350      862.915
08/28/2014  21:30:00     -331.583      -96.731      -29.979      132.057      110.267       55.221    17439.132    12158.807     3049.360        7.642        1.632      345.405       64.470        0.035      347.401       26.339      862.925
08/28/2014  21:31:00     -217.630      -81.161       11.710      150.004       99.351       63.286    22501.185     9870.619     4005.100        4.522        1.819      232.271       81.252        0.122      347.388       26.317      862.935
08/28/2014  21:32:00     -315.365       13.265      -25.282      133.337       73.319       53.566    17778.741     5375.721     2869.283        6.314        1.301      315.643       51.827        0.027      347.395       26.330      862.938
08/28/2014  21:33:00     -332.985      -10.151      -24.535      138.987      106.883       64.942    19317.375    11423.959     4217.402        7.326        1.748      333.140       70.255        0.044      347.408       26.352      862.937
08/28/2014  21:34:00     -309.927       15.807      -22.308      111.148       94.377       55.498    12353.864     8907.026     3080.054        6.057        1.217      310.330       49.796        0.026      347.414       26.361      862.916
08/28/2014  21:35:00     -320.319       23.791      -28.126       92.776       95.551       46.952     8607.384     9129.985     2204.476        6.195        0.997      321.201       41.395        0.017      347.392       26.324      862.894
08/28/2014  21:36:00     -205.671      -79.659       -3.199       98.267       88.172       47.165     9656.333     7774.258     2224.530        3.415        0.983      220.559       50.776        0.053      347.346       26.246      862.894
08/28/2014  21:37:00     -366.683       19.368      -36.160      143.298       94.763       58.725    20534.414     8980.016     3448.588        8.454        1.648      367.194       59.691        0.026      347.363       26.275      862.904
08/28/2014  21:38:00     -258.153       -3.048      -16.915      128.026       84.029       54.360    16390.636     7060.887     2954.986        4.667        1.320      258.171       50.150        0.038      347.299       26.163      862.910
08/28/2014  21:39:00     -260.163       -6.311        2.523      149.704      127.550       62.833    22411.431    16269.091     3947.983        5.517        2.131      260.239       77.270        0.088      347.306       26.177      862.903
08/28/2014  21:40:00     -247.507     -153.699      -13.417      121.285       83.934       54.731    14710.077     7044.891     2995.493        5.490        1.238      291.347       48.705        0.028      347.326       26.210      862.905
08/28/2014  21:41:00     -224.452     -105.808       -1.154      122.625       86.857       58.431    15036.947     7544.115     3414.222        4.378        1.300      248.141       56.982        0.053      347.303       26.172      862.883
08/28/2014  21:42:00     -238.596        1.855       -1.409      132.907       95.227       55.853    17664.172     9068.196     3119.528        4.339        1.493      238.603       54.097        0.051      347.264       26.105      862.900
08/28/2014  21:43:00     -383.783      -46.914       -2.150      190.151      123.579       82.112    36157.464    15271.828     6742.344       10.382        2.909      386.640       91.032        0.055      347.344       26.242      862.892
08/28/2014  21:44:00     -155.166      -72.021        0.190      134.558       96.396       63.773    18105.814     9292.162     4066.987        3.036        1.573      171.066       57.030        0.111      347.325       26.210      862.899
08/28/2014  21:45:00     -155.717      -17.775        2.580      115.271       87.348       47.820    13287.342     7629.586     2286.797        2.388        1.160      156.728       49.875        0.101      347.295       26.160      862.896
08/28/2014  21:46:00     -370.085      -19.764      -26.046      124.343       78.032       55.789    15461.295     6088.937     3112.392        8.134        1.233      370.612       54.065        0.021      347.347       26.245      862.901
08/28/2014  21:47:00     -298.226      -10.214       -2.178      115.571      118.861       64.473    13356.547    14127.883     4156.813        6.034        1.582      298.401       62.157        0.043      347.262       26.100      862.893
08/28/2014  21:48:00     -233.136      -29.521       -1.117      129.505      102.643       64.823    16771.421    10535.520     4202.021        4.336        1.575      234.997       63.766        0.074      347.246       26.073      862.894
08/28/2014  21:49:00     -352.238      -61.601      -21.332       95.012       63.795       43.635     9027.234     4069.807     1904.034        7.166        0.750      357.584       50.505        0.020      347.236       26.055      862.896
08/28/2014  21:50:00     -311.380       11.646      -16.926      120.026      111.525       60.639    14406.342    12437.762     3677.062        6.394        1.526      311.597       65.141        0.044      347.207       26.005      862.882
08/28/2014  21:51:00     -254.557      -35.468      -14.779      127.409       91.384       53.858    16232.972     8350.974     2900.668        4.687        1.374      257.016       60.004        0.055      347.162       25.929      862.878
08/28/2014  21:52:00     -372.571      -17.493      -35.773      135.091       93.857       52.797    18249.646     8809.219     2787.539        8.511        1.492      372.981       54.345        0.021      347.171       25.943      862.870
08/28/2014  21:53:00     -265.320      -44.166      -12.041      137.460      103.935       54.465    18895.175    10802.507     2966.423        5.257        1.633      268.970       54.209        0.041      347.162       25.929      862.848
08/28/2014  21:54:00     -321.456      -37.746       -8.462      134.126      118.055       74.172    17989.863    13937.049     5501.508        7.112        1.871      323.664       65.635        0.041      347.151       25.909      862.865
08/28/2014  21:55:00     -314.574      -75.554       -9.391      173.608      141.012       65.946    30139.825    19884.402     4348.887        7.955        2.719      323.519       72.065        0.050      347.177       25.953      862.858
08/28/2014  21:56:00     -324.035      -55.243      -15.751      132.456      111.356       66.473    17544.627    12400.212     4418.646        7.132        1.718      328.710       73.578        0.050      347.159       25.923      862.870
08/28/2014  21:57:00     -435.743      -86.801      -32.104      127.376      126.876       66.914    16224.707    16097.414     4477.524       11.761        1.840      444.304       58.947        0.018      347.207       26.005      862.878
08/28/2014  21:58:00     -187.779      -67.634       -0.538      138.747       92.438       56.506    19250.741     8544.707     3192.942        3.541        1.549      199.588       65.863        0.109      347.126       25.868      862.891
08/28/2014  21:59:00     -192.157      -63.372       -8.489       98.631       63.153       40.572     9728.081     3988.248     1646.105        2.818        0.768      202.337       43.821        0.047      347.119       25.855      862.893
08/28/2014  22:00:00     -177.796        7.078       -7.689       96.707      103.317       46.032     9352.157    10674.326     2118.917        2.693        1.107      177.936       47.290        0.071      347.061       25.756      862.888
08/28/2014  22:01:00     -246.876     -116.392       -4.891      121.793      101.982       59.627    14833.435    10400.285     3555.327        5.165        1.439      272.937       56.670        0.043      347.090       25.804      862.896
08/28/2014  22:02:00     -178.633      -45.443      -11.060       79.501       95.031       47.515     6320.350     9030.980     2257.698        2.585        0.880      184.323       34.497        0.035      347.054       25.742      862.895
08/28/2014  22:03:00     -271.505      -43.478      -19.505      107.770       73.372       48.842    11614.400     5383.402     2385.584        4.768        0.969      274.964       50.627        0.034      347.060       25.751      862.912
08/28/2014  22:04:00     -300.100      -35.602      -20.675       96.629       92.594       47.212     9337.216     8573.660     2228.933        5.594        1.007      302.204       46.476        0.024      347.058       25.749      862.922
08/28/2014  22:05:00     -223.131      -82.054      -18.263       87.877       89.622       46.563     7722.293     8032.136     2168.126        3.738        0.896      237.740       32.976        0.019      347.059       25.749      862.931
08/28/2014  22:06:00     -289.456       28.021      -25.137      109.104       94.476       52.695    11903.735     8925.622     2776.741        5.440        1.180      290.809       45.902        0.025      347.006       25.659      862.944
08/28/2014  22:07:00     -262.873      -52.674      -11.052      107.026       68.199       55.021    11454.466     4651.037     3027.303        4.556        0.957      268.098       55.734        0.043      346.976       25.606      862.947
08/28/2014  22:08:00     -291.617      -78.036      -19.097       86.312       98.217       45.156     7449.798     9646.565     2039.036        5.531        0.957      301.877       30.546        0.010      347.038       25.713      862.961
08/28/2014  22:09:00     -281.486        9.808      -20.934      101.977       88.078       50.524    10399.307     7757.704     2552.667        5.024        1.035      281.657       43.978        0.024      346.997       25.642      862.965
08/28/2014  22:10:00     -301.574       30.855      -24.966      141.586       79.053       48.059    20046.663     6249.306     2309.673        6.056        1.430      303.149       65.558        0.047      347.045       25.727      862.969
08/28/2014  22:11:00     -183.828       30.058      -15.577       91.716       77.548       35.621     8411.907     6013.761     1268.864        2.531        0.785      186.269       31.505        0.029      347.012       25.671      862.982
08/28/2014  22:12:00     -132.383       67.947       -5.576      114.267       90.992       48.399    13056.919     8279.502     2342.477        2.292        1.184      148.802       57.267        0.148      346.899       25.477      863.010
08/28/2014  22:13:00     -141.387       69.436      -12.917       56.302       63.047       36.056     3169.933     3974.907     1300.044        1.671        0.422      157.518       32.684        0.043      346.894       25.469      863.037
08/28/2014  22:14:00      -77.702       23.872       -0.270       33.162       33.882       28.393     1099.686     1147.979      806.174        0.483        0.153       81.287       20.177        0.062      346.846       25.388      863.044
08/28/2014  22:15:00      -75.891       54.001        4.101       49.219       81.261       39.480     2422.512     6603.343     1558.641        0.964        0.529       93.142       37.191        0.159      346.887       25.457      863.049
08/28/2014  22:16:00      -83.728      123.642      -15.365       57.466       87.546       40.333     3302.368     7664.291     1626.729        1.756        0.630      149.324       38.692        0.067      346.905       25.488      863.069
08/28/2014  22:17:00     -136.436      203.146      -35.291       67.606       60.025       35.607     4570.556     3603.028     1267.892        3.528        0.472      244.711       30.561        0.016      346.964       25.586      863.081
08/28/2014  22:18:00      -85.387      136.153      -15.938       59.815       59.212       33.476     3577.789     3506.046     1120.650        1.714        0.410      160.713       39.946        0.062      346.891       25.464      863.084
08/28/2014  22:19:00      -78.605      202.483      -17.271       59.342       77.532       45.591     3521.496     6011.238     2078.576        2.954        0.581      217.205       37.611        0.030      346.931       25.530      863.086
08/28/2014  22:20:00      -67.432      207.639       -9.273       66.030       63.570       45.380     4359.935     4041.102     2059.387        2.910        0.523      218.314       35.145        0.026      346.988       25.629      863.102
08/28/2014  22:21:00     -118.152      149.270      -15.543       77.166      118.261       62.966     5954.522    13985.626     3964.721        3.019        1.195      190.372       63.602        0.112      347.023       25.690      863.105
08/28/2014  22:22:00     -191.661      138.926      -30.859       63.151       74.556       47.952     3988.108     5558.624     2299.382        3.441        0.592      236.716       44.861        0.036      347.176       25.951      863.105
08/28/2014  22:23:00     -112.220      118.311      -30.126       73.874       51.337       34.902     5457.434     2635.536     1218.149        1.840        0.466      163.067       44.711        0.075      347.155       25.917      863.092
08/28/2014  22:24:00     -132.359      182.953      -35.104       94.082       83.064       40.100     8851.357     6899.558     1607.987        3.479        0.868      225.811       50.953        0.051      347.128       25.869      863.109
08/28/2014  22:25:00     -108.293       99.588      -16.909       65.961       68.566       33.627     4350.840     4701.242     1130.806        1.605        0.509      147.122       32.810        0.050      347.145       25.899      863.119
08/28/2014  22:26:00     -155.258       62.876      -19.792       70.212       36.527       29.893     4929.756     1334.213      893.581        1.780        0.358      167.507       31.965        0.036      347.081       25.791      863.122
08/28/2014  22:27:00     -135.173       30.286      -20.250       45.738       55.948       27.937     2091.935     3130.131      780.483        1.280        0.300      138.525       14.931        0.012      347.052       25.741      863.143
08/28/2014  22:28:00     -222.109      119.202      -40.607       68.393       86.613       40.913     4677.535     7501.840     1673.872        3.952        0.693      252.075       38.427        0.023      347.066       25.762      863.137
08/28/2014  22:29:00     -136.167      -14.482       -2.417      139.542      113.414       46.451    19471.956    12862.634     2157.709        2.662        1.725      136.935       43.535        0.101      346.980       25.615      863.139
08/28/2014  22:30:00     -289.714       71.644      -31.862      104.597       55.595       43.746    10940.503     3090.852     1913.700        5.301        0.797      298.442       43.460        0.021      347.125       25.862      863.138
08/28/2014  22:31:00     -171.865       35.395      -25.735       76.753       77.978       39.136     5891.065     6080.620     1531.601        2.248        0.675      175.472       41.423        0.056      347.019       25.683      863.129
08/28/2014  22:32:00     -113.769      148.884      -11.787       92.801       93.773       63.572     8612.032     8793.432     4041.386        2.834        1.072      187.376       70.725        0.142      347.072       25.774      863.112
08/28/2014  22:33:00     -253.022       -9.896      -21.049      107.784      103.578       57.838    11617.468    10728.346     3345.243        4.512        1.285      253.215       59.142        0.055      347.145       25.899      863.104
08/28/2014  22:34:00     -245.962        6.432      -22.436       84.993      121.988       45.520     7223.805    14881.174     2072.046        4.260        1.209      246.046       28.541        0.013      347.148       25.905      863.094
08/28/2014  22:35:00     -155.747       59.822      -25.217       94.905       75.980       42.147     9007.043     5772.908     1776.347        2.251        0.828      166.841       39.718        0.057      347.109       25.839      863.087
08/28/2014  22:36:00     -151.318       31.186      -17.247       72.759      100.665       40.845     5293.869    10133.486     1668.337        2.063        0.855      154.498       31.678        0.042      346.974       25.605      863.075
08/28/2014  22:37:00     -184.254      -71.527       -6.146       91.448       73.416       46.824     8362.748     5389.918     2192.511        2.752        0.797      197.651       40.401        0.042      347.051       25.738      863.078
08/28/2014  22:38:00     -241.665       -0.895      -14.311      105.099       96.541       49.876    11045.883     9320.254     2487.645        4.073        1.143      241.667       51.630        0.046      347.048       25.731      863.082
08/28/2014  22:39:00     -145.880      127.455      -38.054       79.957       90.696       45.398     6393.153     8225.843     2060.970        2.782        0.834      193.716       39.670        0.042      347.101       25.825      863.052
08/28/2014  22:40:00     -204.117      135.181      -34.661      103.621       97.596       58.332    10737.392     9524.958     3402.570        4.240        1.183      244.822       46.072        0.035      347.112       25.843      863.037
08/28/2014  22:41:00     -166.812      -15.629      -28.832       82.548       73.222       48.979     6814.126     5361.406     2398.972        2.174        0.729      167.543       35.567        0.045      347.093       25.811      863.038
08/28/2014  22:42:00     -198.682      -29.203      -17.551       68.556       83.595       42.394     4699.937     6988.055     1797.239        2.706        0.674      200.817       36.018        0.032      347.071       25.771      863.035
08/28/2014  22:43:00      -65.535       18.915        8.327       70.951       77.094       50.287     5034.059     5943.554     2528.804        0.911        0.675       68.211       49.045        0.517      347.011       25.671      863.033
08/28/2014  22:44:00      -90.832      125.963      -15.321       76.723       88.234       46.237     5886.408     7785.232     2137.824        2.008        0.790      155.297       33.287        0.046      346.998       25.648      863.022
08/28/2014  22:45:00     -108.644       49.735      -23.122       74.063       56.156       41.072     5485.374     3153.442     1686.921        1.257        0.516      119.486       41.250        0.119      346.988       25.634      863.016
08/28/2014  22:46:00      -84.920       -8.020       -2.376       45.849       64.639       35.185     2102.085     4178.146     1237.979        0.740        0.376       85.297       31.561        0.137      347.013       25.675      863.013
08/28/2014  22:47:00     -115.903       -8.839      -17.460       70.740       51.707       27.746     5004.083     2673.572      769.853        1.113        0.422      116.240       24.000        0.043      346.926       25.525      863.020
08/28/2014  22:48:00     -121.687       40.578      -15.455      110.206       72.922       34.682    12145.378     5317.681     1202.852        1.768        0.933      128.274       51.258        0.160      346.857       25.404      863.011
08/28/2014  22:49:00     -119.056       -7.806      -15.763       66.660       72.297       28.481     4443.611     5226.845      811.181        1.248        0.524      119.312       18.545        0.024      346.847       25.388      863.010
08/28/2014  22:50:00     -197.076      -46.236      -15.661       64.808       98.086       43.298     4200.032     9620.894     1874.691        2.846        0.785      202.427       25.914        0.016      346.800       25.306      863.007
08/28/2014  22:51:00      -68.209       36.672        0.351       99.449       71.351       40.871     9890.082     5091.015     1670.462        1.132        0.833       77.443       47.305        0.373      346.720       25.170      862.997
08/28/2014  22:52:00     -103.178       66.006       -4.460       54.962       63.829       35.386     3020.832     4074.177     1252.182        1.168        0.417      122.485       32.899        0.072      346.717       25.165      862.972
08/28/2014  22:53:00      -91.857       72.905      -16.828       47.934       30.439       25.010     2297.696      926.552      625.523        0.894        0.192      117.272       25.748        0.048      346.795       25.300      862.979
08/28/2014  22:54:00      -74.278       61.950      -12.660       57.160       41.064       28.814     3267.256     1686.235      830.261        0.765        0.289       96.721       31.252        0.104      346.794       25.299      862.984
08/28/2014  22:55:00      -49.650        7.274       -4.223       64.188       29.828       30.279     4120.064      889.681      916.788        0.423        0.296       50.180       27.515        0.301      346.752       25.226      862.977
08/28/2014  22:56:00      -67.376       40.790       -3.849       90.937       48.126       30.600     8269.466     2316.065      936.335        0.887        0.576       78.762       15.556        0.039      346.681       25.104      862.950
08/28/2014  22:57:00     -120.047      -31.706        0.822      102.888       65.262       38.250    10586.022     4259.107     1463.024        1.586        0.815      124.163       38.169        0.095      346.747       25.215      862.960
08/28/2014  22:58:00      -77.488      -28.782      -11.508       58.590       50.167       33.569     3432.763     2516.771     1126.856        0.702        0.354       82.661       32.674        0.156      346.687       25.112      862.987
08/28/2014  22:59:00      -47.964       55.378       -8.716       29.913       37.309       23.866      894.775     1391.949      569.581        0.415        0.143       73.261       19.105        0.068      346.640       25.034      862.986
08/28/2014  23:00:00      -60.835       94.730      -14.089       61.037       51.896       37.582     3725.562     2693.240     1412.369        1.035        0.392      112.582       33.620        0.089      346.649       25.048      862.980
08/28/2014  23:01:00      -53.793      139.927       -7.743       61.926       71.055       39.791     3834.852     5048.772     1583.355        1.650        0.523      149.910       23.083        0.024      346.675       25.094      862.958
08/28/2014  23:02:00      -81.575       57.232      -23.048       47.865       88.630       33.247     2291.056     7855.257     1105.376        1.085        0.563       99.649       27.042        0.074      346.659       25.065      862.945
08/28/2014  23:03:00      -78.090       84.427       -0.911       68.426       47.085       44.255     4682.156     2217.029     1958.477        1.104        0.443      115.004       44.900        0.152      346.645       25.041      862.938
08/28/2014  23:04:00     -137.834       79.415      -22.740       90.092       61.072       32.302     8116.495     3729.821     1043.398        1.935        0.644      159.075       34.440        0.047      346.708       25.147      862.954
08/28/2014  23:05:00      -98.115      127.078      -27.142       59.790       50.831       31.395     3574.867     2583.759      985.656        1.683        0.357      160.547       23.967        0.022      346.670       25.082      862.952
08/28/2014  23:06:00     -103.672       39.766      -17.076      112.586       53.959       35.593    12675.704     2911.535     1266.886        1.473        0.843      111.037       40.284        0.132      346.694       25.122      862.934
08/28/2014  23:07:00     -114.609       75.430      -20.644       43.553       62.950       26.453     1896.891     3962.729      699.770        1.290        0.328      137.203       29.251        0.045      346.672       25.087      862.939
08/28/2014  23:08:00     -132.527      150.651      -30.747       64.677       62.308       35.736     4183.055     3882.306     1277.053        2.527        0.467      200.647       29.025        0.021      346.704       25.140      862.937
08/28/2014  23:09:00      -85.807      170.076      -12.793       37.201       56.755       43.741     1383.950     3221.108     1913.300        2.148        0.326      190.496       27.681        0.021      346.601       24.963      862.947
08/28/2014  23:10:00     -129.969       39.330      -19.227       63.598       64.846       30.922     4044.729     4205.014      956.148        1.401        0.460      135.790       31.435        0.054      346.584       24.936      862.972
08/28/2014  23:11:00     -116.386       -6.531       -7.847       72.751       37.608       31.841     5292.748     1414.368     1013.839        1.068        0.386      116.570       29.040        0.062      346.571       24.911      862.977
08/28/2014  23:12:00     -127.507      -45.355      -10.131       59.962       42.126       32.854     3595.460     1774.599     1079.385        1.243        0.322      135.333       26.400        0.038      346.534       24.851      862.976
08/28/2014  23:13:00     -132.028       24.634      -11.660       48.546       40.554       26.153     2356.715     1644.626      684.003        1.143        0.234      134.307       20.554        0.023      346.567       24.907      862.997
08/28/2014  23:14:00     -107.337       22.980        3.028       48.655       46.073       34.692     2367.262     2122.728     1203.553        0.887        0.285      109.769       27.484        0.063      346.451       24.707      863.012
08/28/2014  23:15:00      -29.522       32.964        3.278       29.476       26.144       23.301      868.835      683.486      542.959        0.203        0.105       44.251       21.980        0.247      346.434       24.680      863.011
08/28/2014  23:16:00     -102.678       78.896      -20.257       61.914       56.253       28.258     3833.315     3164.375      798.529        1.249        0.390      129.489       36.431        0.079      346.568       24.909      863.011
08/28/2014  23:17:00      -42.778      106.992       -4.186       40.234       52.182       33.119     1618.798     2722.927     1096.843        0.937        0.272      115.227       27.267        0.056      346.572       24.915      863.015
08/28/2014  23:18:00      -41.475      100.194       -9.675       30.766       44.646       19.252      946.574     1993.237      370.640        0.758        0.166      108.439       14.913        0.019      346.568       24.908      863.013
08/28/2014  23:19:00      -96.104       66.738      -15.286       44.133       35.754       23.873     1947.682     1278.366      569.929        0.886        0.190      117.004       21.332        0.033      346.620       24.999      863.012
08/28/2014  23:20:00     -120.064       71.442      -18.882       41.686       35.950       22.536     1737.707     1292.388      507.882        1.171        0.177      139.712       18.154        0.017      346.464       24.730      863.043
08/28/2014  23:21:00      -65.809       92.843      -14.755       28.810       55.844       27.695      830.030     3118.581      766.994        0.894        0.236      113.800       10.282        0.008      346.573       24.917      863.045
08/28/2014  23:22:00      -99.967      126.939      -22.974       39.582       29.638       22.547     1566.772      878.413      508.376        1.479        0.148      161.576       22.355        0.019      346.725       25.178      863.048
08/28/2014  23:23:00      -18.943      136.167       -2.484       76.923       68.915       36.893     5917.193     4749.262     1361.117        1.546        0.601      137.479       25.843        0.035      346.625       25.008      863.035
08/28/2014  23:24:00     -118.827      161.224      -27.383       40.798       52.114       34.544     1664.457     2715.857     1193.322        2.322        0.279      200.282       28.982        0.021      346.618       24.994      863.032
08/28/2014  23:25:00     -120.352      142.842      -20.064       49.541       62.258       36.490     2454.267     3876.080     1331.554        2.147        0.383      186.784       29.393        0.025      346.527       24.836      863.041
08/28/2014  23:26:00      -54.342       55.003       -2.023       52.637       51.689       29.970     2770.636     2671.802      898.206        0.616        0.317       77.320       32.060        0.172      346.517       24.822      863.026
08/28/2014  23:27:00      -15.164      111.968       -6.199       37.779       38.979       24.648     1427.283     1519.334      607.518        0.818        0.178      112.990       23.315        0.043      346.432       24.676      863.014
08/28/2014  23:28:00      -16.369      129.721      -11.648       42.590       58.969       29.769     1813.921     3477.318      886.214        1.170        0.309      130.750       19.161        0.021      346.561       24.898      862.981
08/28/2014  23:29:00      -58.679      129.419      -17.734       38.286       72.861       31.738     1465.853     5308.739     1007.329        1.414        0.389      142.100       26.110        0.034      346.521       24.826      862.976
08/28/2014  23:30:00      -59.881      110.648      -22.938       36.190       52.144       21.715     1309.682     2718.990      471.525        1.043        0.225      125.812       16.043        0.016      346.660       25.067      862.973
08/28/2014  23:31:00      -26.353       28.594        9.703       59.212       78.259       41.141     3506.114     6124.527     1692.615        0.646        0.566       38.886       39.350        1.024      346.587       24.942      862.972
08/28/2014  23:32:00      -96.626       77.307      -22.908       31.072       36.747       23.174      965.484     1350.371      537.056        0.934        0.143      123.745       17.674        0.020      346.609       24.980      862.981
08/28/2014  23:33:00     -100.087       88.942      -22.616       40.454       56.371       29.559     1636.500     3177.735      873.742        1.206        0.284      133.896       26.058        0.038      346.552       24.880      862.983
08/28/2014  23:34:00      -36.430       42.226       -9.456       36.101       63.146       20.598     1303.293     3987.373      424.289        0.446        0.286       55.769       21.009        0.142      346.525       24.835      862.996
08/28/2014  23:35:00      -36.034       77.732       -7.186       35.037       58.810       28.192     1227.558     3458.594      794.777        0.644        0.274       85.678       22.668        0.070      346.567       24.908      862.987
08/28/2014  23:36:00      -50.103      106.071      -10.029       45.074       49.346       29.003     2031.665     2435.067      841.200        0.958        0.265      117.309       27.001        0.053      346.495       24.784      862.990
08/28/2014  23:37:00      -89.406      124.048      -14.517       49.909       73.491       35.250     2490.908     5400.863     1242.553        1.636        0.457      152.909       32.534        0.045      346.472       24.743      863.000
08/28/2014  23:38:00      -95.896       91.739        0.674       59.393       67.553       40.923     3527.495     4563.416     1674.701        1.369        0.488      132.710       32.194        0.059      346.495       24.784      863.012
08/28/2014  23:39:00     -103.280       68.672      -17.270       66.779       73.823       30.820     4459.414     5449.804      949.893        1.327        0.543      124.026       35.435        0.082      346.615       24.988      863.018
08/28/2014  23:40:00      -90.927      109.189      -13.663       44.626       48.895       36.724     1991.464     2390.730     1348.652        1.305        0.287      142.091       28.734        0.041      346.442       24.692      863.034
08/28/2014  23:41:00      -99.100      189.152      -14.667       60.282      101.148       45.765     3633.939    10230.923     2094.446        3.088        0.798      213.540       49.486        0.054      346.540       24.858      863.037
08/28/2014  23:42:00     -114.826      166.600      -18.086       46.850       76.413       25.858     2194.877     5838.922      668.653        2.498        0.435      202.338       24.588        0.015      346.496       24.783      863.035
08/28/2014  23:43:00      -91.032        2.163      -10.641       43.029       40.473       22.950     1851.530     1638.090      526.690        0.621        0.201       91.058       14.707        0.026      346.460       24.725      863.031
08/28/2014  23:44:00      -59.265      -25.919       -5.622       37.532       25.539       20.873     1408.666      652.217      435.677        0.336        0.125       64.685       18.748        0.084      346.457       24.719      863.036
08/28/2014  23:45:00      -86.009        8.461      -12.397       23.463       29.572       18.951      550.510      874.522      359.133        0.470        0.089       86.425       12.004        0.019      346.471       24.741      863.052
08/28/2014  23:46:00      -85.293       34.833      -22.037       49.633       66.306       25.259     2463.428     4396.460      638.031        0.823        0.375       92.132       13.885        0.023      346.607       24.977      863.067
08/28/2014  23:47:00      -28.666       81.533      -12.885       33.051       41.116       26.784     1092.348     1690.524      717.360        0.557        0.175       86.426       25.068        0.084      346.524       24.833      863.076
08/28/2014  23:48:00      -47.906       94.338      -10.075       32.187       43.264       17.573     1036.007     1871.793      308.825        0.726        0.161      105.805       13.806        0.017      346.625       25.006      863.071
08/28/2014  23:49:00      -24.881       48.302      -11.562       43.154       40.174       12.764     1862.257     1613.930      162.913        0.336        0.182       54.334        9.546        0.031      346.608       24.975      863.080
08/28/2014  23:50:00      -97.362       34.786      -13.819       26.353       16.214       11.246      694.491      262.910      126.476        0.598        0.054      103.389        2.741        0.001      346.538       24.858      863.111
08/28/2014  23:51:00      -36.583       68.040      -10.463       22.145       29.937       13.057      490.401      896.243      170.475        0.382        0.078       77.251        5.596        0.005      346.606       24.972      863.136
08/28/2014  23:52:00      -61.575       94.819      -23.375       35.022       22.108       15.829     1226.562      488.749      250.550        0.765        0.098      113.058       16.297        0.021      346.638       25.029      863.150
08/28/2014  23:53:00       -1.179      119.482       -6.172       21.553       62.120       28.969      464.517     3858.925      839.188        0.974        0.258      119.488       37.807        0.100      346.481       24.760      863.149
08/28/2014  23:54:00       91.747      180.377      -26.663       87.544       49.789       26.325     7663.972     2478.994      693.029        2.625        0.542      202.369       30.448        0.023      346.843       25.380      863.132
08/28/2014  23:55:00      115.621      -59.243       70.971      118.158      198.190      118.319    13961.337    39279.192    13999.359        4.456        3.362      129.915      101.892        0.615      346.832       25.360      862.968
08/28/2014  23:56:00     -118.865      119.469      -16.989       74.373       76.500       50.649     5531.290     5852.220     2565.273        2.132        0.697      168.528       40.825        0.059      346.518       24.819      863.025
08/28/2014  23:57:00      -15.832      106.476      -19.074       43.438       47.375       32.270     1886.869     2244.404     1041.368        0.856        0.259      107.647       27.146        0.064      346.755       25.231      863.102
08/28/2014  23:58:00      -32.099       67.442        2.619       32.534       32.590       21.470     1058.487     1062.113      460.962        0.408        0.129       74.691       11.598        0.024      346.791       25.292      863.123
08/28/2014  23:59:00      -73.844       60.493      -21.237       29.836       34.347       20.704      890.205     1179.713      428.649        0.603        0.125       95.459       15.163        0.025      346.762       25.243      863.117
